GFSCGP_850_thetae_000.txt.gz
Theta_e
319 318 317 317 318 320 321 321 322 323 324 325 325 326 326 325 325 324 325 327 327 327 326 324 324 323 324 324 324 320 316 318 319 324 329 329 329 328 327 328 327 327 326 324
317 316 316 319 320 319 319 322 322 322 323 323 324 325 326 325 324 324 325 326 326 326 326 325 324 324 324 324 323 319 319 319 323 323 328 328 329 327 327 327 327 327 327 324
315 319 318 317 318 320 320 320 323 323 324 323 323 325 325 326 326 326 326 326 325 326 325 325 324 324 324 324 323 319 322 321 325 325 328 327 327 328 327 327 326 326 324 324
314 317 318 317 316 319 320 322 323 325 325 324 323 325 322 324 324 323 323 325 326 326 325 324 324 324 325 325 322 323 325 326 325 328 325 326 329 328 326 327 326 325 322 322
315 315 316 316 316 319 321 321 322 324 325 322 323 322 321 322 324 324 322 324 326 326 325 324 324 325 325 326 324 325 327 327 325 329 330 329 329 326 326 326 326 326 323 322
314 316 315 315 317 319 321 322 322 323 323 324 324 323 326 323 324 324 322 324 325 324 324 324 325 325 326 325 324 327 327 326 326 330 330 329 328 325 324 324 325 326 325 324
316 315 315 316 316 318 321 321 322 322 324 326 322 323 324 323 323 323 320 324 324 324 324 324 325 326 327 325 324 326 324 327 326 330 329 328 328 325 324 324 325 326 324 325
316 316 316 317 317 316 316 317 323 325 324 324 323 324 324 322 322 324 323 324 325 325 325 325 325 327 327 325 323 323 324 327 327 329 328 329 329 326 326 322 325 326 325 324
315 316 318 317 317 317 317 320 319 322 323 323 323 324 324 323 322 325 325 326 326 326 326 325 326 328 327 324 322 322 326 326 327 328 327 329 328 328 327 324 324 323 323 322
315 317 318 317 317 316 316 318 321 319 323 325 323 324 324 322 323 327 326 325 326 326 326 326 327 328 326 324 322 321 325 326 326 326 328 328 328 329 326 325 324 323 322 322
315 316 319 318 317 316 315 317 321 320 320 324 322 322 320 321 321 327 325 326 327 327 327 327 328 327 326 325 322 323 325 325 325 326 328 328 329 330 326 324 324 324 324 323
315 314 317 318 319 317 316 317 320 323 322 320 321 322 322 321 322 326 325 327 327 327 327 327 328 327 325 325 323 322 326 324 324 325 327 328 329 330 327 326 325 325 325 324
316 316 319 322 318 319 317 319 320 318 319 321 321 321 324 324 326 327 326 326 326 327 328 328 327 326 325 325 323 324 325 324 323 324 328 328 329 327 327 326 325 324 325 324
313 315 317 319 321 320 320 320 322 320 320 321 322 324 326 327 329 327 327 326 327 327 328 328 327 326 325 324 323 324 325 325 322 323 326 328 328 327 328 325 326 325 325 324
310 319 317 318 320 323 323 321 323 323 321 323 322 323 323 324 329 328 328 326 326 327 328 327 327 326 326 324 322 324 325 324 320 323 323 327 326 329 329 325 327 326 326 326
309 317 318 319 319 319 320 324 324 324 322 322 323 324 322 325 329 328 327 326 325 326 327 327 327 326 326 324 322 324 324 325 320 320 320 325 326 328 328 327 327 327 327 327
309 315 319 321 321 320 320 322 324 323 324 323 323 321 321 322 328 328 327 327 326 326 327 327 327 326 326 323 322 323 323 324 320 319 318 322 327 328 326 328 327 327 326 327
310 312 314 319 320 325 323 322 324 324 323 322 321 321 321 324 325 330 329 327 326 326 326 326 326 326 326 324 322 322 323 324 320 318 318 320 328 327 325 324 326 328 326 324
309 311 316 318 321 323 327 325 324 323 323 321 322 320 321 324 326 328 329 330 329 327 326 326 326 326 326 325 322 322 323 324 320 318 318 318 327 328 327 324 323 325 326 325
312 312 320 323 320 324 325 325 324 322 325 321 321 320 320 328 329 327 328 329 329 328 327 326 326 326 326 325 322 322 323 324 321 319 318 318 323 329 329 326 324 324 324 325
321 322 320 322 320 327 323 324 325 325 324 322 323 323 322 324 327 329 330 329 329 329 328 327 326 327 326 326 322 322 323 323 323 320 318 319 317 322 329 328 327 326 325 325
317 319 321 320 324 330 319 323 326 320 323 324 323 325 324 325 327 329 331 330 330 329 327 327 327 327 327 327 323 322 323 322 323 321 319 319 319 321 323 327 327 327 326 325
316 316 316 317 323 314 318 317 314 313 316 324 324 325 327 327 327 328 329 330 331 331 330 329 328 327 327 327 325 323 323 322 324 322 320 321 318 319 323 323 326 326 326 322
311 311 314 313 318 313 313 313 312 313 312 316 322 324 325 326 327 327 327 329 331 331 330 329 328 328 328 327 326 326 323 323 323 323 320 321 319 318 321 322 324 324 324 321
310 311 311 312 314 312 315 312 312 313 312 313 318 322 324 325 327 327 327 328 330 331 330 330 329 329 328 328 327 326 325 323 324 324 321 321 321 317 318 319 320 321 322 321
312 311 312 312 311 311 311 311 311 312 311 312 313 320 323 326 324 326 328 329 330 330 331 330 330 330 329 329 328 327 326 324 323 324 321 321 322 319 318 318 319 321 321 321

GFSCGP_850_thetae_003.txt.gz
Theta_e
315 316 318 317 315 316 316 316 317 318 320 322 322 322 324 324 323 323 324 324 324 325 325 323 323 322 323 322 322 323 320 317 315 321 321 324 326 327 326 326 327 326 327 326
314 316 319 318 317 316 317 317 319 320 321 322 321 322 322 322 322 323 324 324 324 324 324 325 323 322 322 323 323 322 318 318 320 320 322 325 326 326 327 326 327 326 327 326
313 315 318 320 317 318 317 317 318 319 321 321 321 323 323 323 322 324 325 324 324 325 325 325 323 322 323 323 324 322 318 319 321 321 324 323 326 327 327 326 326 326 324 323
313 314 316 318 317 316 318 319 320 320 321 323 322 323 321 321 322 321 323 325 327 326 325 325 323 323 323 324 323 321 320 321 322 324 324 327 327 326 326 326 325 325 322 322
312 314 314 316 316 317 318 319 321 321 321 321 322 322 321 320 322 320 319 322 324 325 325 325 323 323 324 324 323 321 323 324 323 325 327 329 327 326 324 324 325 325 322 322
311 314 314 315 317 318 317 319 319 318 320 322 322 321 323 321 321 322 321 324 324 324 324 324 324 324 324 324 323 323 325 325 323 325 329 329 327 326 324 324 325 325 325 323
313 313 314 315 316 316 315 317 319 318 322 324 321 321 323 322 321 321 321 322 324 324 324 324 324 324 324 325 323 325 326 322 325 330 328 328 328 326 324 322 324 325 324 324
314 314 314 315 315 315 316 318 320 323 322 323 321 324 324 321 322 322 323 322 323 323 323 324 324 324 325 325 323 325 323 324 325 329 329 328 329 327 325 323 325 325 323 324
314 314 315 315 315 315 315 318 319 319 321 322 322 322 322 321 321 322 321 322 323 323 324 324 324 325 326 325 323 323 322 325 326 328 328 328 328 328 326 323 323 323 323 323
314 314 315 315 315 315 314 315 316 314 319 322 323 323 323 323 323 324 323 321 323 324 324 324 325 326 327 324 323 321 324 325 326 327 327 328 327 329 325 323 322 321 320 322
312 314 316 315 315 315 312 315 315 317 319 321 322 323 318 320 320 323 322 323 324 324 325 325 325 327 326 323 322 320 324 325 325 326 328 327 328 329 324 324 323 324 321 320
313 311 314 316 317 316 315 315 315 317 319 318 321 324 321 318 317 322 322 324 325 325 326 325 326 327 325 323 321 321 325 325 324 325 328 327 328 328 325 325 324 325 322 321
313 313 314 315 315 315 314 314 314 315 316 319 321 324 322 320 317 324 323 325 325 326 326 326 327 327 325 324 322 322 325 324 323 325 327 327 326 326 326 324 324 325 323 322
309 313 315 315 316 317 317 315 315 316 318 319 320 321 325 324 323 323 324 325 325 326 326 327 327 327 325 324 323 322 325 324 323 324 327 327 326 326 326 325 324 324 323 322
307 310 317 315 315 319 319 318 316 317 318 319 320 319 321 324 323 324 325 324 325 326 327 327 327 327 325 324 323 323 323 324 323 322 325 327 325 327 325 326 324 323 323 321
306 308 314 320 315 315 316 319 318 319 319 320 319 320 318 323 326 326 325 324 325 326 327 327 327 326 325 325 323 323 324 324 321 321 323 324 326 327 326 326 325 325 324 323
308 309 310 318 318 316 316 317 318 320 320 320 320 319 319 324 326 326 326 325 326 326 327 327 327 326 325 325 322 323 323 324 321 320 321 322 325 327 327 326 326 326 326 327
308 308 309 312 318 318 317 317 318 320 320 319 319 319 321 322 328 329 329 328 326 327 327 327 326 326 325 325 322 322 323 324 322 320 319 319 326 327 326 326 326 325 323 324
313 308 310 315 316 319 323 324 322 321 321 320 319 319 320 324 326 328 328 329 328 327 327 326 325 325 325 325 321 322 323 323 322 319 318 318 327 325 325 324 327 327 324 322
310 308 310 317 317 319 323 319 319 321 321 319 323 322 319 323 325 324 329 328 328 327 327 326 325 325 325 325 322 321 322 323 323 319 318 317 326 326 324 323 322 326 324 322
312 312 311 313 316 325 317 318 317 323 320 313 319 322 318 323 324 326 328 330 329 329 328 326 325 325 325 325 323 321 322 322 323 321 318 317 321 327 327 326 323 323 324 324
313 316 320 319 320 327 314 315 317 314 312 312 313 319 321 322 325 325 327 327 329 329 327 326 326 325 325 325 324 321 322 321 322 322 318 318 319 326 328 329 326 326 325 324
313 312 316 316 318 315 313 313 312 313 312 312 312 313 319 323 322 326 328 328 329 330 329 328 327 326 325 325 325 322 321 321 322 322 318 318 318 317 321 328 328 327 327 326
309 309 313 312 315 313 312 312 311 312 312 312 313 313 318 322 323 324 328 329 329 329 329 329 327 326 326 326 326 325 322 322 322 322 320 319 318 318 321 324 325 326 325 325
310 310 310 311 312 311 312 311 310 311 311 312 314 314 316 321 324 323 326 329 330 330 329 329 328 328 327 326 326 326 323 322 322 322 321 319 320 318 320 322 323 323 324 322
310 310 310 311 309 310 310 311 310 311 310 313 314 315 315 319 325 324 325 327 329 330 330 330 329 329 328 327 326 327 325 322 322 322 323 319 320 320 318 320 322 323 322 321

GFSCGP_850_thetae_006.txt.gz
Theta_e
310 312 315 314 315 315 314 314 314 315 317 318 318 319 320 321 321 320 321 322 323 325 325 325 325 323 323 324 322 322 322 322 318 316 321 323 323 325 325 326 326 327 327 327
313 313 313 315 315 315 315 314 314 316 319 319 319 319 319 319 320 321 322 322 323 324 325 325 324 322 322 323 322 322 322 321 317 319 320 321 323 325 326 327 326 326 326 326
310 312 314 316 317 316 315 315 316 316 319 319 319 319 319 320 321 321 322 323 325 325 326 325 324 323 321 322 322 322 322 318 318 320 320 322 325 326 326 325 326 325 325 322
310 311 313 316 318 317 318 317 317 318 320 319 319 321 319 319 321 319 321 323 324 326 323 323 323 322 321 322 322 323 320 320 320 319 321 325 326 326 324 324 325 325 322 322
309 311 312 315 317 319 318 318 318 319 319 318 319 319 319 318 319 320 319 323 324 322 323 324 324 322 321 322 323 322 321 321 319 320 325 328 327 326 324 323 324 325 323 322
309 312 311 313 316 317 317 316 317 316 316 319 318 319 319 320 321 320 319 322 322 322 323 323 323 322 322 323 323 322 322 321 320 322 326 328 327 326 324 323 323 325 325 322
311 309 312 312 312 315 315 313 314 316 317 320 318 319 319 319 319 319 320 321 323 322 324 324 323 322 323 323 323 323 323 322 321 323 328 328 328 326 325 322 324 325 324 323
312 312 310 313 312 314 316 315 314 317 320 322 319 322 322 319 320 321 322 321 322 322 324 324 323 323 324 324 323 323 324 321 323 327 328 327 328 327 326 323 324 324 323 323
313 313 313 313 314 314 315 314 315 318 319 320 319 320 321 320 320 319 319 320 321 323 323 324 323 324 324 324 323 323 322 323 324 328 328 327 328 327 324 323 321 322 323 323
312 313 313 313 313 314 313 314 316 315 319 321 320 321 322 322 320 321 321 319 321 323 323 324 324 324 324 325 323 323 321 323 324 327 327 328 327 328 324 323 323 320 322 322
311 311 314 312 313 313 312 313 313 315 314 319 320 321 317 320 319 320 319 320 322 323 324 324 324 324 326 324 323 321 323 324 325 326 327 327 327 328 324 324 323 322 320 321
310 309 312 313 312 313 314 314 313 316 317 317 319 320 319 318 317 317 319 321 322 324 324 324 324 325 326 323 322 320 323 324 324 325 327 327 327 327 325 324 323 324 321 319
310 310 312 313 313 313 313 313 314 312 313 317 319 319 319 320 319 318 320 322 323 324 324 324 325 326 325 323 321 320 323 324 324 325 327 327 326 325 326 324 324 323 322 321
307 308 313 314 314 313 314 313 313 312 312 315 319 319 319 323 319 320 321 323 324 324 325 325 325 327 325 323 321 320 323 324 323 324 327 327 325 326 324 324 324 323 322 321
306 308 312 312 315 315 316 314 314 313 314 315 316 317 317 318 320 320 322 323 324 325 325 325 326 327 325 323 322 321 322 323 322 323 327 327 326 326 325 323 321 322 322 323
305 308 309 312 315 316 315 313 314 314 314 314 317 316 315 318 323 322 323 324 324 325 325 325 326 326 325 324 323 322 322 324 322 322 325 326 327 325 325 323 322 321 321 322
307 308 308 310 311 314 314 315 314 315 314 315 316 317 318 323 323 322 323 324 325 326 326 326 326 326 325 323 323 322 321 324 322 320 324 324 327 326 325 325 326 326 325 322
309 309 309 309 314 316 316 318 315 315 320 319 316 317 317 320 326 325 325 326 326 326 326 326 327 326 324 323 323 321 322 323 322 320 322 322 326 327 326 325 324 323 326 325
311 313 311 311 315 316 323 318 317 320 321 314 318 321 322 321 325 326 326 326 327 328 327 327 326 325 322 323 323 321 322 323 322 320 320 321 325 327 326 326 325 324 322 325
310 309 311 312 316 319 317 314 315 318 321 312 313 313 316 320 324 323 328 327 327 327 327 327 326 325 322 323 323 321 322 322 323 320 319 318 325 326 325 323 326 325 323 320
312 312 309 311 311 320 314 313 314 322 316 312 312 312 313 319 320 321 322 328 329 329 327 327 325 324 322 322 322 321 321 322 322 320 318 317 321 326 324 323 322 325 322 319
313 313 318 316 319 324 314 312 314 313 312 312 312 312 312 312 318 321 322 325 328 329 327 327 325 324 324 322 322 321 321 320 322 322 318 317 318 327 324 325 322 323 323 322
314 311 313 315 316 312 312 312 312 311 312 311 311 312 313 314 317 322 322 323 327 329 329 327 325 324 324 324 323 320 320 320 321 322 320 317 317 321 327 327 326 324 325 325
309 309 312 312 311 310 310 312 310 310 310 311 313 313 314 314 316 322 323 323 325 328 329 327 326 325 324 325 324 322 320 320 321 322 322 317 317 320 324 327 328 327 326 325
308 308 309 310 310 309 311 309 310 310 310 309 313 314 315 315 321 323 322 322 326 326 328 328 327 326 325 325 325 325 324 321 320 321 322 318 317 318 319 323 324 327 326 325
308 309 310 311 309 309 309 310 310 310 310 309 311 315 314 315 318 325 324 322 326 326 326 328 328 326 326 326 325 325 325 323 321 321 322 320 318 318 318 320 322 325 324 323

GFSCGP_850_thetae_009.txt.gz
Theta_e
309 313 316 315 316 318 319 321 322 322 319 318 319 320 322 322 322 322 322 322 322 323 324 325 325 325 325 324 324 324 323 323 323 322 319 318 324 325 326 325 327 326 327 327
311 313 314 315 315 315 317 319 320 318 317 318 319 320 322 322 322 322 323 324 324 325 324 325 325 324 323 323 323 323 322 322 322 321 316 322 325 325 325 327 326 326 326 326
313 314 313 314 315 315 316 317 318 318 318 319 320 320 320 322 323 322 322 322 323 323 323 325 325 323 321 322 323 322 322 322 322 318 319 322 324 325 325 325 325 325 325 323
312 313 313 313 314 316 317 317 317 317 318 319 321 322 322 322 322 323 322 324 325 325 323 324 324 323 321 321 322 322 322 322 319 318 321 323 326 326 324 323 324 325 324 322
312 312 313 314 314 317 317 317 317 318 320 321 320 321 321 322 322 323 323 323 325 323 322 322 324 323 321 321 322 322 322 320 319 320 323 325 327 326 324 323 323 324 324 322
312 312 312 314 315 316 317 318 319 320 320 321 320 321 321 322 322 322 325 325 323 323 322 322 323 322 321 322 322 322 321 320 320 322 324 328 327 327 325 322 322 324 325 324
311 311 312 313 315 317 319 320 319 319 320 320 320 321 322 321 321 322 324 326 323 323 323 323 323 321 321 322 323 322 321 321 321 322 325 328 328 326 326 324 323 325 325 324
313 312 312 313 314 316 319 319 320 322 322 321 321 321 321 323 323 321 323 324 323 323 323 324 323 322 322 323 323 322 323 322 321 323 328 327 327 326 325 323 323 324 324 323
316 315 313 314 314 316 318 319 319 318 322 324 324 324 324 325 325 326 325 322 324 326 325 324 323 322 323 323 323 323 324 321 323 328 328 327 328 326 323 322 321 323 324 321
314 316 315 313 314 315 315 317 318 318 318 318 320 324 326 327 327 326 326 325 325 325 325 323 323 323 323 323 324 324 322 321 323 328 327 327 327 328 324 324 321 322 323 321
313 314 316 313 315 315 315 318 318 319 318 319 318 319 327 328 328 328 327 326 325 326 325 324 324 324 324 324 323 324 321 324 325 327 327 326 326 328 325 324 323 320 322 321
312 315 316 316 316 316 316 317 318 317 319 318 321 321 324 327 326 325 325 324 325 326 325 325 325 324 324 324 324 321 322 324 326 326 327 326 326 327 325 324 323 322 319 319
312 315 316 317 316 316 316 317 318 320 321 319 318 320 324 327 326 325 325 324 325 326 325 325 325 324 325 323 323 320 323 324 324 326 327 327 326 326 326 324 324 321 320 318
309 311 316 317 317 317 316 316 317 318 319 320 320 319 322 322 326 326 325 325 325 326 325 325 325 325 325 323 322 320 323 324 324 325 327 327 325 326 325 324 324 322 320 320
310 312 312 313 313 315 316 316 316 317 318 318 320 320 319 324 323 325 325 325 326 326 326 326 325 326 325 322 321 320 323 324 323 325 327 326 326 326 325 323 323 321 321 323
309 312 312 314 314 315 317 317 316 316 316 317 317 319 320 321 322 324 326 325 326 327 326 326 326 326 325 322 321 320 323 323 322 324 327 325 326 325 322 321 322 322 323 323
310 311 313 316 314 316 317 318 318 316 316 317 318 319 319 320 324 327 327 326 327 327 327 326 326 326 325 323 321 321 322 323 322 323 326 325 326 324 323 322 321 321 322 323
311 312 313 316 318 318 320 319 320 318 319 319 319 320 323 325 324 323 325 327 327 328 327 326 326 326 325 322 322 321 321 322 321 322 325 325 326 325 326 325 325 326 324 324
310 313 316 316 321 323 322 317 318 321 320 316 318 318 318 319 323 325 326 326 327 327 327 327 326 326 323 322 321 321 321 322 321 322 323 324 327 326 324 324 323 322 325 325
310 311 314 315 323 322 319 316 314 320 324 316 316 317 317 318 323 327 320 323 326 328 327 327 326 326 322 322 321 321 321 321 321 321 322 323 326 327 325 326 325 322 321 324
314 315 314 315 318 321 315 315 315 327 320 314 314 315 316 318 321 318 319 322 325 327 327 327 327 325 319 321 320 320 321 320 320 320 321 321 323 326 325 324 326 323 320 318
315 317 316 316 321 323 313 313 317 314 313 313 314 314 315 315 316 317 319 321 324 326 326 327 327 325 320 320 319 319 320 319 320 321 320 320 320 326 324 322 323 324 322 317
314 312 314 315 317 312 312 312 311 311 312 312 312 314 315 316 318 318 319 321 324 326 326 326 327 325 321 319 318 318 318 320 320 321 319 319 319 325 325 324 322 324 323 321
310 310 312 312 312 312 312 311 310 311 311 311 311 313 315 316 318 319 322 323 323 325 326 327 327 324 323 319 318 317 318 319 321 322 321 318 318 320 326 324 325 323 325 324
310 310 311 312 311 311 311 310 310 310 310 310 310 312 315 316 318 319 320 326 324 325 326 327 326 324 323 322 319 319 318 319 320 321 322 320 318 317 320 326 327 328 326 325
309 311 313 313 309 309 309 309 310 309 309 309 310 311 314 316 317 320 323 326 325 325 325 327 326 326 324 324 323 322 320 319 319 320 322 322 318 317 319 319 325 326 327 326

GFSCGP_850_thetae_012.txt.gz
Theta_e
312 314 318 320 320 322 323 325 326 327 326 326 326 326 326 326 325 324 325 324 324 325 326 328 328 325 324 325 324 325 327 332 328 327 328 328 328 329 331 331 329 329 330 329
315 316 318 319 320 321 322 324 325 326 326 326 326 325 325 325 325 324 324 324 325 326 325 329 330 325 324 324 324 327 333 326 326 328 328 328 329 330 330 331 332 331 329 328
316 316 317 318 319 320 321 322 323 323 323 324 324 324 324 324 324 323 323 324 326 325 324 329 330 328 325 324 326 329 330 325 327 329 329 326 326 329 330 331 332 332 330 328
315 317 317 318 319 320 321 320 320 321 322 323 323 325 325 325 325 325 324 324 325 325 328 329 331 330 330 329 330 332 328 325 324 322 328 329 328 328 330 331 331 330 328 328
315 315 316 318 319 319 320 318 319 320 321 322 322 323 323 324 325 325 326 326 326 325 329 330 330 330 330 330 331 332 328 323 323 322 329 326 330 330 331 330 330 329 328 328
314 315 316 317 318 318 319 319 319 320 321 322 322 323 324 325 326 326 327 325 325 329 330 330 330 330 330 330 331 331 328 329 324 322 329 331 333 332 330 330 330 330 328 325
315 314 315 316 318 318 318 320 322 324 324 324 323 323 324 327 327 326 326 328 330 331 330 330 330 329 330 330 330 331 331 330 328 330 330 332 333 331 331 330 330 330 330 326
314 317 315 316 317 318 319 321 321 322 323 323 324 324 325 325 325 326 324 325 329 331 331 330 330 330 330 330 330 330 331 330 330 329 331 332 331 330 330 328 328 329 328 327
316 318 316 316 316 319 320 321 322 321 323 324 325 326 327 326 327 326 328 327 329 331 331 330 330 330 329 330 330 330 330 329 329 329 332 332 332 330 327 324 324 329 326 327
317 320 318 315 316 318 321 321 322 321 323 323 322 325 329 328 327 327 327 330 330 331 330 330 329 329 330 330 331 331 330 328 329 331 332 332 329 330 327 327 327 329 327 327
315 318 319 316 316 318 320 322 321 322 321 323 323 323 324 327 328 330 331 331 331 331 330 329 329 330 330 331 331 331 329 328 329 331 331 331 331 331 329 329 327 328 328 327
314 319 321 317 317 318 319 321 322 322 322 321 321 322 326 328 329 329 330 331 331 330 329 329 329 329 330 331 330 329 327 327 329 330 331 331 330 331 328 329 328 326 327 327
312 318 321 320 318 318 319 318 320 322 323 324 321 322 324 328 330 329 331 330 331 330 329 329 329 329 329 330 329 327 326 327 328 330 330 331 330 330 329 329 328 327 326 326
312 317 320 320 319 319 319 319 320 322 322 322 322 320 323 328 328 329 330 330 330 330 329 329 329 329 329 329 327 325 326 326 327 329 329 331 330 330 330 329 328 327 326 326
312 316 318 318 317 318 320 319 320 321 322 322 321 322 322 326 326 327 327 329 330 330 330 329 329 329 329 328 326 324 326 326 326 328 329 330 331 331 329 329 328 327 327 328
313 317 317 318 317 317 319 319 319 320 321 321 320 322 323 323 323 324 327 329 331 330 330 329 329 330 329 327 325 323 325 325 326 328 329 330 330 329 329 328 328 329 329 329
314 316 317 318 317 318 319 319 319 319 320 321 321 322 322 323 322 324 326 329 330 331 330 330 329 330 329 327 324 323 325 324 326 328 329 330 329 328 328 328 329 329 329 330
311 315 318 317 318 320 324 322 321 320 322 322 321 321 322 324 323 323 325 324 327 331 331 330 330 330 329 326 324 323 325 323 325 327 329 329 328 329 329 329 329 329 330 330
310 313 316 321 320 321 323 322 323 324 323 321 323 323 323 322 322 324 326 328 327 330 331 331 330 331 329 325 324 323 324 323 324 326 329 329 329 329 330 330 331 331 330 330
312 313 316 320 320 323 324 319 318 323 327 320 321 323 323 323 324 327 324 324 328 331 332 331 331 331 328 325 324 324 324 323 323 325 328 329 329 329 329 329 328 329 330 330
317 315 316 320 324 324 318 319 319 328 325 319 319 321 322 325 325 323 323 324 326 330 331 332 331 331 328 326 325 324 324 323 323 323 327 329 330 329 330 331 323 326 328 328
317 318 316 318 323 325 316 318 323 318 318 318 318 319 320 321 322 323 324 325 325 329 331 332 332 331 328 326 325 324 324 323 323 323 325 327 329 329 330 331 328 327 326 329
317 313 317 315 317 315 315 314 314 315 316 316 317 317 319 321 323 323 325 326 326 328 330 332 332 331 328 326 324 324 325 323 323 323 323 325 327 329 330 329 329 327 326 326
312 310 313 312 313 314 312 313 312 313 313 314 315 316 318 320 323 324 325 326 329 328 330 331 331 331 328 326 325 324 325 323 322 324 324 324 325 329 329 328 328 327 325 324
312 312 312 312 313 313 312 312 311 311 311 312 314 316 317 320 322 323 326 328 329 329 329 331 331 331 329 326 325 324 324 323 323 324 324 324 323 324 330 328 329 327 327 324
309 311 312 313 312 312 312 311 311 311 311 312 313 315 316 318 321 322 325 330 331 331 328 331 331 331 329 325 325 325 324 323 324 324 324 323 321 322 325 329 329 328 328 325

GFSCGP_850_thetae_015.txt.gz
Theta_e
316 317 318 320 322 324 325 326 327 328 328 328 328 329 330 328 327 328 328 328 328 327 327 327 328 331 332 333 337 339 339 340 344 344 341 336 334 333 332 332 333 334 334 333
318 318 319 319 321 322 322 324 326 327 328 329 329 329 330 330 329 327 327 327 327 327 327 327 328 335 334 336 336 338 339 342 343 341 337 333 332 332 333 333 334 334 333 333
317 319 318 318 319 321 323 324 325 326 327 328 328 329 329 328 327 326 325 325 325 326 326 327 328 336 335 336 337 338 339 343 340 337 333 332 332 333 334 331 333 332 331 332
316 317 319 319 319 320 323 323 324 325 327 328 327 330 328 328 328 327 327 326 326 326 327 328 328 336 336 337 338 338 340 339 336 332 333 334 333 331 331 333 331 332 332 331
315 317 317 319 320 320 322 323 325 325 325 325 325 327 326 326 327 327 328 326 326 326 327 327 332 336 336 337 338 339 339 336 335 333 333 332 330 330 332 330 332 331 332 330
314 315 317 318 319 320 321 322 324 325 325 327 325 326 327 327 327 327 328 327 327 328 328 331 335 335 336 336 337 338 337 336 335 333 334 331 333 332 331 332 332 330 330 327
312 314 317 318 318 320 321 323 325 326 327 328 325 326 327 327 327 328 328 328 327 330 333 334 334 335 335 336 336 336 336 336 334 333 333 333 334 333 333 333 331 331 330 327
311 312 315 318 319 320 321 323 325 328 328 326 325 326 327 327 327 326 326 326 332 334 334 334 334 334 335 335 335 334 335 334 333 333 333 333 333 333 331 331 331 329 329 328
315 312 314 317 318 319 321 324 323 326 327 328 327 327 327 328 329 327 329 327 332 334 334 334 334 334 334 334 334 334 334 333 333 332 333 332 333 332 331 329 327 330 329 328
317 315 314 317 317 318 321 322 323 327 327 327 327 328 326 329 328 328 330 329 331 334 334 334 334 334 334 334 333 334 334 333 332 332 332 332 333 332 332 332 331 329 330 329
314 319 320 318 319 318 320 322 323 325 325 327 328 326 327 329 329 329 329 330 334 334 334 334 333 333 334 333 334 334 333 331 331 332 331 332 331 332 331 331 330 329 329 328
314 317 324 320 320 319 320 322 324 326 327 325 326 327 329 327 329 331 332 333 334 334 333 333 333 333 333 334 334 334 331 330 330 331 331 330 332 332 332 331 329 330 328 327
314 318 321 325 321 319 320 321 324 325 327 325 325 325 328 329 331 331 332 333 334 333 332 332 333 333 333 334 334 331 329 329 330 330 331 331 331 333 331 331 329 328 328 328
311 317 321 326 321 319 320 321 324 325 327 326 325 326 328 330 330 331 333 334 333 332 332 332 332 332 333 333 331 328 328 328 329 330 330 331 331 333 330 329 329 327 327 327
313 316 317 319 321 322 320 321 322 325 325 326 326 324 327 329 329 329 332 333 333 332 332 332 332 332 333 332 329 327 327 327 329 329 330 331 332 332 330 329 329 327 327 327
312 317 315 316 319 322 321 321 321 322 324 324 324 324 324 325 326 327 329 332 333 333 332 332 332 332 332 330 327 327 327 327 328 329 330 332 331 330 330 329 329 328 328 328
313 317 317 318 319 322 322 322 321 322 323 324 324 324 325 325 327 329 329 330 332 333 332 332 332 332 331 329 326 326 327 327 328 329 331 331 330 330 330 330 330 330 329 329
312 313 317 321 320 325 322 322 322 322 323 323 324 324 326 326 325 325 327 329 328 333 332 332 332 333 331 328 326 326 326 326 328 329 331 330 330 330 330 330 330 331 330 329
311 313 318 321 324 325 323 324 324 322 326 325 325 324 326 325 325 325 329 329 331 332 333 333 333 333 331 327 326 325 326 325 327 330 330 330 330 331 331 330 331 332 330 330
313 314 316 320 323 325 326 323 322 326 329 324 325 326 326 326 327 332 328 328 330 334 333 333 333 334 331 327 326 325 325 325 327 329 330 330 331 331 331 332 333 333 332 331
315 316 317 321 325 326 322 323 322 326 329 323 323 324 325 327 328 326 327 328 328 331 334 334 333 334 331 327 326 325 326 325 326 328 331 330 331 331 332 331 331 331 332 331
317 321 319 320 325 328 319 321 326 324 322 322 322 322 324 324 326 327 328 329 329 330 334 334 334 334 331 327 326 326 326 325 326 327 330 331 331 331 332 332 330 329 331 332
318 314 318 316 315 315 316 316 317 319 319 319 320 321 322 324 326 328 329 329 330 330 333 334 334 335 331 328 326 326 326 325 326 326 329 331 332 332 332 332 329 328 330 331
312 311 315 315 314 314 315 314 315 315 317 317 318 320 321 323 326 327 329 331 330 331 332 334 335 335 332 328 326 326 326 324 325 326 328 330 332 331 332 330 329 326 327 329
310 311 312 314 312 314 314 314 314 315 316 317 317 318 320 322 324 326 328 333 332 332 331 334 335 335 333 329 326 326 326 324 325 326 327 328 329 330 331 329 329 328 326 325
310 311 314 314 311 312 313 314 313 314 316 316 316 318 319 321 323 325 326 328 332 334 332 333 334 335 334 329 327 326 326 324 325 326 326 327 326 329 330 329 330 328 328 324

GFSCGP_850_thetae_018.txt.gz
Theta_e
314 317 318 319 320 322 323 325 325 328 328 329 330 330 330 331 329 331 330 329 328 329 330 328 328 327 327 332 332 335 336 339 342 344 344 345 342 339 335 332 334 333 335 334
315 318 319 318 319 320 321 323 324 326 326 328 329 330 331 331 331 330 331 331 330 329 328 328 328 327 332 332 331 334 337 340 343 345 344 343 340 336 334 333 333 334 334 334
315 317 317 318 318 319 321 322 324 324 325 327 328 329 331 330 330 329 329 328 328 328 327 327 327 327 334 333 333 335 340 340 345 343 342 340 336 334 333 334 334 333 332 331
313 315 316 318 319 319 321 321 322 323 325 327 327 330 332 332 332 331 329 329 329 329 329 329 329 333 335 335 336 338 340 344 343 344 339 336 333 334 334 331 332 334 334 333
310 313 315 316 319 319 321 320 321 323 324 327 326 328 329 329 330 329 330 328 328 328 328 327 327 336 337 338 338 340 341 342 342 337 335 333 334 332 333 333 331 331 331 331
311 310 313 316 317 319 320 320 321 323 325 328 328 328 328 329 328 329 330 328 328 328 328 328 334 338 339 339 339 341 340 339 337 335 335 333 332 333 332 331 332 333 332 330
313 311 312 313 316 318 319 323 324 325 326 328 326 328 330 329 328 329 329 328 328 331 330 336 337 338 338 339 340 340 337 337 334 334 334 335 332 333 332 334 332 333 331 328
315 318 312 313 315 318 319 323 324 325 325 326 326 328 328 329 329 328 327 327 331 334 335 337 337 338 338 339 339 338 338 336 334 334 333 335 334 329 333 332 331 332 331 329
317 317 316 313 315 317 319 320 322 325 325 326 328 328 329 329 329 328 328 328 334 334 335 336 337 336 338 338 338 337 337 335 334 334 334 334 332 334 332 329 326 330 328 327
313 313 315 317 314 316 319 320 322 324 327 330 329 329 329 331 330 330 328 332 336 336 336 336 336 337 337 337 337 336 335 334 334 333 334 333 331 333 331 329 331 328 328 329
311 312 312 315 317 316 319 320 321 325 326 328 330 329 333 332 329 331 330 329 336 336 336 336 336 337 336 336 335 335 335 334 333 333 332 331 330 331 330 329 329 328 329 328
312 314 319 319 319 315 319 319 322 324 327 326 329 329 330 329 331 332 331 334 336 336 336 336 336 336 335 335 336 335 334 333 332 332 330 330 329 331 331 329 330 328 328 327
312 316 318 319 319 320 320 320 322 325 328 329 327 329 329 328 330 331 334 336 336 335 335 335 335 335 335 335 335 335 332 331 332 331 331 329 331 331 329 329 329 327 327 327
310 314 316 320 321 320 324 320 321 326 326 328 328 328 329 330 332 332 336 336 335 334 335 335 335 335 335 335 335 332 330 330 331 332 331 330 331 330 329 329 327 329 328 328
311 316 316 314 314 317 320 322 320 325 325 327 328 326 330 333 332 333 335 335 334 334 334 335 334 335 335 335 333 330 329 330 330 331 331 330 330 330 329 328 329 327 328 327
313 315 315 317 314 315 319 321 323 322 324 326 327 326 331 331 329 333 335 334 334 334 334 334 334 334 334 333 330 328 328 329 330 332 332 330 330 330 328 328 329 328 328 328
311 316 317 317 316 316 321 323 324 322 326 327 327 329 330 331 332 333 332 333 333 333 333 333 333 334 333 331 328 328 328 328 330 331 331 331 331 331 330 330 328 327 327 327
311 313 316 321 318 322 323 323 324 324 327 327 327 327 329 329 327 328 331 333 332 333 333 333 333 334 333 330 327 328 328 328 329 331 331 331 330 330 330 329 330 329 328 329
311 312 317 319 322 322 324 325 326 325 328 328 328 328 328 327 326 331 329 330 331 333 333 333 334 334 332 329 327 327 327 327 330 332 331 331 330 331 331 330 330 330 329 329
313 313 316 318 319 332 326 323 324 327 330 326 328 328 328 327 326 332 329 330 330 332 336 334 334 334 332 328 326 327 327 327 330 331 331 331 331 331 330 330 330 330 329 330
316 316 318 317 319 324 320 321 323 329 330 325 325 326 327 330 329 328 329 330 330 331 335 334 334 335 332 327 326 327 326 327 329 331 331 331 331 332 332 332 331 329 331 330
316 319 319 318 320 323 315 321 325 325 323 323 323 324 326 327 328 328 329 330 330 331 335 334 335 335 331 327 326 327 326 326 328 331 331 332 332 333 332 330 331 332 331 329
316 314 314 316 315 311 314 317 317 319 320 321 322 323 325 327 328 329 330 331 330 331 334 335 335 335 331 328 326 327 327 326 327 331 332 332 330 333 332 328 330 329 330 329
311 311 314 316 313 313 315 315 316 317 318 319 320 322 324 325 327 328 331 333 331 332 332 335 335 336 332 328 327 327 327 326 327 329 332 332 331 333 333 331 328 329 332 331
311 311 312 314 312 313 313 314 314 316 317 318 319 320 322 324 325 327 329 331 334 333 333 335 336 336 334 329 327 327 327 326 327 327 331 333 332 333 332 331 328 328 327 329
311 312 314 314 312 312 313 313 314 315 316 317 318 319 321 322 324 326 327 328 330 334 334 334 336 336 335 330 328 327 327 325 327 326 330 330 332 331 333 331 329 328 326 326

GFSCGP_850_thetae_021.txt.gz
Theta_e
311 310 313 313 314 317 319 321 322 322 323 324 325 325 326 326 326 326 327 328 329 329 329 328 328 328 329 327 328 328 330 330 333 337 341 343 340 343 342 337 333 332 333 334
311 311 312 315 315 316 317 317 319 321 323 323 324 325 326 327 326 327 326 328 330 330 329 329 328 328 327 328 329 331 332 335 336 339 343 343 342 342 340 337 333 332 333 333
309 313 313 314 316 316 316 317 317 318 321 321 321 322 322 323 325 327 328 328 328 329 328 328 327 327 327 330 330 332 334 336 339 345 345 344 343 342 339 336 332 332 333 333
307 310 314 313 315 317 316 317 318 320 320 320 321 323 322 323 324 325 327 327 328 329 328 327 328 328 328 330 332 333 335 342 346 346 344 342 342 338 333 333 333 334 333 334
308 309 310 312 314 316 317 318 318 319 318 318 320 322 322 324 325 323 324 327 328 327 327 327 328 329 331 333 334 334 338 343 345 344 342 340 338 335 334 334 333 333 333 331
309 310 309 309 311 315 315 317 318 317 317 318 320 321 322 322 323 325 324 326 327 327 328 328 330 332 335 335 335 337 339 343 344 343 339 336 333 332 333 333 331 331 331 331
313 312 310 310 310 310 313 313 316 318 318 319 319 321 323 323 324 324 324 325 329 331 332 333 334 336 337 337 337 337 340 342 341 336 335 333 334 334 333 332 331 332 331 330
311 314 314 314 310 309 310 314 315 318 320 319 320 322 322 323 324 326 326 326 335 335 336 337 338 338 338 338 338 339 339 338 336 335 333 333 334 332 331 330 330 331 331 327
315 313 314 312 313 311 310 311 315 316 319 319 320 321 321 321 323 324 324 328 337 338 338 338 338 338 339 339 338 336 337 335 334 334 334 334 329 331 331 333 329 326 327 327
312 312 311 311 311 314 312 313 315 315 318 320 321 321 322 325 324 325 325 333 336 337 338 337 337 338 339 338 337 336 335 333 334 333 334 331 333 333 332 330 328 328 328 329
310 311 311 311 310 312 313 311 312 315 316 319 321 322 323 325 326 325 326 334 336 336 337 336 338 338 337 337 337 336 333 334 334 333 333 330 330 330 330 328 329 327 328 327
311 313 314 312 312 312 314 315 313 316 317 319 321 323 326 328 327 323 328 335 335 336 336 337 338 337 337 337 336 335 334 334 333 333 331 330 329 329 330 329 328 328 327 326
311 311 313 313 311 314 316 318 314 315 318 318 321 321 323 323 329 331 334 335 336 336 336 337 336 336 336 335 335 334 334 333 332 332 329 329 329 330 330 328 328 325 326 326
310 310 312 315 316 315 317 317 317 318 318 319 323 322 321 325 330 333 334 335 335 335 336 336 336 336 335 335 335 334 333 331 332 329 329 328 328 330 329 328 327 327 326 327
310 313 312 314 315 315 314 314 315 316 319 319 320 323 324 330 331 334 334 334 334 335 336 335 335 335 336 335 335 333 331 330 331 331 329 329 330 329 328 327 328 328 328 327
311 314 313 314 315 315 313 314 314 315 316 320 319 322 327 329 334 334 334 334 334 335 335 335 335 335 335 335 333 330 330 330 330 331 329 329 329 328 327 327 327 327 327 326
309 313 314 317 316 316 315 313 314 315 317 319 319 321 330 331 331 332 333 333 334 335 335 335 335 335 335 334 331 328 329 330 329 330 330 329 329 329 327 328 327 327 327 327
308 310 313 319 317 316 314 321 317 317 319 325 323 329 330 329 330 330 331 333 334 334 334 334 334 335 334 332 329 327 329 329 330 330 330 330 331 329 328 328 327 327 326 327
308 312 314 318 319 317 318 321 321 323 329 329 328 328 329 330 329 329 330 330 331 334 333 334 334 334 333 330 328 328 328 327 329 330 331 330 330 329 329 328 328 329 328 328
312 311 315 317 318 322 320 316 315 319 331 327 327 327 329 328 331 328 329 329 329 333 334 333 333 333 332 328 327 328 328 327 329 331 331 330 330 330 330 329 330 329 329 329
314 315 316 316 318 317 316 314 314 330 329 327 326 327 328 327 327 328 329 329 329 331 334 334 333 333 332 328 326 327 327 327 329 332 331 331 330 329 329 330 329 330 331 329
315 315 318 317 318 319 311 315 324 321 321 325 324 326 328 329 329 329 330 330 330 331 335 334 334 333 331 328 326 327 326 327 329 331 330 331 330 331 332 328 329 332 330 329
314 313 312 315 315 313 312 315 316 318 320 321 323 324 326 327 328 329 332 332 331 331 332 335 334 333 331 329 326 326 326 326 328 331 330 331 331 331 328 325 331 332 329 329
311 311 309 314 312 312 314 313 314 316 318 318 320 322 324 325 327 328 329 329 332 332 332 336 335 333 331 329 326 326 326 326 328 331 331 332 331 332 332 321 328 328 330 328
311 311 312 312 313 313 313 313 314 315 317 317 318 321 322 323 325 325 325 327 330 333 333 333 335 334 332 329 327 326 328 326 327 331 332 331 330 332 332 324 328 328 330 330
310 312 312 313 312 313 313 313 313 314 316 316 317 319 320 321 323 323 324 325 326 330 335 335 336 335 334 331 328 325 329 325 327 330 332 332 331 333 332 329 328 328 327 327

GFSCGP_850_thetae_024.txt.gz
Theta_e
308 307 308 309 311 313 316 318 319 319 319 320 321 322 322 322 324 323 325 325 326 326 327 327 328 329 328 328 329 328 327 328 329 329 332 339 342 342 342 342 341 337 335 333
309 308 309 310 312 313 313 315 316 316 317 320 320 321 322 322 323 324 324 324 325 326 327 327 329 329 328 328 327 327 328 327 328 330 335 341 343 343 341 340 337 335 332 334
307 310 311 311 311 313 314 314 315 316 316 316 317 318 319 320 320 321 322 323 325 327 326 327 328 329 328 328 327 327 328 328 331 332 337 342 343 343 342 340 338 335 333 333
305 306 307 309 311 311 313 314 315 315 316 317 317 318 318 319 319 320 321 323 324 325 325 326 327 327 327 327 329 329 330 333 337 338 341 344 343 342 342 341 338 333 333 333
306 307 307 308 310 313 312 315 315 316 316 315 316 317 318 319 320 320 320 323 325 325 325 326 327 327 326 328 329 332 335 337 342 344 345 345 343 342 341 333 334 332 332 333
307 308 307 307 308 309 310 314 314 315 314 315 316 316 317 317 319 320 320 323 324 325 326 326 326 326 329 332 333 335 336 344 346 346 344 342 342 338 334 333 334 333 333 332
311 311 310 309 309 309 308 309 311 314 315 317 316 316 318 317 318 319 320 321 323 323 326 329 328 331 334 335 336 335 340 344 344 343 342 340 336 334 333 334 333 331 331 330
308 308 312 313 311 308 306 307 311 314 317 316 316 317 317 317 318 319 320 322 324 329 332 333 335 336 336 337 337 340 343 344 343 340 337 333 333 333 333 332 331 331 330 330
312 312 311 311 311 310 310 307 308 311 313 315 317 317 317 317 318 318 319 325 332 335 336 337 337 338 338 338 338 340 342 341 337 335 333 334 334 333 332 331 329 329 327 327
310 310 310 310 309 310 311 312 310 309 313 314 317 318 318 320 319 320 319 330 335 337 338 338 339 338 338 339 339 340 340 337 335 333 333 333 331 329 330 332 331 327 326 325
309 309 309 311 310 309 310 310 309 310 311 315 317 318 316 318 319 322 320 333 336 338 338 338 338 338 338 337 336 337 335 334 333 332 332 330 330 328 330 327 328 328 327 326
310 310 312 310 309 311 310 311 312 311 310 313 316 317 318 318 319 321 331 335 336 337 337 338 338 338 336 335 336 335 334 333 332 332 329 328 328 329 329 329 328 327 327 325
309 308 309 307 310 313 312 315 315 313 311 313 316 316 317 318 320 326 332 334 335 336 337 338 338 337 337 336 334 332 332 332 331 330 330 328 328 328 329 328 328 326 326 326
309 308 309 307 311 312 314 315 314 315 316 314 314 316 317 317 321 332 332 334 334 336 337 337 337 337 336 335 334 333 333 332 331 330 328 328 328 328 329 328 326 324 326 325
310 310 310 311 311 312 315 314 314 314 315 317 317 317 317 318 319 331 333 334 335 336 336 336 336 336 335 335 334 333 331 331 331 328 328 328 328 330 328 328 326 326 326 326
310 309 312 311 312 313 314 314 313 313 314 314 315 317 317 330 330 332 333 334 335 335 335 336 336 335 335 334 334 332 331 331 331 329 328 328 328 328 327 327 327 327 326 326
309 310 312 312 314 315 315 314 314 313 315 316 317 317 318 332 333 330 333 334 334 335 334 335 335 335 335 334 332 330 330 330 330 330 329 328 328 327 326 326 326 327 326 326
307 307 312 312 313 317 315 317 319 315 315 316 324 322 321 327 331 331 331 333 334 335 334 335 335 335 335 334 330 329 329 329 329 329 329 329 329 327 326 327 326 327 327 326
306 308 311 314 311 316 319 316 318 321 325 327 327 328 328 329 329 330 331 332 334 334 334 334 334 335 335 334 328 327 329 329 329 329 329 330 330 327 327 326 327 327 326 326
311 307 310 314 316 316 318 312 313 316 327 325 325 326 328 328 329 329 330 330 333 334 334 334 334 334 334 332 327 327 329 328 329 330 330 330 328 328 328 327 328 329 328 328
313 314 312 312 310 316 310 310 312 325 328 321 324 325 328 327 328 328 329 329 331 333 333 334 334 334 333 329 327 327 327 327 329 330 330 330 329 329 328 328 329 328 328 328
314 314 316 316 316 317 310 312 321 319 318 320 321 324 329 329 328 329 330 330 331 333 334 334 334 333 331 328 327 326 327 328 329 330 330 330 329 328 328 329 329 329 329 328
314 311 312 312 312 307 309 315 314 315 315 317 318 321 327 326 326 326 329 331 331 334 334 333 334 332 329 327 326 326 326 328 328 331 330 330 330 330 330 328 327 331 329 328
310 309 307 310 313 312 312 313 314 315 315 315 317 321 322 322 323 323 325 330 332 333 334 334 333 331 328 327 326 324 325 327 327 331 330 331 331 330 328 324 329 329 328 328
310 310 311 312 312 313 312 313 313 315 316 315 318 319 320 320 321 322 323 325 327 332 333 334 333 332 330 327 326 324 325 327 327 331 330 331 331 330 330 323 326 328 329 329
309 310 311 313 311 312 313 313 313 314 316 315 317 318 318 318 319 322 322 323 324 328 333 335 334 332 331 327 326 324 326 326 327 331 330 331 331 331 330 323 328 329 329 328

GFSCGP_850_thetae_027.txt.gz
Theta_e
307 305 307 309 310 312 312 314 316 317 316 318 318 318 319 319 320 320 321 322 322 323 325 326 325 326 327 326 328 329 328 328 327 327 329 332 332 335 337 340 340 339 341 339
306 307 308 309 310 310 310 311 313 314 315 316 317 318 318 318 319 320 321 321 322 323 324 324 324 327 327 328 328 328 328 328 327 328 330 333 333 337 340 341 341 342 339 338
306 307 309 309 309 310 310 312 313 314 315 315 314 316 315 316 318 319 320 321 322 323 322 322 324 324 325 326 328 328 328 327 327 328 332 334 337 341 342 342 342 340 337 335
304 305 306 307 308 309 309 311 313 314 314 315 314 316 315 316 315 316 318 319 320 320 321 322 323 326 326 326 328 327 327 326 328 329 334 336 338 342 342 341 340 337 334 332
305 305 305 306 307 308 309 310 312 313 313 313 314 314 315 314 315 316 316 318 319 320 321 322 323 325 325 325 326 327 327 329 330 333 339 340 341 342 341 340 338 335 333 333
306 307 306 305 307 308 309 311 310 311 311 313 314 314 315 315 315 316 316 319 320 321 323 323 322 324 325 326 326 329 331 333 336 339 342 343 343 342 341 339 336 334 332 333
309 307 307 307 306 307 308 306 309 312 313 315 314 315 315 315 315 315 316 318 320 321 321 322 323 326 329 329 333 335 338 338 340 344 345 344 343 342 341 335 332 333 333 333
312 310 309 312 308 309 305 305 308 313 315 314 314 315 315 314 315 316 317 317 318 319 320 321 328 332 332 337 338 339 341 341 344 344 343 342 341 338 334 332 333 333 332 331
312 311 310 310 310 309 310 305 306 306 310 311 313 314 315 316 316 315 315 316 318 320 324 330 334 336 338 338 339 340 342 343 343 342 341 338 334 333 332 333 332 331 329 329
309 309 309 310 309 309 308 309 307 305 311 313 313 314 316 316 316 316 316 315 320 329 335 336 337 338 338 338 340 342 342 342 340 337 334 333 333 332 332 332 330 329 327 325
308 308 309 309 308 306 309 310 309 306 308 312 314 315 314 316 316 315 316 318 323 333 337 338 339 338 339 341 342 342 340 338 335 333 333 333 331 330 330 330 330 328 326 324
309 308 311 309 308 309 309 310 310 309 309 309 312 313 314 313 314 315 323 322 332 336 338 339 339 339 340 341 341 339 337 334 333 332 331 328 327 327 328 327 327 327 326 325
309 307 308 306 310 311 310 312 311 312 311 313 311 312 313 313 313 319 326 333 334 336 338 339 339 338 338 339 337 336 334 333 332 329 326 327 328 328 328 329 327 326 326 326
309 306 307 307 308 309 310 312 313 313 313 314 313 312 313 313 314 315 331 333 333 337 338 339 338 336 336 336 335 334 333 331 328 327 328 328 327 328 329 328 327 325 326 325
307 309 308 308 309 311 311 312 313 314 313 315 314 314 314 314 316 316 327 333 335 336 337 338 337 336 335 334 332 332 331 327 328 328 328 327 327 329 329 327 324 325 325 325
309 308 310 310 310 309 313 312 312 314 313 313 313 314 315 316 324 329 329 333 335 335 336 337 336 336 335 333 332 331 330 328 330 329 328 327 328 329 328 326 325 326 326 325
308 309 309 309 308 310 313 313 313 313 312 312 314 315 316 317 320 329 331 334 335 335 336 336 336 335 334 333 331 330 329 329 331 330 329 328 328 327 327 326 326 326 325 325
307 309 309 309 310 311 314 317 317 315 312 312 313 314 321 320 320 330 331 334 334 334 335 335 335 335 334 332 330 329 329 330 331 330 329 328 327 326 325 326 326 326 325 325
307 306 308 309 312 312 315 316 316 317 319 323 324 324 325 325 329 331 332 332 334 334 335 335 334 334 333 329 327 329 330 329 330 328 329 328 329 326 326 326 325 326 326 326
310 307 308 311 313 316 318 312 311 313 319 320 321 323 323 325 330 328 332 331 332 334 334 334 334 334 333 331 328 329 329 329 329 328 329 329 329 326 326 326 326 326 327 326
312 309 310 309 312 314 312 310 310 321 320 318 320 319 322 325 326 328 326 329 330 333 334 334 334 334 334 332 328 328 328 329 329 328 329 329 327 327 327 327 328 328 329 328
312 313 314 312 315 316 308 307 319 317 317 318 317 318 322 325 327 329 329 329 331 331 333 334 334 334 334 332 328 327 328 329 329 329 329 328 328 328 328 328 328 328 328 329
313 308 311 311 311 305 305 308 308 316 316 316 317 320 323 322 323 326 330 330 331 332 333 334 334 334 334 332 328 327 327 327 328 329 330 329 328 328 328 329 328 328 329 328
310 308 307 309 309 307 309 313 313 314 314 316 317 321 321 322 321 322 325 330 333 333 332 333 333 334 334 331 328 326 326 327 329 328 330 330 329 329 329 329 326 330 327 328
310 311 310 309 311 311 312 313 311 314 314 316 317 317 319 321 322 322 324 326 330 332 332 333 333 334 333 330 327 326 326 328 328 328 330 330 330 330 329 324 327 328 328 328
310 309 312 312 311 311 313 313 311 314 314 314 315 315 317 319 320 321 323 325 327 331 333 331 333 333 332 329 327 325 325 326 327 327 330 330 330 330 329 322 326 328 329 329

GFSCGP_850_thetae_030.txt.gz
Theta_e
306 304 305 308 310 311 310 312 314 314 315 316 316 317 317 317 317 318 319 319 320 321 321 322 323 324 324 324 326 327 328 328 328 328 328 328 328 329 331 333 336 337 338 336
304 304 306 307 308 309 309 310 310 312 313 314 314 314 313 314 315 317 318 318 319 320 321 321 322 324 324 323 324 324 326 328 328 328 328 327 327 329 332 336 338 339 339 338
304 305 307 308 308 309 309 309 310 312 313 313 313 315 315 314 314 315 316 317 318 319 320 321 322 323 323 322 323 324 325 327 327 327 327 328 330 333 335 337 340 340 339 339
304 304 305 306 307 307 307 310 311 313 313 314 313 315 314 314 314 314 315 316 317 318 319 320 321 321 322 322 322 324 325 327 328 328 328 328 330 333 333 337 341 341 342 338
306 305 305 304 305 307 308 309 309 309 310 311 312 312 314 313 313 312 313 314 315 316 317 317 318 319 320 321 322 324 325 327 327 327 329 332 334 336 338 341 342 342 337 334
307 306 305 304 305 306 307 309 309 310 310 311 311 312 313 312 313 312 313 314 316 317 318 319 320 322 321 322 323 324 324 326 328 331 333 336 338 340 341 341 341 337 333 332
310 306 307 306 305 305 305 306 308 310 311 311 311 312 313 312 312 313 313 315 317 318 319 319 320 320 322 323 327 327 328 332 335 337 341 342 342 342 341 340 338 334 332 332
312 310 308 309 305 305 304 304 307 313 312 309 313 313 313 312 313 314 314 316 316 317 319 319 320 322 327 330 333 336 338 338 340 343 344 344 343 342 340 340 333 331 332 332
312 312 311 310 310 308 307 304 305 305 307 308 310 311 312 313 313 313 313 316 317 320 319 318 322 330 334 338 340 339 338 340 344 344 343 343 342 341 337 332 332 333 333 331
309 310 309 311 310 309 307 307 305 303 308 311 311 311 313 313 313 314 313 312 317 320 321 327 334 336 341 340 340 341 341 341 342 342 341 339 336 333 332 332 332 331 330 327
307 307 308 308 308 305 308 308 308 304 306 311 313 312 311 312 312 312 312 318 328 321 331 336 337 339 338 339 342 341 341 340 340 339 336 335 333 332 332 331 330 329 327 325
308 308 310 309 307 307 307 308 309 308 309 306 308 309 309 311 311 311 314 329 331 330 338 338 339 338 340 341 343 342 341 339 335 333 333 332 331 329 329 329 328 328 325 324
308 306 308 307 309 308 309 310 308 309 310 310 309 309 310 310 311 313 313 329 333 337 339 339 339 340 341 342 342 340 337 334 333 332 331 328 325 327 328 328 327 326 326 326
308 305 306 305 308 308 309 310 309 312 312 310 309 310 311 311 312 313 316 324 333 336 338 338 339 339 340 340 338 336 334 333 331 327 324 326 327 328 329 327 326 326 325 326
305 308 307 307 308 309 309 310 310 311 312 314 313 313 313 312 312 313 317 325 334 336 336 338 339 339 339 337 336 334 333 331 326 326 327 327 327 328 329 327 325 326 325 325
306 308 308 308 308 309 311 309 309 310 311 311 313 313 311 312 313 314 320 329 333 335 337 337 337 337 337 335 334 333 331 325 325 327 328 327 327 328 328 326 324 326 325 325
308 309 308 307 308 308 307 306 307 308 311 311 313 311 311 313 315 317 322 329 333 335 337 337 336 335 335 334 333 331 327 325 327 328 328 328 328 328 327 325 325 325 325 325
310 308 307 307 304 305 306 310 313 311 311 311 311 311 313 316 320 323 325 330 334 335 336 336 335 335 333 330 330 330 324 327 329 330 329 329 327 326 327 326 326 325 325 324
307 308 308 306 307 309 309 313 315 315 315 314 312 311 313 321 324 327 330 331 334 334 336 336 334 334 332 331 328 326 327 329 330 331 330 328 327 325 324 325 326 326 325 325
308 307 308 309 310 311 313 312 310 312 316 320 320 321 322 321 327 328 330 332 333 334 335 336 335 334 333 331 327 328 329 330 330 329 329 328 328 325 325 326 324 325 326 325
311 310 309 309 310 309 311 309 307 319 317 318 319 318 318 321 324 327 331 331 333 334 333 335 334 333 328 329 327 328 329 329 329 328 329 328 328 326 325 326 326 326 327 327
312 312 311 311 311 312 306 306 314 315 316 317 318 319 318 320 325 327 327 328 331 331 332 334 334 333 329 327 327 328 328 328 329 328 329 329 327 327 327 327 327 328 328 328
311 308 309 310 311 306 303 304 306 309 309 317 317 320 321 320 323 327 327 328 328 331 332 333 334 333 333 331 327 327 327 328 328 329 329 327 327 328 328 328 328 328 328 328
308 305 306 307 307 307 307 306 314 315 315 316 317 318 319 319 323 325 327 327 329 331 331 333 333 333 334 333 330 326 326 328 328 329 329 328 328 328 328 328 329 328 328 327
310 310 310 309 309 309 308 310 312 314 314 314 315 316 317 319 321 324 326 329 331 332 331 332 333 333 334 334 333 329 326 328 327 328 329 329 329 329 328 329 327 329 328 328
309 310 311 312 311 310 311 310 311 311 313 313 312 314 315 319 322 325 324 326 330 331 331 331 332 333 333 334 332 329 326 326 328 328 329 330 329 329 329 324 327 328 329 329

GFSCGP_850_thetae_033.txt.gz
Theta_e
307 308 308 309 311 313 314 314 316 316 317 318 319 320 320 320 320 321 321 321 321 321 321 321 319 319 320 321 323 324 323 325 325 327 327 327 327 328 328 329 330 334 335 337
308 308 308 308 309 311 312 313 314 314 315 316 319 319 319 319 319 319 319 320 320 320 320 320 319 320 320 320 322 324 323 323 324 324 327 327 328 328 329 330 332 336 337 338
309 309 307 308 309 310 311 313 313 314 314 315 316 318 319 319 318 318 318 318 319 319 320 319 319 320 321 322 322 323 322 322 324 325 325 327 328 328 330 331 334 337 339 338
307 308 307 308 308 309 311 311 312 313 315 317 316 319 319 319 319 319 318 318 318 318 319 318 318 319 320 321 321 321 321 321 322 325 326 327 327 328 329 332 335 339 340 338
309 308 306 307 307 308 309 310 311 311 312 314 315 316 317 318 318 318 319 317 317 317 318 318 318 317 317 317 317 318 320 321 323 326 327 327 328 329 333 335 338 340 339 340
310 309 308 308 307 307 308 309 310 311 312 314 314 315 317 316 318 317 318 316 317 317 317 316 317 318 319 320 321 321 322 323 323 326 327 328 330 333 336 338 341 341 339 336
310 311 310 309 307 307 307 309 310 311 313 314 313 314 316 317 316 316 317 317 317 318 317 318 318 318 319 320 321 321 324 325 325 328 330 334 338 338 340 341 341 340 336 333
314 313 308 309 309 308 308 308 310 309 311 312 312 314 315 316 316 316 316 317 318 318 319 320 317 318 320 322 326 328 327 328 331 335 339 341 341 341 341 341 339 335 332 331
312 311 310 311 311 309 309 308 309 310 311 312 312 313 313 314 315 316 317 319 322 323 324 321 319 319 326 331 333 336 337 339 341 342 342 342 341 341 340 338 333 331 331 332
310 312 310 310 310 311 310 310 309 309 310 311 312 312 314 315 315 317 319 322 324 332 326 330 328 328 336 339 340 341 341 342 343 343 342 341 340 339 334 331 332 332 332 331
310 310 309 309 310 310 311 311 310 310 310 312 314 315 316 317 316 317 317 320 329 333 331 335 340 341 341 342 342 343 343 343 343 342 341 340 337 333 332 332 332 331 330 327
309 311 310 308 308 309 309 309 312 313 311 310 311 313 315 316 315 316 315 316 324 333 333 334 341 342 343 342 343 343 342 341 340 338 335 333 332 332 332 332 331 329 328 325
309 310 310 308 311 310 310 310 311 313 312 313 312 312 314 314 315 315 315 315 318 333 334 334 340 341 340 340 342 341 340 338 335 333 332 332 331 329 329 329 328 328 325 324
309 309 309 310 309 309 310 310 310 311 314 313 313 313 313 313 315 315 314 316 319 333 334 335 336 340 338 339 338 337 335 333 332 331 329 325 327 327 328 327 326 325 325 326
309 310 309 309 309 309 309 310 310 310 311 313 313 313 313 314 315 314 315 316 318 329 335 335 335 337 337 338 336 334 333 332 329 324 325 327 328 328 328 326 326 326 326 325
309 311 309 308 308 308 308 308 309 310 310 311 311 312 313 313 313 314 314 315 317 326 334 336 335 338 338 337 335 334 332 328 324 327 327 327 328 329 328 326 326 325 325 325
310 311 310 309 307 308 309 309 309 309 310 311 311 311 311 313 314 315 317 320 320 327 335 337 337 338 337 336 334 333 330 324 326 327 327 327 328 329 327 325 324 325 325 324
310 310 309 309 309 308 307 310 311 313 314 315 312 311 312 312 313 314 316 319 323 331 335 338 338 337 336 335 334 333 325 326 329 330 329 328 329 328 326 325 325 325 324 324
307 309 310 309 309 308 309 313 314 314 314 315 312 312 313 312 313 319 318 323 330 334 336 338 337 336 335 334 333 330 327 330 331 332 331 329 327 327 326 325 325 325 325 324
307 308 309 309 309 310 313 312 309 311 316 315 314 314 313 313 322 321 325 332 333 335 336 337 336 334 333 333 331 327 329 331 331 333 332 328 327 325 325 325 326 326 325 325
312 310 309 308 311 312 311 309 308 316 318 315 318 319 320 320 321 324 327 332 334 335 336 336 335 333 332 330 330 328 330 330 332 332 330 328 327 325 326 325 325 325 326 326
312 313 312 312 312 313 305 306 312 312 308 309 311 319 320 320 321 322 325 332 333 333 335 335 335 333 332 330 327 330 328 331 329 330 330 328 326 325 326 326 326 327 328 328
313 308 310 310 312 307 305 301 302 304 305 308 311 320 321 323 323 324 328 330 331 331 333 335 334 331 331 328 326 329 329 329 329 329 328 327 327 326 327 327 327 328 328 328
309 306 306 307 309 308 309 307 311 315 312 316 317 318 319 321 323 325 326 329 330 330 332 333 334 331 326 324 325 326 328 329 329 328 328 326 327 327 328 328 328 328 328 328
311 310 310 309 309 308 309 308 311 312 313 312 315 315 317 321 323 324 326 327 328 330 331 333 333 333 331 328 325 326 327 328 329 329 328 328 328 328 328 328 328 328 328 328
310 310 310 311 310 310 310 310 308 311 312 311 311 313 313 315 320 323 325 328 329 330 331 332 332 333 333 333 331 327 326 327 328 328 328 329 329 328 329 327 328 328 328 328

GFSCGP_850_thetae_036.txt.gz
Theta_e
311 311 311 311 311 311 313 316 317 318 318 319 321 322 322 323 323 324 325 325 326 326 325 325 325 325 325 326 321 319 320 322 323 322 323 329 334 336 336 339 338 338 336 335
311 312 311 310 310 311 312 314 317 318 317 319 320 321 322 322 323 323 323 324 324 324 324 324 324 324 325 325 322 320 320 321 322 322 323 332 335 340 341 341 337 336 336 336
310 310 311 310 310 310 311 312 314 316 317 319 320 321 322 322 322 321 322 322 322 322 322 323 323 324 324 325 325 321 322 321 322 321 324 325 330 333 337 333 335 336 337 338
310 309 309 310 310 310 310 311 312 313 316 318 319 321 321 322 322 322 322 321 321 321 322 322 322 323 323 325 326 326 320 321 321 320 323 327 335 338 339 338 334 336 338 339
311 310 311 310 310 310 310 311 311 313 315 316 317 319 320 321 322 322 323 321 321 321 321 321 321 322 322 323 325 325 319 318 319 319 322 328 337 343 342 339 335 338 340 338
311 311 312 312 311 310 310 310 310 313 315 318 318 319 320 320 321 321 322 320 320 320 319 320 320 321 321 323 324 322 318 318 319 321 324 328 342 344 344 343 338 340 340 338
311 312 313 312 311 310 310 309 310 311 315 316 316 317 318 320 320 320 320 319 320 320 321 322 323 322 323 325 327 335 328 323 323 324 326 333 340 338 345 342 344 344 341 341
313 311 313 311 311 311 310 310 309 311 313 313 314 316 317 318 319 318 318 319 320 321 322 324 326 324 323 326 335 338 335 340 336 340 341 344 342 346 346 346 345 344 342 341
312 311 310 312 313 311 311 312 311 311 311 315 314 316 317 318 318 319 320 322 325 327 330 330 330 326 332 338 338 341 343 343 344 345 344 344 347 347 345 342 341 340 339 338
310 313 310 311 310 311 312 311 314 311 313 313 314 315 317 318 317 318 320 323 323 332 334 333 333 334 340 340 345 345 345 345 345 345 345 345 345 343 341 339 338 337 337 336
309 310 311 310 310 310 311 313 314 314 311 311 314 315 317 318 319 320 320 320 320 330 335 337 338 341 343 345 345 346 346 345 345 345 344 344 343 341 338 338 338 336 335 335
309 311 311 310 310 310 310 313 313 319 314 313 315 318 320 320 319 320 320 319 320 331 336 336 338 340 344 344 344 345 344 344 344 343 343 342 339 338 338 338 337 335 335 333
310 311 311 310 312 312 311 311 311 312 315 319 314 317 319 318 318 318 318 317 318 325 336 337 337 342 343 344 343 343 343 342 341 340 339 338 338 338 337 336 335 334 332 331
309 312 311 312 311 310 310 311 311 312 314 314 315 316 317 318 317 318 318 316 317 319 336 337 338 341 342 342 342 341 340 338 337 336 336 337 336 336 335 334 333 332 331 330
310 313 311 311 310 310 310 310 310 311 312 312 313 315 315 316 317 317 316 315 316 318 329 337 338 340 340 340 340 338 337 336 335 333 332 332 333 333 333 332 331 331 330 330
310 314 311 312 310 310 310 310 309 309 311 312 312 312 313 313 313 313 314 315 316 319 323 337 337 339 339 338 337 336 335 333 330 330 331 332 333 333 332 332 331 330 330 330
311 310 312 313 311 311 311 310 310 310 310 311 312 312 313 313 313 314 313 314 317 318 323 337 337 339 340 338 336 335 333 329 330 330 331 332 332 332 332 330 329 329 330 330
310 311 312 313 311 311 310 310 311 312 312 313 312 313 314 314 312 312 312 314 316 318 325 338 339 340 339 336 336 334 330 329 330 330 331 332 332 332 330 330 329 330 330 327
307 309 312 312 312 310 309 312 314 315 315 315 316 316 316 314 313 313 313 315 319 322 333 339 340 339 337 336 335 331 328 330 330 331 331 332 331 330 329 328 329 330 329 325
309 309 312 311 313 313 314 313 311 312 316 317 316 316 316 314 315 316 319 331 333 336 337 339 339 338 337 335 334 329 330 330 331 332 332 331 330 329 329 329 330 330 329 328
313 312 312 312 313 312 311 310 308 316 318 315 315 315 319 318 315 316 321 323 331 337 339 339 338 337 336 334 332 328 330 331 331 332 332 331 329 328 328 329 330 330 330 330
314 315 316 314 315 315 308 306 311 313 310 311 312 312 316 320 320 320 321 326 330 337 339 338 337 336 335 334 330 328 331 331 332 332 331 330 329 328 329 330 330 330 330 331
315 311 313 311 314 309 308 306 304 303 304 307 311 312 315 321 322 323 327 329 334 336 338 337 336 335 333 331 328 330 332 332 333 332 330 330 329 330 331 330 331 331 330 331
313 306 308 308 312 310 310 309 308 311 313 311 313 315 321 322 324 326 329 331 334 336 337 336 334 331 330 328 328 331 332 332 333 332 331 330 330 330 331 331 332 331 333 332
313 311 310 311 312 311 309 310 308 311 312 313 315 315 318 321 326 328 329 332 333 334 337 335 331 329 328 328 329 331 332 331 332 332 331 330 330 331 331 332 331 332 331 331
312 312 312 315 312 311 310 310 307 309 311 311 311 313 314 318 323 327 330 332 332 333 335 336 333 329 327 327 330 331 331 332 333 331 331 328 328 330 330 330 328 328 328 326

GFSCGP_850_thetae_039.txt.gz
Theta_e
313 314 315 315 315 315 314 314 315 317 319 320 320 322 323 323 323 324 326 328 328 328 329 329 329 331 330 329 329 329 330 323 321 322 326 332 336 339 344 344 343 344 345 344
312 313 313 314 314 313 313 313 314 315 316 320 321 321 322 323 324 323 324 325 327 328 328 329 329 329 328 327 327 328 327 327 322 329 324 332 336 341 344 345 344 345 345 344
312 312 312 312 312 312 312 312 313 314 316 318 320 321 322 322 322 322 322 323 324 325 326 327 327 327 327 327 327 328 329 326 324 326 330 331 339 344 345 346 346 346 344 343
311 311 311 311 311 312 313 313 312 313 314 315 318 322 322 323 323 323 323 323 323 323 324 325 325 325 325 326 326 327 328 328 326 324 329 337 342 344 345 347 346 341 343 343
310 311 311 312 312 313 312 313 312 312 313 314 315 318 320 322 323 323 324 323 323 323 324 323 324 324 325 325 325 326 327 330 328 330 328 339 341 344 345 345 345 342 345 345
312 312 313 312 312 313 313 312 312 313 313 314 315 317 318 320 321 323 324 323 323 323 323 323 323 323 323 324 325 326 328 330 329 324 321 332 343 345 347 346 340 345 347 345
311 312 313 313 315 314 313 312 311 312 312 314 315 318 318 320 320 321 323 322 322 323 322 322 323 323 324 323 324 325 327 329 333 336 335 339 346 346 346 346 342 344 343 342
312 314 312 311 315 315 314 312 311 311 311 312 314 315 318 320 321 321 320 320 320 322 323 322 324 324 326 325 325 327 330 339 343 344 346 347 349 348 349 345 346 345 344 343
312 312 311 312 314 312 314 313 314 314 313 314 313 314 317 318 320 321 321 321 322 324 325 328 328 329 330 325 326 335 340 342 345 345 347 348 348 348 347 348 345 344 344 344
310 311 311 312 313 313 313 315 316 315 313 312 313 315 317 317 319 321 322 324 324 324 331 333 333 332 329 333 341 343 344 346 346 347 348 347 349 349 349 345 345 342 342 341
310 311 311 311 313 314 314 314 315 316 315 315 313 317 317 320 319 320 322 322 323 328 337 338 339 339 343 343 346 347 347 347 346 345 347 347 347 346 344 343 342 342 339 338
311 312 312 311 312 313 311 311 313 315 314 317 316 316 317 321 324 321 322 321 322 331 339 338 340 342 344 345 346 347 346 347 346 346 345 344 344 343 342 341 340 339 337 336
313 312 314 312 311 314 314 314 314 315 315 318 319 320 319 322 322 321 321 320 320 324 339 340 341 346 343 345 345 346 346 345 345 344 343 343 342 341 340 339 338 337 335 334
310 313 313 313 311 312 313 313 313 316 317 316 316 315 314 317 320 320 320 319 318 321 339 339 341 344 344 344 344 343 343 343 343 342 341 340 340 339 338 337 336 334 333 332
311 313 312 312 312 311 311 311 311 311 312 313 313 312 314 316 317 319 318 316 318 320 330 339 341 342 344 343 342 341 341 340 339 338 338 338 338 336 335 334 333 332 332 331
311 315 313 313 312 312 311 311 311 311 311 311 311 311 313 314 314 315 316 316 316 320 323 339 338 342 341 342 340 339 338 337 336 336 335 334 333 332 333 334 332 332 331 330
313 312 313 314 312 312 313 312 311 311 311 311 311 312 313 314 315 316 315 315 316 318 320 337 339 340 339 339 338 337 336 334 333 332 332 332 332 333 333 332 331 331 329 329
311 313 312 314 314 314 312 311 312 312 312 313 313 312 313 313 313 314 314 314 315 317 320 335 338 338 339 338 337 335 332 331 331 331 331 332 333 332 331 331 330 329 331 332
310 311 313 315 316 313 313 315 315 317 316 315 315 316 315 315 316 316 316 315 316 319 326 333 338 340 339 337 336 332 331 331 330 331 331 332 331 330 331 329 329 329 331 332
311 310 314 314 317 316 315 313 312 313 316 318 319 318 317 317 318 316 316 323 329 331 334 337 340 339 336 338 334 331 331 330 330 331 333 331 331 330 329 330 328 330 331 331
315 312 313 313 315 314 313 309 307 316 317 312 314 317 319 322 321 318 318 322 323 327 336 339 340 339 337 336 332 330 330 331 333 332 332 331 330 330 330 330 329 329 330 330
317 317 319 318 318 319 311 310 311 313 310 309 311 314 317 318 320 322 321 323 326 330 338 338 339 338 337 335 331 330 331 333 332 333 332 331 330 330 330 330 330 330 331 333
316 313 313 313 315 312 311 310 308 307 306 306 309 312 316 319 319 321 324 326 328 332 337 338 336 336 335 333 330 330 333 332 333 332 331 330 330 329 329 331 332 332 332 331
314 308 310 312 313 312 311 309 308 307 310 315 315 315 317 317 324 327 327 329 330 336 337 337 336 335 333 330 329 331 332 333 331 331 330 330 330 330 332 333 334 334 331 331
314 313 314 313 312 311 310 310 308 307 309 313 314 316 318 320 325 328 329 331 331 335 338 335 333 332 331 328 330 332 333 333 331 330 330 331 331 331 332 331 332 332 331 331
314 314 315 313 311 311 310 310 308 308 310 311 311 313 316 319 322 327 330 332 333 336 337 332 330 329 328 328 331 332 333 333 331 331 329 331 330 331 332 331 329 329 329 330

GFSCGP_850_thetae_042.txt.gz
Theta_e
313 314 315 316 317 316 316 315 315 316 316 316 317 321 322 323 323 324 325 326 326 326 328 331 329 332 332 332 332 331 331 332 330 335 335 332 327 327 328 328 332 342 343 344
313 313 314 314 314 315 315 315 315 315 315 316 317 318 320 323 323 324 325 325 325 327 329 329 330 332 331 331 331 331 330 329 328 327 323 329 334 332 333 337 340 343 344 344
312 312 313 313 313 313 314 314 314 314 314 314 315 317 320 320 323 322 322 324 325 325 325 327 330 330 332 331 330 328 328 328 327 326 324 328 329 332 341 342 344 345 344 344
312 312 311 312 312 312 312 313 313 314 314 313 314 316 319 320 322 324 323 323 324 325 324 324 326 328 329 329 330 330 330 329 328 327 326 335 334 328 335 345 346 345 344 345
310 311 312 312 312 313 313 314 314 313 314 314 313 314 315 317 320 322 325 323 324 324 324 323 323 324 326 326 326 325 325 327 327 327 331 334 337 339 340 345 347 347 346 345
311 312 312 313 314 314 315 314 314 314 315 314 313 314 315 316 318 320 323 324 323 324 323 324 325 323 323 323 324 327 327 327 326 328 329 335 338 338 344 346 348 346 345 344
311 312 313 313 314 313 316 315 316 314 315 314 313 314 316 317 317 318 321 322 322 322 325 325 325 325 324 324 324 324 327 328 328 330 328 329 340 341 347 346 346 346 343 343
311 311 312 313 312 313 314 315 318 314 312 312 313 313 314 316 317 318 318 320 321 322 323 324 324 325 325 324 324 323 325 329 333 333 331 330 327 347 349 348 346 343 340 340
311 311 311 311 312 314 314 313 315 316 316 317 313 312 313 315 316 317 320 320 322 321 322 323 324 323 324 325 327 324 325 326 327 329 336 340 340 346 351 348 345 341 341 342
311 312 311 310 311 313 315 313 315 317 319 314 313 312 313 315 318 317 320 323 322 324 325 326 328 329 330 331 330 326 327 334 341 344 345 346 348 349 349 344 346 343 344 343
312 311 312 313 312 312 314 315 315 316 316 315 315 314 316 320 319 317 320 321 324 324 324 328 334 334 333 333 335 337 340 343 346 346 346 348 347 349 349 349 345 345 343 341
313 313 314 312 312 312 312 313 315 312 314 315 315 316 318 317 314 314 314 322 323 325 336 336 338 345 343 342 345 346 347 346 345 346 347 348 349 348 348 345 343 342 341 338
313 313 314 311 311 313 314 314 313 315 317 317 317 316 315 314 312 313 315 320 320 320 339 338 338 341 343 344 344 347 345 344 345 346 346 347 345 344 342 342 341 339 336 336
311 313 313 314 312 313 313 313 313 314 317 316 316 316 316 314 313 314 315 317 319 320 338 339 341 344 346 344 345 346 345 345 346 344 343 343 342 341 341 339 337 337 336 334
311 314 313 312 312 311 313 314 313 314 313 314 311 311 313 315 314 313 313 316 318 319 334 339 342 344 344 344 344 344 344 343 342 342 342 341 340 339 339 337 337 334 333 331
313 317 313 314 312 311 312 311 312 311 311 311 311 311 312 313 314 314 315 316 317 318 323 338 338 342 342 342 342 342 343 343 341 341 340 339 338 338 336 335 332 332 331 331
312 314 314 315 311 314 314 312 314 313 312 311 310 313 314 312 313 316 315 316 316 317 318 334 337 339 341 341 340 340 339 339 338 338 337 335 334 333 332 332 331 331 330 329
313 313 314 316 314 314 313 314 315 315 315 315 315 315 315 316 315 313 314 315 316 316 318 330 335 339 341 340 339 338 337 335 334 333 333 333 333 332 332 331 332 331 329 330
312 312 315 314 314 315 314 316 314 314 314 313 317 318 316 315 316 318 318 317 317 317 331 331 337 338 340 338 337 335 333 333 332 332 333 332 331 332 331 330 331 329 330 331
314 312 314 314 316 317 316 312 310 313 315 314 315 316 318 319 317 319 321 322 323 326 328 335 334 338 339 337 334 332 332 332 331 332 333 332 330 330 330 331 328 328 330 329
318 313 314 314 316 315 312 311 309 315 315 312 311 311 313 318 318 320 321 322 323 327 328 334 335 337 339 335 332 332 331 331 333 333 332 332 332 330 328 330 328 329 330 331
316 315 315 316 316 318 312 310 311 312 309 308 308 309 311 313 316 319 320 322 325 327 332 336 336 338 338 335 332 332 333 333 333 332 331 332 331 328 331 328 328 328 331 329
317 315 316 314 315 312 311 311 309 309 307 307 308 314 313 314 316 319 321 326 328 327 329 336 337 338 338 332 332 335 334 334 333 331 332 331 331 330 331 328 329 329 329 331
315 311 312 314 313 313 311 310 310 308 307 309 312 316 317 319 319 321 322 327 330 330 332 336 338 338 334 331 334 334 333 333 332 332 330 329 329 329 329 330 331 330 329 330
316 314 315 314 313 312 310 310 309 308 308 309 311 314 316 317 318 320 323 329 331 331 333 336 337 336 332 331 334 333 332 332 333 330 330 331 330 330 331 332 331 331 331 330
315 315 316 315 312 310 308 310 310 308 308 310 310 312 313 315 317 321 324 329 332 332 335 336 336 333 330 330 334 333 333 332 330 331 330 331 331 332 331 329 330 330 330 331

GFSCGP_850_thetae_045.txt.gz
Theta_e
311 309 309 310 311 313 313 313 314 314 314 313 312 313 314 315 316 318 320 321 322 324 324 326 326 328 330 330 327 329 331 330 330 331 331 332 330 329 329 329 329 334 342 346
309 309 311 312 311 312 312 311 312 313 314 313 313 313 313 314 314 316 318 320 321 323 326 326 325 326 327 328 333 332 332 331 331 332 332 329 326 326 331 327 325 327 336 339
309 310 311 311 310 310 310 311 311 311 312 313 313 312 312 313 314 315 317 319 322 322 324 324 325 327 329 329 331 333 333 332 331 330 330 328 327 327 326 325 332 335 338 341
309 310 310 310 310 311 310 312 313 313 312 310 313 312 312 312 313 314 316 318 321 321 320 324 323 324 324 326 334 333 332 330 329 328 327 327 327 325 322 323 338 341 341 344
309 310 309 310 312 313 313 313 313 314 313 312 311 310 311 312 313 313 313 315 316 320 322 322 325 323 324 323 332 332 331 330 329 328 327 327 327 326 325 332 332 345 344 345
310 311 312 312 313 314 313 313 313 313 311 313 312 312 312 311 312 313 313 316 316 317 321 322 323 323 322 322 323 325 327 326 325 325 325 326 326 327 331 338 341 346 345 345
309 309 310 313 313 312 311 312 316 313 311 313 312 313 312 311 312 313 314 315 316 316 318 322 322 322 323 324 323 323 323 323 324 326 326 325 326 327 333 340 345 347 346 346
309 310 310 313 312 311 310 313 313 316 316 317 313 313 311 312 312 315 315 315 316 316 318 318 321 323 323 324 323 323 323 323 323 324 324 326 326 328 336 342 345 345 346 345
310 311 311 311 311 311 310 314 315 315 315 316 313 312 312 314 315 314 313 314 314 316 317 318 321 322 324 324 324 324 324 323 323 325 328 328 328 329 338 344 345 347 345 345
311 312 311 311 311 311 310 312 313 315 317 315 313 311 314 317 315 313 313 313 315 318 321 320 321 321 323 323 324 326 325 324 325 328 330 331 333 332 330 342 346 347 344 337
311 312 312 311 311 310 311 314 314 313 314 314 313 313 318 315 313 313 312 313 314 318 320 324 326 328 329 329 327 325 329 325 327 330 331 332 336 339 346 350 349 342 341 341
312 312 312 311 311 311 312 314 313 315 316 315 315 314 314 312 312 313 312 313 314 318 319 321 330 337 335 333 332 331 326 327 332 338 343 343 343 347 351 348 343 343 343 343
312 311 313 311 310 311 312 311 311 312 312 314 315 314 314 313 313 312 313 314 316 317 317 319 324 324 343 342 337 335 338 340 344 343 344 346 347 348 347 347 345 344 342 340
311 312 312 313 311 310 312 312 312 312 312 313 314 314 314 314 314 314 314 314 316 315 315 317 323 327 334 341 342 343 344 344 342 344 346 346 346 347 345 345 343 341 338 334
312 314 312 313 313 313 312 312 312 312 312 313 312 312 311 314 314 314 313 313 314 314 314 315 331 333 337 340 341 339 343 342 343 345 345 346 345 343 341 340 338 335 336 333
312 314 313 313 313 313 313 312 312 313 313 314 313 314 314 313 311 312 313 313 313 314 315 317 333 337 339 339 342 343 342 344 344 344 342 341 341 340 338 335 334 334 331 330
307 311 313 312 313 313 311 313 315 314 314 314 314 313 314 315 314 312 312 313 313 314 316 325 330 336 335 329 338 340 341 340 341 341 341 340 338 337 335 332 330 330 330 332
310 312 312 313 313 314 312 314 314 314 313 313 313 315 316 317 318 318 318 321 321 317 325 325 331 334 334 337 339 340 342 341 339 338 337 337 335 334 331 330 330 331 330 329
311 312 312 311 311 313 313 314 313 312 312 314 313 313 313 313 314 318 320 320 322 325 326 325 330 334 324 337 339 340 339 339 338 336 335 334 331 330 330 330 331 330 328 329
314 313 313 312 313 310 314 312 311 310 312 312 310 309 310 311 313 316 316 318 320 321 325 327 324 334 329 336 338 337 335 333 333 333 332 331 330 330 330 331 331 329 328 330
314 314 312 313 313 313 311 312 309 311 313 309 308 308 308 309 310 311 313 315 319 322 326 328 330 333 335 334 333 333 332 332 333 333 331 330 329 330 329 331 329 328 329 328
314 313 314 314 314 311 310 310 312 311 309 308 308 308 308 309 310 311 312 315 319 322 327 329 329 331 334 332 332 332 333 333 332 331 330 329 329 329 328 328 327 329 331 331
311 313 312 312 311 312 311 310 311 309 310 309 308 309 310 313 315 313 314 319 321 324 329 330 328 333 335 332 332 333 333 332 331 331 331 330 328 328 328 328 328 328 330 330
313 311 311 312 311 311 312 310 309 309 309 308 308 309 312 313 315 317 318 320 322 324 330 329 333 329 335 333 333 332 331 330 331 331 330 329 329 329 328 328 328 328 329 330
311 313 314 313 311 311 311 309 308 310 308 307 308 311 312 313 313 315 317 319 323 328 329 332 334 333 333 334 333 332 332 331 331 329 330 330 330 329 328 329 330 329 329 330
314 314 313 312 311 310 309 308 309 309 307 307 309 310 311 313 313 317 322 324 327 330 326 328 333 333 334 334 332 332 333 331 329 328 328 329 328 329 330 330 330 331 329 329

GFSCGP_850_thetae_048.txt.gz
Theta_e
309 306 307 308 309 311 311 311 310 311 311 312 311 311 312 312 313 312 313 314 315 317 319 321 322 322 324 325 326 334 333 333 333 334 332 334 335 335 335 332 330 329 328 328
306 307 309 310 309 309 308 308 308 309 311 311 310 311 312 311 311 312 313 314 314 315 317 320 320 321 323 324 325 326 332 333 332 333 331 331 331 333 332 331 332 331 332 331
307 308 309 310 309 309 309 308 311 312 313 312 310 310 310 311 312 313 313 313 314 315 316 318 321 321 324 325 325 325 327 329 334 333 331 332 333 333 333 329 327 326 326 328
308 308 309 309 309 312 312 313 313 312 312 312 311 312 311 310 311 311 312 312 313 314 315 315 317 319 321 324 324 327 327 331 334 332 331 332 332 331 329 328 327 325 323 329
308 309 308 309 312 312 311 313 312 313 312 311 312 309 311 310 310 311 311 312 312 313 314 314 315 317 321 323 324 324 325 331 334 333 332 332 331 328 327 326 326 325 324 326
308 310 311 311 312 312 313 311 311 311 311 312 311 311 311 311 310 311 312 313 313 313 314 315 316 316 319 324 324 324 324 327 335 334 331 329 328 328 327 326 326 326 328 327
308 308 310 312 311 311 310 308 309 311 309 311 311 311 311 310 312 313 314 313 314 315 316 316 316 316 317 319 322 323 323 326 330 330 329 328 327 325 325 327 327 329 332 342
307 309 309 312 311 309 308 308 308 313 313 314 313 312 311 314 314 313 313 312 312 313 315 318 318 318 317 318 319 321 322 323 325 326 325 324 323 326 326 328 327 330 335 342
310 311 311 310 310 310 310 311 310 309 315 317 313 311 310 314 313 312 312 312 312 312 312 316 320 319 320 319 320 321 323 323 323 323 323 323 324 326 328 330 328 328 340 346
310 311 311 311 310 310 309 309 309 309 314 316 313 311 310 315 313 312 311 311 311 312 313 314 319 320 327 327 321 324 323 323 323 323 323 323 323 325 331 330 326 335 346 347
310 310 311 310 310 309 308 310 313 312 314 316 315 310 314 314 312 311 310 311 312 313 314 316 319 318 320 329 333 321 324 324 324 324 323 324 325 332 332 329 329 343 345 346
311 310 311 311 311 310 310 311 312 312 316 316 316 313 310 311 311 310 310 312 313 314 316 317 319 316 318 322 333 332 323 325 324 324 324 327 332 333 332 331 331 341 347 342
311 308 313 309 309 309 311 311 312 311 311 312 314 311 312 312 312 311 311 313 314 313 315 319 318 316 318 322 330 337 332 325 326 327 330 334 333 334 337 340 349 346 341 341
311 311 310 312 312 312 311 311 312 310 310 311 311 311 311 311 312 311 312 313 312 314 314 317 315 315 318 325 326 339 333 329 327 329 335 339 342 343 343 350 344 341 342 341
311 314 312 312 312 312 313 313 313 313 310 312 311 311 311 311 312 311 311 312 312 313 314 316 314 314 321 322 326 337 334 329 335 342 339 342 344 346 347 344 342 340 340 336
311 313 314 314 312 312 313 313 312 312 312 313 313 312 311 311 314 312 312 311 312 313 315 314 314 325 327 331 330 333 338 338 343 339 341 343 343 343 344 344 341 338 335 335
309 311 312 313 311 313 313 314 314 314 313 313 313 311 310 313 313 313 312 314 318 319 322 324 327 327 325 333 335 327 337 338 340 341 342 342 344 342 342 338 336 335 333 333
310 308 313 312 309 314 313 312 312 312 312 311 312 312 310 309 309 309 310 316 314 314 318 323 328 329 325 331 329 325 334 338 342 341 342 340 340 338 336 335 333 329 328 329
307 310 312 313 310 311 314 313 313 314 311 311 311 309 309 308 308 310 313 311 310 312 316 320 328 329 324 327 328 328 338 338 341 341 340 339 337 334 331 329 329 328 331 331
311 311 312 312 312 308 312 313 311 310 313 311 309 309 309 308 308 310 309 310 313 313 317 321 328 328 323 325 327 330 337 338 339 339 337 335 333 331 329 328 329 330 329 328
313 314 314 313 312 311 312 312 310 309 311 310 308 309 309 309 309 309 310 313 314 318 319 322 328 326 324 326 328 333 337 336 336 335 334 333 331 329 328 329 330 329 328 328
307 311 311 313 313 310 310 309 310 310 309 309 308 309 308 309 310 311 314 316 316 318 318 323 329 326 326 329 332 334 336 335 333 331 331 330 329 329 329 329 329 328 329 329
308 310 312 312 310 311 311 309 311 309 309 308 309 309 308 309 310 313 314 315 316 317 320 325 329 325 326 330 332 333 332 332 332 331 330 330 329 329 329 328 328 327 328 329
308 309 310 311 312 310 311 311 309 308 308 309 308 308 309 310 312 313 313 314 316 318 322 327 329 324 325 331 332 332 332 333 331 329 328 329 329 328 327 327 327 328 329 330
307 310 310 309 311 310 310 309 307 308 308 308 307 308 310 311 311 312 314 316 321 324 326 328 328 326 332 332 332 333 332 330 330 330 328 327 327 327 327 327 328 327 328 329
311 313 313 313 312 310 309 306 307 308 308 307 307 308 309 310 312 315 317 321 323 327 329 328 327 330 332 332 332 331 331 331 330 329 328 329 328 328 327 328 329 329 329 329

GFSCGP_850_thetae_051.txt.gz
Theta_e
307 305 307 308 307 309 309 310 309 308 309 309 308 310 310 310 311 311 312 313 313 313 314 314 315 317 321 326 328 330 336 340 338 337 337 336 336 336 334 337 334 331 330 332
305 306 307 308 308 308 308 307 309 309 312 311 311 311 311 309 309 311 312 312 313 313 313 313 314 315 318 320 324 326 326 326 331 334 336 336 336 335 334 336 333 332 331 332
306 307 308 309 308 311 310 311 312 312 311 311 310 310 310 310 310 311 312 312 312 312 312 313 313 314 315 316 319 323 323 324 329 334 334 333 334 334 335 334 332 331 333 332
307 307 309 308 308 311 310 312 312 311 311 310 311 310 310 310 310 309 310 311 312 312 312 312 312 313 315 316 316 319 323 325 325 326 328 331 332 335 333 331 331 332 334 330
308 309 308 308 310 311 309 312 310 311 310 310 310 310 309 308 309 309 309 311 313 314 314 314 314 315 315 316 316 317 321 325 326 327 329 328 329 335 333 332 334 333 329 328
307 308 309 309 311 310 311 309 307 308 308 310 309 309 310 308 307 308 312 313 313 313 313 314 315 315 315 315 316 317 320 323 325 324 326 331 330 333 334 334 332 328 326 326
307 307 310 311 310 308 308 306 306 308 309 311 309 311 310 310 311 313 313 312 312 312 312 311 312 315 315 315 316 317 317 322 326 323 327 333 332 334 334 334 329 327 326 326
306 308 308 311 309 308 308 307 305 308 309 308 309 311 310 313 313 313 312 312 312 311 311 311 311 313 316 317 317 316 317 318 320 327 323 327 333 335 334 330 326 325 325 326
309 310 310 310 309 309 309 310 307 305 309 311 310 310 309 312 312 311 311 311 311 311 311 312 312 312 313 319 319 321 319 319 320 321 328 326 330 331 329 328 324 326 327 327
309 310 309 310 310 309 307 307 308 306 313 313 311 311 311 309 310 312 311 310 311 311 312 312 313 313 313 319 318 322 324 324 321 321 322 324 325 327 327 325 324 327 328 327
310 308 310 310 310 308 307 308 310 309 311 312 312 310 308 310 311 311 310 311 311 311 313 314 314 315 316 318 317 321 326 327 323 322 322 322 323 324 323 323 325 328 330 333
310 308 311 311 310 309 308 309 310 311 311 312 313 312 310 309 308 309 310 311 312 313 313 314 314 315 317 316 318 321 325 331 324 322 323 323 323 323 323 324 326 332 330 342
309 308 312 309 308 308 310 311 311 311 311 313 311 310 309 308 309 309 310 311 311 312 314 315 313 314 315 314 318 321 324 333 328 322 324 323 322 323 325 330 334 333 340 343
310 307 309 311 309 309 311 311 312 312 313 311 311 310 310 310 309 309 311 311 311 312 316 314 315 318 318 321 322 323 326 334 333 325 325 325 325 328 332 334 333 332 337 345
308 311 311 311 311 311 312 312 312 313 311 313 311 311 310 309 308 311 312 312 312 316 317 316 318 323 326 324 319 323 327 335 334 329 326 329 331 333 333 335 338 341 344 340
309 311 310 311 310 310 312 312 312 312 312 312 312 311 310 310 310 309 309 309 310 317 312 314 315 321 327 324 320 329 329 336 336 337 336 330 332 335 341 340 342 342 341 341
305 308 313 312 312 311 313 313 314 313 313 313 314 311 310 309 309 308 308 308 310 312 313 312 314 318 325 325 322 332 332 338 338 336 336 337 337 341 343 343 342 340 340 333
306 310 312 311 308 311 310 312 312 312 312 311 312 311 310 309 308 308 308 310 309 310 312 313 316 319 326 324 323 327 333 335 335 335 335 336 339 341 342 342 341 336 334 334
305 308 313 310 309 310 310 313 313 311 311 310 311 310 310 308 308 308 309 308 309 311 313 314 317 321 325 324 324 326 329 326 327 335 336 338 340 341 342 340 336 334 333 331
310 311 312 310 312 309 307 313 311 310 311 311 309 308 308 308 309 308 308 308 311 313 315 317 318 321 322 325 326 327 326 329 322 335 336 337 340 338 336 335 333 329 325 328
310 310 312 311 313 309 310 311 310 311 308 308 307 308 308 309 309 308 308 310 312 313 315 316 318 324 322 322 327 327 326 327 330 336 337 338 336 334 332 329 327 326 331 331
305 307 312 312 310 308 310 310 312 309 310 309 307 307 308 309 308 308 309 310 312 313 313 315 318 323 321 321 325 327 329 334 336 337 336 333 330 330 327 327 328 330 329 328
308 308 310 309 307 308 310 310 310 311 309 308 308 309 308 308 308 309 310 311 312 313 315 319 323 322 320 322 324 327 328 332 335 334 333 331 329 326 327 328 329 328 328 328
307 306 306 309 311 311 310 310 310 307 307 307 308 308 307 308 309 310 311 311 312 315 318 321 322 320 322 324 326 331 332 333 329 330 328 327 328 329 329 329 328 328 328 328
307 307 309 311 310 310 311 310 307 305 306 307 308 307 307 309 309 310 310 311 314 317 321 324 327 327 329 331 331 333 331 329 330 329 329 329 329 329 329 328 327 326 327 328
307 309 311 311 311 311 311 310 306 306 307 307 307 307 307 308 308 310 311 312 316 321 324 327 328 329 331 331 331 333 332 331 330 329 329 328 328 328 327 327 326 328 328 329

GFSCGP_850_thetae_054.txt.gz
Theta_e
306 304 306 307 306 308 309 309 308 307 309 309 309 309 309 310 310 310 310 311 312 312 312 313 313 314 316 319 324 333 336 331 335 342 341 335 331 335 335 334 334 336 333 332
304 305 306 307 307 307 307 307 310 309 309 310 308 309 309 309 309 310 311 311 312 312 312 312 313 313 314 315 319 322 329 337 337 335 342 342 339 336 337 335 335 334 335 334
305 307 307 308 308 309 309 310 311 311 310 309 308 306 308 309 310 310 311 311 311 311 312 312 312 312 313 314 315 317 320 326 334 339 339 340 338 336 336 337 336 336 335 335
306 307 308 307 308 309 309 310 311 309 308 308 309 308 307 307 307 308 310 310 311 311 312 312 312 312 312 313 314 315 316 319 324 331 337 331 332 333 332 332 335 334 335 335
307 308 308 308 308 309 307 310 310 309 308 309 309 308 307 307 307 306 306 310 310 312 313 313 313 314 314 314 314 315 315 316 319 322 323 325 325 330 334 333 332 332 334 336
306 308 307 307 310 309 308 308 305 305 306 308 307 308 307 308 308 308 309 311 312 312 312 311 311 312 312 314 314 315 315 316 317 321 323 324 327 325 328 327 328 330 331 335
306 306 310 310 309 307 305 304 305 306 305 308 308 307 307 308 308 308 310 312 312 312 312 311 311 311 311 312 313 314 315 315 317 319 323 325 325 326 325 329 329 329 333 333
307 309 309 310 309 308 307 305 303 306 309 306 307 308 307 308 310 312 312 312 312 312 312 311 311 312 312 312 312 314 316 316 316 317 321 324 324 326 328 330 331 330 337 333
310 311 309 309 308 308 308 307 305 303 306 309 307 307 308 308 308 311 311 311 311 312 312 312 312 314 315 314 312 312 318 317 317 317 318 321 325 326 328 333 334 334 336 329
308 310 309 309 309 308 307 306 306 304 310 312 309 308 309 309 309 309 308 309 311 311 311 311 312 313 314 313 314 313 318 318 318 319 318 320 322 324 326 331 333 333 333 330
309 308 309 310 309 307 307 307 308 305 307 313 311 309 307 307 306 308 308 310 309 310 311 311 312 314 315 314 315 315 316 318 318 319 319 321 321 321 322 326 330 332 331 328
309 306 310 310 308 308 306 307 307 307 307 311 304 311 310 307 307 308 307 308 312 312 311 310 315 316 318 319 315 315 314 317 320 320 320 321 322 322 321 322 326 330 328 326
308 307 309 307 307 307 310 310 310 311 312 313 313 310 307 307 308 309 308 310 311 311 311 313 314 316 318 319 323 319 320 321 322 323 325 323 322 322 322 322 323 327 325 328
310 305 308 307 307 306 308 309 309 311 313 312 312 310 309 309 309 308 309 310 309 309 309 315 314 313 316 316 320 324 320 321 323 326 330 325 322 322 323 323 323 325 326 332
307 310 309 309 310 310 310 310 311 311 312 314 311 310 310 309 309 309 309 309 308 308 309 315 314 312 314 314 319 324 323 325 325 329 331 325 323 323 323 323 323 330 335 335
307 307 309 308 309 309 310 310 310 311 311 312 312 313 311 310 309 309 309 308 308 308 309 312 311 312 311 312 317 322 322 329 328 333 333 325 325 324 324 328 335 336 333 334
307 306 308 310 310 309 310 310 311 312 313 313 313 311 309 310 310 309 308 308 308 308 310 309 311 312 312 313 318 322 323 328 336 335 333 326 327 330 333 335 335 335 339 343
305 307 310 311 307 311 309 312 312 312 312 312 310 309 310 309 308 308 307 307 307 308 308 309 311 312 314 317 321 323 324 328 339 335 339 331 335 334 335 338 338 341 340 340
304 308 311 313 311 308 309 312 312 311 311 310 310 310 307 307 307 308 308 308 308 308 308 308 311 313 315 316 321 321 326 328 338 337 337 336 335 337 340 339 342 339 340 335
306 307 312 311 311 311 307 311 310 310 313 310 308 309 309 308 306 307 308 308 308 308 309 310 312 313 314 320 322 321 325 327 332 337 337 336 336 338 339 339 339 338 333 332
311 310 312 309 310 309 308 310 309 314 311 308 310 309 308 308 308 308 308 308 308 309 310 311 312 313 315 321 322 322 326 326 329 335 334 334 337 337 338 338 336 334 332 330
303 305 303 307 307 306 310 309 311 310 309 309 309 307 307 307 309 308 307 308 309 310 310 311 312 315 319 321 321 322 326 327 327 332 335 335 336 337 337 334 333 331 328 328
303 305 308 308 304 305 309 310 310 310 310 308 306 306 306 309 307 308 308 309 310 310 311 312 314 317 320 321 322 324 327 328 327 329 334 335 336 335 330 329 326 327 330 329
306 304 304 307 307 308 309 310 310 310 309 305 306 306 308 307 307 308 309 309 310 311 313 316 318 320 322 323 322 326 327 330 329 330 332 335 332 329 328 325 329 331 329 327
305 305 305 306 308 309 310 310 310 306 305 306 306 306 306 307 307 307 308 308 310 311 314 317 321 324 325 327 325 326 326 328 326 331 332 329 327 325 327 329 329 327 326 326
305 306 310 310 308 310 310 310 306 305 305 305 305 305 306 306 306 306 307 309 310 313 319 324 323 326 329 324 326 327 327 329 329 329 328 326 326 328 329 328 328 327 327 327

GFSCGP_850_thetae_057.txt.gz
Theta_e
307 311 311 311 311 310 311 311 311 311 311 312 312 312 312 311 311 312 312 311 311 312 312 312 313 313 314 315 316 319 321 328 338 341 335 331 335 331 325 326 324 334 333 332
309 310 310 309 309 310 310 311 311 312 311 311 311 311 311 312 312 312 312 312 311 311 311 312 312 313 313 314 315 315 317 322 328 335 341 343 342 340 335 327 334 333 334 333
309 309 309 309 310 311 311 311 311 310 311 311 311 310 310 310 311 311 311 311 311 311 310 311 311 312 312 313 313 314 315 316 318 322 330 338 345 342 337 331 332 334 334 334
309 308 309 309 310 311 310 312 311 310 310 309 310 308 310 311 311 312 311 312 311 312 311 311 312 312 313 313 313 313 314 315 316 317 319 326 336 345 342 338 333 335 335 336
310 310 310 310 310 311 310 311 311 311 311 311 310 311 311 311 311 311 312 312 313 313 313 312 312 311 312 312 313 313 314 314 315 316 317 319 323 334 341 341 336 337 335 336
310 308 309 310 311 311 310 310 310 309 310 310 310 311 310 311 311 312 312 313 314 313 313 311 311 311 311 311 312 312 313 314 314 315 317 318 320 322 330 335 333 330 327 332
309 308 310 311 311 310 310 311 310 309 309 309 312 310 310 311 311 311 311 312 314 314 313 313 312 312 313 314 312 312 312 313 314 314 316 317 319 321 322 323 324 325 331 332
311 311 311 311 311 311 310 311 311 310 309 310 310 310 311 311 311 311 312 313 314 313 312 312 313 312 312 314 314 313 312 312 313 315 315 317 318 321 323 323 324 325 326 328
312 312 310 310 311 311 310 312 310 312 311 312 311 311 311 311 312 312 312 313 313 311 312 313 313 312 312 313 313 314 314 312 312 315 316 316 317 319 323 325 326 325 325 329
311 313 311 311 310 310 311 311 313 313 313 312 311 311 312 312 311 311 312 312 311 311 312 313 313 312 312 313 313 314 315 314 312 314 315 316 317 318 320 324 324 324 327 335
311 312 311 311 311 311 310 311 312 312 313 313 312 312 312 312 312 312 312 311 310 311 312 312 312 313 315 314 317 317 317 317 315 316 317 316 316 316 319 323 325 326 327 334
311 312 312 311 310 310 310 311 312 314 314 314 315 313 312 312 311 311 311 310 310 311 312 312 311 312 316 316 315 316 320 321 317 315 317 318 316 317 318 321 324 324 325 329
312 312 311 309 311 310 312 311 312 312 313 314 315 313 311 312 312 311 311 311 311 311 311 311 311 311 314 315 314 315 317 322 323 321 321 320 318 318 317 321 321 321 325 329
310 312 311 311 309 311 311 311 312 313 314 313 313 313 313 313 313 312 312 311 311 311 311 311 311 311 314 315 314 314 314 319 322 326 325 323 321 320 318 321 321 321 322 325
311 312 311 311 310 310 312 312 312 313 313 313 313 313 313 313 313 313 311 311 311 310 310 310 310 312 313 313 314 315 313 318 320 324 326 324 324 325 323 322 322 322 323 328
310 312 311 310 311 311 312 312 312 312 312 313 313 315 313 313 312 311 311 310 309 309 309 309 309 311 311 312 313 315 312 318 321 323 325 328 329 333 329 323 322 323 326 327
311 311 310 308 311 311 313 312 312 312 313 313 315 314 313 313 312 311 309 309 308 308 309 309 310 309 310 312 314 314 315 317 321 323 326 331 334 334 326 322 323 326 327 333
309 308 309 311 311 314 312 312 312 313 313 313 313 313 313 312 310 309 308 307 309 309 309 309 309 309 309 311 313 315 315 317 321 324 328 337 338 334 326 324 326 333 337 337
307 309 311 313 313 312 310 314 314 314 313 312 312 311 311 310 309 307 307 308 307 308 308 309 309 309 310 311 313 314 315 316 321 325 330 336 337 337 336 333 337 336 334 335
306 307 311 312 312 311 311 313 311 311 314 312 310 310 310 309 308 308 307 307 308 308 308 309 310 311 312 312 313 315 318 318 322 325 330 335 336 342 340 337 335 335 338 340
309 309 309 310 312 312 311 312 310 315 315 310 310 310 309 310 308 307 307 309 308 309 309 310 310 311 312 313 315 315 318 320 323 327 330 337 339 341 337 337 337 339 339 335
311 312 312 312 313 312 311 310 311 311 309 310 311 309 308 307 307 307 308 307 307 309 309 310 310 311 312 314 315 317 320 322 326 327 335 335 336 337 336 336 338 337 333 330
311 312 312 312 314 310 309 309 309 309 310 310 308 306 306 306 307 307 306 307 308 309 309 310 311 312 313 316 317 319 320 323 327 330 335 333 333 334 337 337 334 332 331 329
308 307 311 308 310 309 309 309 310 309 308 307 306 305 306 305 306 306 307 307 308 308 309 310 311 312 315 320 319 322 323 324 328 332 333 333 333 335 335 334 333 331 329 329
308 307 309 309 309 310 309 309 309 307 306 306 305 305 306 306 306 306 306 306 307 307 308 310 312 315 317 318 321 324 324 327 330 332 332 333 334 334 333 332 330 327 328 327
307 307 308 310 307 309 310 308 307 306 305 305 306 305 305 305 305 305 305 306 306 306 309 314 317 323 318 318 319 321 329 329 330 331 332 332 331 330 329 327 330 330 327 327

GFSCGP_850_thetae_060.txt.gz
Theta_e
312 313 314 314 314 314 313 314 314 314 314 314 315 315 316 315 314 315 314 314 314 314 315 315 316 317 318 315 314 315 317 322 333 337 337 335 336 334 332 328 323 328 323 321
312 312 313 313 312 313 313 314 314 314 314 314 314 314 314 315 314 314 314 315 314 314 314 314 315 316 318 317 314 313 314 315 320 341 337 337 335 336 334 330 327 328 325 322
313 313 312 312 312 312 313 313 314 313 313 313 313 314 314 314 313 313 314 314 314 313 313 313 314 315 315 313 312 313 313 314 315 318 328 337 340 343 343 337 336 333 333 324
313 312 312 312 312 313 314 313 312 312 313 314 313 313 314 314 314 314 313 313 314 314 315 315 316 314 312 312 312 312 313 313 314 315 316 327 343 345 345 344 344 341 334 329
313 312 312 312 313 312 312 312 312 312 313 313 314 314 315 313 314 314 314 313 314 315 316 316 315 315 315 315 312 312 312 313 313 314 315 318 325 335 341 345 347 345 340 330
312 312 312 313 313 312 312 312 313 314 313 313 314 313 314 315 314 314 314 313 314 315 316 316 315 314 315 315 316 312 312 312 312 313 314 315 317 320 331 338 345 347 348 347
314 313 313 312 313 313 313 314 315 314 315 313 314 313 314 315 314 314 314 313 314 316 315 315 314 315 315 315 317 318 317 312 312 312 313 315 316 317 317 319 335 341 343 345
315 315 312 313 313 313 314 314 315 314 313 314 314 314 316 314 313 313 313 313 314 315 315 314 315 315 315 315 316 318 318 318 312 312 312 313 315 317 325 321 322 330 332 330
314 315 312 312 312 313 313 314 314 314 314 314 314 314 314 315 314 314 313 313 314 315 314 314 314 315 315 315 316 318 319 320 319 313 312 312 313 315 317 319 319 322 326 328
314 315 314 313 312 312 313 314 315 314 314 313 314 314 315 315 315 314 314 314 314 314 313 314 314 314 314 316 317 318 319 320 322 323 316 313 314 315 315 317 319 321 324 324
313 314 314 313 313 313 314 314 313 314 315 316 316 315 316 315 315 314 314 313 313 313 313 313 314 314 314 314 316 317 317 317 319 323 323 321 315 314 315 317 319 321 326 326
313 313 314 312 312 312 312 313 313 316 316 317 317 317 315 315 314 314 314 314 313 313 313 313 313 313 313 313 314 316 317 317 318 321 324 323 321 318 315 317 320 321 332 337
313 314 314 311 313 312 313 312 313 314 315 318 320 317 315 315 315 314 314 314 313 313 313 313 314 314 314 313 314 315 316 316 316 318 323 326 325 325 317 314 317 323 333 340
311 314 314 314 312 313 313 312 313 314 318 317 316 316 316 315 316 315 314 314 313 313 313 313 312 312 313 314 314 316 315 316 316 317 321 325 328 330 324 317 318 333 335 338
312 314 313 312 312 312 312 312 312 313 315 316 315 316 315 316 316 315 314 314 313 313 312 311 311 311 311 312 314 314 315 316 317 317 320 324 327 330 331 330 327 335 336 337
313 313 312 313 312 312 313 313 314 314 315 315 315 316 315 315 314 314 313 313 313 311 311 310 310 310 311 312 313 313 313 315 317 318 321 323 326 328 331 333 335 337 337 338
312 312 312 312 310 313 315 315 315 315 315 315 316 315 315 315 315 313 313 312 312 311 309 310 310 311 311 311 312 313 313 315 316 318 320 324 326 328 331 333 336 337 338 340
311 311 310 312 312 315 314 313 313 314 314 314 314 314 314 314 313 312 312 311 310 308 309 310 309 310 310 311 312 312 313 315 316 318 321 323 326 328 331 335 337 339 340 342
309 310 312 315 316 314 313 316 315 315 315 313 314 315 313 312 312 311 310 310 309 308 308 309 309 310 309 310 311 313 314 315 317 318 321 323 328 330 335 336 338 338 340 343
309 310 314 313 315 313 312 314 313 313 315 314 314 313 313 311 313 314 310 309 308 308 308 309 309 310 310 311 311 313 314 316 316 318 320 325 328 330 336 337 336 340 343 345
310 310 312 311 314 313 314 313 311 315 315 312 311 311 312 313 312 309 307 308 308 308 308 309 308 310 311 312 314 315 315 316 316 318 321 326 328 334 336 335 335 340 346 344
313 313 313 313 314 314 312 312 313 312 311 311 310 309 309 308 307 307 308 307 307 307 307 308 310 310 310 312 313 315 316 312 313 319 322 327 329 335 335 336 338 341 340 338
313 314 314 313 315 312 310 311 310 310 310 309 308 307 307 307 307 307 307 307 307 307 308 309 310 310 310 312 314 315 316 318 319 323 325 328 333 335 337 339 340 338 337 339
311 310 312 311 312 311 310 310 309 309 308 307 306 306 307 307 307 306 306 306 306 307 307 308 308 309 309 311 314 317 319 322 323 324 328 332 335 337 336 338 337 335 334 330
310 309 310 312 311 309 310 309 309 307 306 306 307 307 305 306 306 306 306 306 305 306 306 307 307 308 309 311 315 318 321 323 323 325 332 334 333 334 334 334 333 331 330 329
306 308 307 308 304 306 308 308 305 306 306 306 305 305 304 305 305 305 304 304 304 305 306 309 308 312 317 315 317 320 319 323 326 331 332 333 333 333 332 332 330 330 329 330

GFSCGP_850_thetae_063.txt.gz
Theta_e
315 316 316 316 318 317 317 318 318 318 318 317 318 318 318 318 318 317 317 317 317 317 317 317 318 318 320 323 324 314 314 331 337 334 336 337 340 336 338 328 325 324 323 322
316 315 315 316 316 316 316 316 316 317 317 317 317 318 318 318 318 317 317 317 317 317 317 316 316 317 321 318 316 314 313 315 330 343 336 334 338 333 337 338 334 331 327 324
315 316 315 314 314 314 315 315 316 316 317 317 316 317 317 318 317 316 316 316 316 317 317 316 316 318 319 320 319 314 313 313 315 327 340 341 336 332 333 335 337 335 334 327
316 315 313 314 314 315 316 316 316 315 315 316 317 317 319 318 317 317 316 316 316 316 316 316 316 317 318 318 319 321 317 313 316 315 320 334 346 337 335 338 340 334 335 333
315 315 314 314 315 315 315 315 315 315 315 316 316 317 317 318 317 317 317 316 316 317 317 317 317 317 317 317 318 320 322 322 315 313 314 322 326 339 346 348 349 348 346 340
316 315 315 315 314 315 314 315 315 315 316 317 317 317 317 318 317 317 316 315 315 317 317 317 317 317 317 317 317 319 321 322 317 314 317 323 322 325 331 335 340 347 346 336
317 316 316 315 314 314 315 315 316 317 318 318 317 316 317 318 317 317 316 315 315 316 317 317 317 316 317 317 317 318 319 320 322 322 315 314 323 317 323 321 326 341 346 347
317 317 318 317 315 315 316 317 319 321 319 317 317 317 317 317 316 315 315 315 315 316 317 317 317 316 317 317 317 317 319 320 321 323 323 320 318 321 325 326 331 332 333 343
318 318 316 316 316 315 315 316 316 317 317 318 318 317 318 317 316 316 316 315 315 315 317 317 316 316 316 317 317 317 318 320 321 322 324 325 325 321 315 318 323 334 333 330
315 317 317 316 315 315 315 316 319 318 317 317 316 317 317 318 317 317 317 316 316 316 316 316 315 315 315 316 317 317 319 320 320 321 321 322 324 324 324 321 315 315 320 330
314 315 316 316 317 316 315 316 316 317 317 320 319 318 318 318 318 317 317 316 315 316 316 315 314 314 315 316 316 316 316 318 319 319 320 321 325 326 324 323 324 318 315 317
314 316 316 314 315 316 316 317 318 321 319 316 316 316 317 317 317 316 316 316 316 316 315 315 315 315 315 315 315 315 315 315 317 318 318 319 322 326 326 323 322 318 322 327
315 317 319 316 316 314 313 313 314 316 319 318 319 320 318 317 317 316 317 316 316 316 316 315 315 315 315 314 314 315 315 315 316 317 318 318 319 324 327 327 326 322 323 332
312 313 314 315 315 315 316 314 315 315 318 315 316 316 317 318 317 317 316 316 316 315 316 315 315 315 314 314 313 314 314 315 316 317 317 318 319 322 326 328 329 327 328 332
312 314 314 314 314 314 314 314 314 314 314 315 316 316 316 316 317 317 316 316 316 316 315 315 315 314 313 313 313 312 312 314 316 316 317 318 319 321 325 328 329 329 328 331
312 316 314 315 313 312 312 312 312 313 315 315 316 317 317 317 316 317 316 316 316 315 315 314 313 313 312 312 312 313 313 313 315 316 316 318 319 321 324 327 328 331 330 332
314 315 314 315 312 313 313 314 315 317 315 315 318 317 316 316 316 316 315 314 314 314 313 313 313 311 310 310 312 311 312 313 315 315 316 318 318 320 323 326 328 329 332 333
312 312 314 314 313 314 314 316 316 315 314 315 315 315 315 316 315 314 313 313 313 313 313 312 312 311 310 311 312 311 312 312 314 315 315 317 318 319 323 325 327 328 332 335
311 311 314 315 316 316 314 316 317 317 316 314 315 317 316 314 313 314 312 313 313 312 311 310 310 310 310 310 309 310 312 310 310 314 315 317 318 320 323 324 328 329 333 335
313 311 314 316 318 315 313 316 314 314 316 317 315 315 313 312 314 315 312 311 310 310 310 310 309 309 310 310 311 310 311 313 313 313 316 317 318 320 323 324 329 329 334 337
314 313 315 314 315 314 315 314 313 316 317 313 313 312 312 314 313 310 309 309 309 309 310 309 309 309 309 310 309 310 313 313 314 315 316 318 318 319 323 326 329 333 336 339
314 316 316 316 318 317 314 314 316 315 313 312 311 311 310 309 309 309 308 309 309 309 309 308 308 309 309 309 311 311 311 313 314 316 317 316 318 320 323 328 331 337 335 335
316 316 317 316 317 314 313 313 312 312 311 311 309 308 308 309 309 309 309 308 307 307 307 307 307 308 309 310 311 312 312 314 316 316 316 317 317 319 327 330 335 335 335 339
313 313 315 314 314 312 311 311 311 310 309 307 307 308 307 307 307 306 306 306 306 306 307 307 307 307 308 309 310 310 311 314 316 317 316 314 317 324 329 334 335 336 338 339
310 311 311 311 311 308 309 309 310 308 308 307 306 305 305 305 305 304 304 304 304 305 305 305 306 306 307 308 310 312 313 315 316 318 318 321 324 328 331 335 336 338 338 338
307 308 308 308 305 306 306 308 309 308 307 307 304 305 305 305 304 303 303 303 304 304 304 305 305 306 306 308 310 313 317 318 319 321 324 325 330 334 334 334 336 336 336 334

GFSCGP_850_thetae_066.txt.gz
Theta_e
315 316 316 317 317 317 317 317 318 319 320 319 319 319 319 319 319 319 319 319 319 319 319 320 320 321 322 322 322 315 317 335 334 330 336 333 335 334 335 329 330 338 339 341
316 317 318 317 316 317 317 318 318 318 319 319 318 318 319 319 320 319 320 319 319 318 318 318 319 319 320 324 322 318 316 316 322 334 331 335 333 339 339 335 333 336 328 337
316 317 317 317 316 316 316 316 316 316 317 318 318 318 318 318 319 319 319 318 318 319 318 318 318 318 318 321 323 321 318 315 315 328 336 332 330 331 333 335 336 334 336 335
316 317 317 316 315 315 315 316 316 317 317 317 318 318 319 320 320 320 319 318 317 318 318 319 318 317 319 319 321 322 320 318 314 314 328 335 343 336 330 331 333 335 334 335
316 316 316 316 315 315 315 316 316 316 316 316 316 317 317 318 318 318 318 317 317 318 318 317 318 318 318 318 319 321 323 319 316 325 317 317 338 343 340 344 343 341 339 335
316 316 317 316 316 316 316 315 316 316 315 316 316 317 318 318 320 319 318 317 317 318 318 318 318 318 317 318 318 320 321 322 321 314 313 314 319 326 331 337 341 339 341 337
319 317 318 317 316 316 315 315 316 317 319 318 318 320 320 319 319 319 318 316 316 316 319 318 318 317 318 318 318 318 319 321 321 322 320 315 314 315 319 328 333 340 341 340
319 320 319 319 319 319 317 316 317 320 321 321 320 320 319 319 318 317 317 316 316 316 318 318 318 318 318 318 318 318 318 319 321 322 322 322 321 316 314 314 317 321 325 329
319 319 317 317 318 318 319 317 317 320 320 321 318 320 320 318 318 317 316 316 316 316 317 317 318 317 317 317 317 318 318 318 320 321 322 323 324 323 317 316 324 326 327 332
316 317 315 317 318 317 317 317 319 320 320 318 315 317 320 320 318 317 317 316 316 317 317 317 317 317 316 316 316 317 317 317 318 319 321 320 321 324 325 324 315 314 316 322
316 318 315 317 319 318 319 316 316 317 321 321 319 319 319 319 319 319 318 317 317 316 317 316 316 316 316 316 316 317 317 317 317 318 319 320 320 320 323 326 325 323 316 312
315 317 317 316 316 317 316 318 318 322 322 320 321 319 318 318 317 318 318 316 316 316 317 316 316 316 316 316 316 316 316 316 317 316 316 317 318 319 320 323 327 325 319 314
315 316 318 314 316 317 317 316 317 317 320 320 321 320 318 318 318 317 317 317 317 317 317 317 316 316 316 315 316 316 315 315 315 316 316 317 318 318 318 319 322 328 326 322
312 313 314 314 313 316 315 315 315 315 320 317 317 316 318 317 316 318 316 317 318 317 317 317 317 317 316 316 316 315 315 314 314 314 314 316 318 318 319 319 323 325 331 330
313 313 313 312 313 314 315 316 316 316 315 317 316 315 315 317 317 318 315 316 318 318 318 317 316 316 316 316 315 314 314 314 314 314 315 314 317 317 318 319 318 322 327 330
313 316 315 315 315 314 315 314 315 314 314 314 314 314 315 317 316 317 316 316 316 316 316 316 315 315 314 314 315 313 312 312 313 312 312 316 316 318 318 319 320 323 326 329
312 315 315 316 314 314 313 315 317 317 316 316 317 316 316 316 317 317 316 316 316 315 314 314 313 314 314 314 314 313 312 312 312 312 313 315 317 317 317 319 320 321 325 327
312 313 314 315 314 314 313 314 316 316 317 315 316 316 317 316 315 314 314 313 313 314 314 314 314 314 314 313 313 312 312 312 312 313 313 313 315 316 316 318 319 320 324 328
313 313 314 314 316 315 314 317 316 316 315 317 316 315 314 314 313 313 312 313 313 312 312 312 312 311 311 312 311 311 311 311 311 311 311 313 314 314 317 318 319 320 327 325
314 314 315 315 316 315 314 316 314 315 315 316 314 314 314 313 315 316 312 311 310 311 311 311 311 311 311 311 311 310 311 312 312 312 312 313 312 312 315 318 319 320 324 326
315 315 315 315 316 314 316 315 314 315 318 314 313 312 312 313 311 311 311 311 310 311 311 310 310 311 310 310 310 310 311 311 311 311 312 313 313 311 313 319 318 318 324 325
317 316 317 316 318 318 314 313 316 315 313 313 311 310 310 310 309 308 308 308 308 308 308 309 309 309 309 309 309 310 310 310 311 311 312 313 314 315 316 319 319 319 322 322
318 317 317 316 318 316 312 312 311 311 311 311 311 309 309 309 307 306 306 306 306 306 306 306 307 307 307 307 308 308 309 311 311 312 312 313 314 315 317 317 318 319 322 325
314 313 315 315 314 312 310 311 310 310 310 310 309 309 308 307 305 305 305 305 305 305 304 304 305 305 306 307 307 307 308 309 312 313 312 314 315 315 316 317 318 319 326 330
313 312 310 311 311 308 309 308 308 309 309 309 309 307 306 305 305 304 303 303 303 303 303 303 304 304 305 305 306 307 308 309 310 311 312 315 315 314 314 314 315 323 328 333
310 309 308 309 306 306 307 307 308 310 309 308 307 306 305 304 303 302 302 302 301 301 301 300 301 301 303 304 306 307 308 310 312 313 314 315 316 316 316 320 324 327 332 332

GFSCGP_850_thetae_072.txt.gz
Theta_e
313 309 309 309 310 311 311 311 311 313 313 314 313 313 313 315 314 314 315 318 319 319 319 319 320 321 323 323 324 327 328 335 345 346 345 344 346 347 345 342 343 341 339 341
310 310 311 312 312 313 313 313 312 312 314 314 312 313 312 314 314 315 317 317 317 318 318 319 319 320 323 322 321 321 320 319 337 346 347 344 341 339 346 345 342 344 346 336
311 312 314 314 313 314 314 314 312 313 314 313 312 312 312 314 315 316 316 317 317 318 318 318 319 321 321 321 320 320 320 318 321 337 342 343 341 338 339 344 343 342 340 343
311 312 313 314 313 313 312 312 314 315 313 312 314 313 312 314 313 313 315 316 316 317 317 318 318 321 321 320 320 319 319 318 315 318 329 338 338 338 337 337 338 337 340 339
313 313 313 313 314 317 315 314 314 314 312 311 313 311 312 312 313 312 312 314 316 316 316 317 319 320 320 319 319 318 318 318 317 318 317 317 335 331 332 338 339 337 335 337
312 314 314 315 317 317 317 315 311 310 309 311 312 311 313 312 312 312 313 316 315 315 316 318 319 322 321 320 318 318 317 317 317 317 317 315 318 333 334 334 333 336 337 335
316 316 316 317 318 317 318 317 316 312 310 313 312 315 313 315 316 316 316 314 316 316 318 318 320 319 318 318 318 318 317 317 317 317 316 315 316 317 319 327 333 334 334 337
319 317 318 318 319 319 318 316 315 319 314 314 316 317 315 316 317 317 317 314 316 318 318 317 317 318 318 317 317 317 318 318 318 319 319 320 319 319 318 318 317 317 320 324
319 319 316 317 317 318 318 317 316 318 318 320 316 315 315 316 317 317 317 315 315 317 318 318 318 318 317 317 317 317 317 317 317 318 320 320 319 318 320 319 319 322 318 316
316 316 316 316 316 316 318 317 315 319 322 322 317 316 315 318 318 317 317 315 315 314 315 317 317 317 317 317 317 317 317 317 317 317 316 316 317 317 317 317 317 319 319 318
314 314 314 313 316 316 316 317 316 316 319 321 318 313 315 317 316 318 317 317 316 316 316 316 315 317 317 317 317 317 317 317 316 316 316 315 315 317 318 318 317 316 316 316
313 311 312 312 310 314 315 316 315 316 318 318 317 314 314 314 314 315 316 317 317 316 316 315 316 316 316 316 316 317 317 317 316 316 316 316 317 318 319 319 320 320 317 317
312 309 309 309 311 312 313 314 314 313 314 316 318 314 314 315 315 315 315 317 316 316 316 316 317 317 317 316 315 316 316 317 317 318 318 318 317 316 316 317 317 318 319 318
311 307 308 310 310 309 313 314 314 314 314 317 317 315 315 314 314 314 315 316 316 315 316 316 316 317 317 316 315 315 315 316 316 316 315 315 315 315 315 316 316 316 317 319
309 310 311 312 313 313 313 313 314 315 314 314 314 315 314 314 313 313 315 315 316 316 316 316 316 316 316 316 316 315 315 314 315 315 315 315 314 314 314 314 313 313 313 314
307 309 312 312 311 312 312 313 314 316 316 316 315 313 313 313 314 314 313 315 315 314 314 315 315 314 315 315 316 316 314 313 313 313 313 313 313 313 313 313 313 313 313 313
307 307 308 310 312 312 312 315 315 315 315 315 314 315 313 312 311 311 312 312 311 312 313 313 313 311 311 311 311 311 311 312 313 314 313 313 312 312 312 311 311 311 310 310
307 308 307 308 308 313 315 313 313 316 315 313 312 312 312 311 311 310 310 310 310 310 309 309 309 309 308 308 309 310 311 312 313 314 314 313 313 312 312 311 310 310 310 309
306 307 307 306 307 311 315 315 314 314 314 311 311 310 310 310 309 309 309 309 310 309 309 309 308 308 307 306 306 307 309 311 311 311 311 311 311 311 310 310 309 309 310 310
311 310 311 310 312 305 314 312 311 311 312 310 309 308 308 308 309 309 309 309 308 309 308 306 306 306 306 306 306 306 306 307 309 311 311 311 311 310 310 309 309 310 310 310
311 309 307 311 307 309 312 312 309 308 307 308 308 308 309 310 309 308 308 309 308 307 306 305 305 305 305 305 305 306 307 308 309 309 309 310 310 310 310 309 309 310 311 312
314 311 307 313 314 310 310 308 309 308 307 307 308 308 309 308 308 309 307 306 305 305 305 304 303 304 304 305 305 305 306 306 307 308 310 310 311 310 309 310 311 312 311 311
310 311 308 310 307 308 308 307 308 306 306 307 307 308 308 308 308 307 305 304 303 303 303 302 301 301 302 304 305 305 305 306 306 308 309 309 309 309 310 311 311 311 310 312
311 310 305 307 308 306 306 306 306 306 305 306 308 308 308 309 306 304 303 302 302 301 301 300 299 299 300 301 302 303 304 305 306 307 308 308 309 310 310 311 311 313 313 313
308 307 306 304 306 305 306 305 305 305 306 307 307 308 308 305 304 302 302 300 299 299 298 298 297 298 298 298 300 301 303 303 305 307 307 307 308 309 310 310 311 312 312 312
307 304 299 301 304 304 304 305 306 305 306 307 308 308 305 303 302 300 299 299 298 297 298 298 298 298 298 298 298 299 301 303 304 305 307 309 308 308 309 310 312 313 313 313

GFSCGP_850_thetae_075.txt.gz
Theta_e
311 309 308 308 308 309 309 309 310 311 312 311 311 312 311 312 313 313 314 313 316 317 318 318 320 322 323 325 325 329 328 325 334 343 343 336 338 338 336 332 338 340 334 329
309 309 309 310 310 310 310 310 311 311 312 310 311 311 311 311 312 314 314 313 315 318 318 318 319 322 323 323 325 330 332 335 333 336 344 341 345 343 341 340 333 331 340 339
309 311 312 312 311 312 311 311 311 312 313 312 312 311 311 312 313 315 315 315 315 317 318 318 319 320 321 322 323 325 327 332 334 338 342 344 343 342 343 342 342 341 342 342
310 311 312 311 312 313 314 313 313 312 313 311 312 312 311 311 311 311 312 314 315 315 316 317 318 320 321 321 322 323 321 319 323 333 338 340 339 341 341 340 339 340 341 340
312 312 312 312 312 316 316 315 312 312 311 310 311 310 310 311 311 311 310 313 316 316 316 315 316 318 318 321 322 320 320 320 319 319 317 320 331 341 341 340 339 338 339 339
312 314 314 313 316 316 316 315 313 309 308 310 311 310 311 312 310 311 313 316 317 317 317 317 317 315 320 321 320 320 319 319 318 318 317 317 317 317 318 332 336 335 335 335
314 316 315 316 317 316 315 316 315 314 312 315 311 311 312 311 312 314 315 315 316 316 317 317 316 315 321 321 320 319 318 318 317 317 317 316 316 316 316 320 325 327 332 334
316 316 316 317 318 317 317 316 316 322 319 314 314 315 313 313 315 316 315 314 314 315 315 316 316 316 321 321 319 318 317 317 317 316 316 316 316 316 316 316 316 317 318 320
317 318 316 316 317 315 317 317 317 317 316 317 314 314 314 314 315 315 315 315 314 315 315 316 318 320 321 319 317 317 317 317 316 315 315 316 316 317 317 317 317 316 316 316
314 315 314 315 315 315 315 316 318 317 320 320 316 315 315 315 316 315 315 313 315 315 316 316 315 317 318 318 317 317 316 316 315 315 316 317 317 318 316 316 316 316 317 318
313 312 312 311 313 314 312 316 318 317 318 315 315 315 314 317 315 315 314 315 315 315 316 315 316 316 315 315 317 317 317 316 316 316 316 316 314 315 316 317 317 317 317 317
312 310 312 310 309 311 313 314 316 316 317 318 316 313 314 314 313 312 313 316 316 316 315 316 316 316 316 316 316 317 317 317 317 317 317 316 315 315 316 316 317 317 317 318
311 308 308 308 306 308 313 314 313 312 312 314 314 313 314 314 314 313 313 315 316 316 316 316 316 316 316 316 316 316 316 317 317 317 317 316 316 315 316 316 315 315 316 316
310 305 307 308 309 307 311 312 312 313 314 313 316 315 314 313 313 313 313 313 315 315 315 315 316 316 315 316 316 316 315 315 317 317 317 317 316 316 316 317 316 315 316 315
306 309 307 308 310 311 311 312 312 312 313 314 314 314 314 313 312 312 312 311 312 312 312 314 315 316 315 315 316 316 316 315 315 316 317 317 317 317 317 316 315 314 314 314
305 309 311 311 311 310 311 313 314 315 315 315 314 314 312 312 312 311 311 310 311 310 309 310 311 314 315 314 314 314 314 314 314 314 313 314 314 314 314 314 314 314 313 313
306 306 306 309 310 310 312 314 314 314 314 314 313 313 310 310 310 310 310 309 309 309 309 310 310 310 310 310 311 311 310 310 311 311 312 313 313 313 313 313 312 313 312 311
305 306 306 308 307 311 313 314 313 314 314 312 311 311 310 309 309 309 308 308 309 309 309 310 310 309 308 308 308 308 308 308 308 308 309 311 312 313 313 313 312 312 312 311
304 306 310 307 306 309 313 315 314 313 312 310 310 309 308 308 307 307 308 308 309 308 308 308 308 307 306 307 307 306 306 306 306 307 307 309 312 313 313 313 313 312 311 310
308 309 310 309 312 306 310 312 310 310 312 309 307 307 307 307 308 307 308 307 307 307 308 308 308 307 306 306 306 305 305 305 305 306 306 306 308 310 311 312 311 310 310 310
310 306 306 311 312 308 310 309 309 308 307 306 306 306 306 307 307 307 308 308 308 307 307 306 305 303 304 304 304 305 304 304 305 305 305 306 307 308 308 310 311 311 310 310
310 311 311 311 310 309 308 307 308 306 306 306 305 306 306 307 307 307 308 307 305 304 304 303 302 302 303 303 304 304 304 303 304 305 305 307 308 308 309 310 311 310 310 309
310 311 306 307 305 306 307 306 306 306 305 305 305 306 306 307 307 308 305 304 303 302 302 301 300 300 300 300 302 303 302 303 304 304 305 305 307 308 309 310 310 310 310 309
311 308 303 307 307 306 306 305 305 305 305 305 305 306 307 307 307 304 303 302 301 300 299 299 299 299 299 299 299 300 300 301 305 304 305 306 307 307 309 310 310 310 309 310
307 306 305 304 303 305 305 305 304 304 305 305 305 306 307 305 305 302 300 300 299 298 298 298 298 298 299 300 298 298 298 301 303 304 306 306 307 307 307 307 308 309 310 310
306 304 299 301 302 303 303 304 305 304 305 305 305 306 305 305 302 300 299 299 298 297 299 299 300 301 303 305 301 298 299 300 301 304 305 306 307 307 307 308 309 310 310 311

GFSCGP_850_thetae_078.txt.gz
Theta_e
310 309 308 308 307 308 309 309 308 309 310 310 309 310 309 311 311 311 313 314 314 316 316 316 317 318 324 324 324 325 325 325 326 330 339 342 339 337 330 329 324 325 329 333
308 309 308 308 309 309 309 309 309 309 310 309 309 310 309 309 310 313 313 314 315 316 315 315 317 317 323 325 324 324 324 325 326 329 336 341 341 339 333 331 332 335 329 331
309 310 310 310 310 311 310 310 310 310 311 311 310 311 310 310 311 314 314 315 314 314 315 315 316 317 318 323 323 323 323 324 326 330 336 341 341 340 335 338 336 332 331 330
309 310 311 311 310 310 311 311 312 313 312 311 310 312 311 309 309 310 312 313 314 314 315 315 316 319 320 321 324 327 327 329 330 333 337 342 341 336 340 337 337 338 338 333
311 311 311 311 311 313 314 315 314 312 310 309 310 309 311 309 309 309 310 314 314 314 316 316 316 316 318 323 325 326 328 331 333 335 332 334 332 333 333 337 336 336 337 333
310 313 311 310 314 315 315 315 314 308 307 311 312 310 313 313 309 309 310 312 315 316 316 316 316 316 316 317 322 324 323 323 323 322 324 325 326 328 330 335 337 337 335 335
312 312 315 315 316 315 315 314 315 315 313 316 311 309 312 311 310 309 310 314 314 315 316 316 316 316 315 316 316 323 321 320 319 318 318 317 317 317 317 317 317 320 328 335
313 313 315 316 316 315 316 314 314 316 316 314 313 316 313 312 313 314 314 314 315 315 315 316 316 315 315 315 316 322 320 318 318 318 317 317 316 316 316 316 317 319 324 328
315 316 315 315 316 315 316 315 313 311 314 318 313 312 312 312 314 314 314 314 315 315 315 315 316 317 315 315 316 322 320 319 317 317 316 315 315 315 316 316 316 317 318 318
312 313 313 314 315 314 315 313 312 315 318 320 315 314 314 314 315 313 313 313 314 315 315 316 316 316 318 320 322 321 318 317 317 316 315 314 314 315 317 317 317 319 319 322
311 310 311 310 312 311 310 313 315 316 316 319 319 314 314 315 314 314 312 312 313 314 315 315 316 316 316 317 318 319 318 317 316 315 314 315 315 314 314 316 317 318 318 317
311 309 312 310 308 308 308 309 311 310 311 314 316 315 313 312 311 312 312 312 313 314 314 315 315 315 316 316 316 316 318 317 316 316 316 316 316 315 313 314 317 317 317 317
311 308 310 309 306 307 311 312 312 310 311 313 314 311 311 311 312 312 312 311 310 311 312 313 314 315 315 315 316 316 316 316 316 317 317 317 317 315 314 314 315 316 316 316
310 305 309 309 308 306 309 310 311 310 310 311 312 312 312 312 312 311 312 311 310 310 310 311 312 311 312 315 315 315 315 315 316 315 316 317 317 316 315 315 315 316 316 315
306 309 306 306 307 308 309 310 310 310 311 313 312 312 311 312 310 310 311 310 309 309 308 308 308 310 310 312 315 315 314 315 315 315 315 316 317 316 316 315 316 316 317 316
305 309 309 311 310 310 310 309 310 313 314 313 312 313 310 310 310 310 309 308 308 308 307 308 308 308 309 309 312 313 311 311 312 313 314 314 314 315 317 316 317 317 316 315
305 306 306 309 308 308 309 310 313 313 313 313 314 311 308 308 308 308 307 307 307 307 308 308 308 308 308 309 310 310 310 310 310 310 310 312 313 313 314 315 316 315 314 313
303 304 304 307 307 309 310 312 312 313 313 312 311 310 308 308 307 307 307 306 307 307 308 308 307 307 307 307 307 308 308 307 308 309 309 310 309 311 312 313 313 313 313 313
303 305 310 307 306 308 308 313 313 311 310 309 308 307 307 306 306 306 306 307 307 307 307 307 307 307 307 306 307 307 306 306 306 306 306 307 308 309 309 310 312 313 313 313
305 308 311 308 308 306 306 312 310 309 311 307 306 306 306 305 307 307 307 307 307 307 307 307 307 306 305 306 307 307 307 306 306 305 305 305 306 306 307 308 310 312 313 313
310 310 311 310 310 308 307 309 308 310 308 305 305 305 305 306 306 306 306 307 307 307 307 307 305 305 305 304 304 305 305 304 304 305 305 305 305 305 306 306 307 308 311 312
309 303 305 311 308 307 307 307 308 305 306 305 305 305 305 305 306 306 306 306 304 304 303 302 302 301 301 301 301 301 302 302 303 304 304 304 304 305 305 305 306 307 307 309
309 307 305 306 305 304 307 306 305 305 304 304 305 305 305 306 305 305 304 304 304 301 300 300 300 299 299 299 299 299 300 300 302 303 305 304 304 304 305 306 307 308 307 307
311 307 302 306 306 304 305 305 304 304 304 304 304 305 305 305 304 304 304 303 301 299 299 298 297 297 297 298 298 299 299 299 300 302 302 303 303 304 305 306 308 308 308 309
306 306 305 304 302 305 305 305 303 303 303 304 303 304 304 304 304 301 301 302 299 298 297 297 297 298 300 302 302 302 300 298 299 300 303 303 303 304 305 305 307 309 309 309
305 304 301 301 301 302 303 303 303 303 303 303 303 303 303 303 301 301 301 300 298 297 298 299 299 301 302 302 300 302 304 298 299 301 301 302 304 305 305 306 307 307 308 309

GFSCGP_850_thetae_081.txt.gz
Theta_e
311 314 315 315 313 312 312 312 313 314 314 313 315 316 316 315 314 315 316 316 315 314 315 316 316 316 317 316 321 324 331 331 333 338 337 339 338 337 334 331 329 330 327 328
314 315 315 313 312 312 313 314 315 314 314 314 316 316 316 315 315 315 315 315 316 316 315 315 316 316 315 316 317 323 326 332 328 329 332 335 337 339 339 337 330 330 327 327
314 314 311 312 313 313 314 314 315 315 315 316 316 316 316 316 314 314 315 315 315 315 315 315 315 315 316 316 317 321 325 328 328 330 337 337 339 341 341 340 334 329 328 328
314 314 313 313 313 314 315 314 314 316 318 317 316 319 317 317 317 316 315 315 315 315 314 314 314 315 316 316 317 320 323 329 328 331 334 333 332 334 335 340 335 330 329 333
315 313 314 314 314 313 315 316 317 317 318 317 317 317 316 317 316 317 317 315 315 315 314 314 316 316 315 316 317 320 322 324 327 330 333 332 335 336 340 338 335 337 338 338
314 312 313 314 315 316 317 317 318 316 317 317 316 317 317 316 317 316 315 314 314 316 316 315 316 316 316 316 316 320 324 330 334 334 332 333 331 334 339 338 339 336 337 337
314 314 314 316 317 317 318 318 317 317 317 317 315 316 315 316 315 316 316 316 316 316 316 316 316 316 316 316 316 316 322 329 333 334 333 335 337 339 335 336 335 335 336 336
316 315 317 317 317 316 318 316 315 316 313 314 314 315 314 315 316 316 316 316 316 316 317 316 316 316 317 316 316 315 316 318 324 328 333 335 336 330 322 319 319 320 320 324
318 317 316 316 317 316 317 316 317 319 315 315 313 314 316 316 318 317 316 316 316 316 315 317 317 316 316 318 316 314 315 317 322 324 330 322 317 317 316 316 316 316 316 316
315 314 313 315 316 316 317 316 317 316 316 314 313 317 317 317 318 317 317 315 315 315 315 315 316 317 316 316 319 318 316 318 323 322 318 316 316 315 315 315 315 315 315 317
315 314 313 313 314 313 316 317 317 315 315 316 315 314 316 316 317 316 315 314 313 313 314 314 315 316 317 317 315 320 320 321 320 317 316 315 314 314 314 314 315 315 318 319
313 316 315 313 311 310 312 312 313 315 314 317 316 314 313 316 315 314 315 314 313 312 312 312 312 314 315 316 316 316 317 319 317 317 316 316 315 315 314 314 315 316 317 320
314 315 313 312 312 311 314 314 314 315 314 314 315 313 314 315 314 313 314 314 312 311 311 310 310 310 311 313 315 316 315 315 315 317 317 317 317 316 315 314 314 316 317 318
313 313 313 312 311 312 312 312 313 313 314 313 312 312 313 314 314 314 314 312 311 311 311 310 309 309 310 311 312 313 315 315 314 315 315 316 317 317 317 315 314 316 315 315
312 314 313 312 312 311 311 311 311 313 313 313 313 314 314 315 315 314 312 311 310 310 310 309 308 308 309 309 310 309 311 315 315 314 314 314 315 316 317 316 314 315 315 315
310 314 313 312 311 311 311 311 312 312 312 312 313 315 313 313 312 312 312 311 310 310 308 308 308 308 309 309 309 309 308 310 314 315 315 314 314 314 315 317 316 315 315 316
311 312 311 309 310 311 312 312 312 312 313 315 315 314 313 314 313 311 309 309 308 308 307 307 308 308 308 308 309 309 309 309 308 309 311 311 312 313 313 315 316 315 315 315
310 310 311 311 311 313 313 314 314 314 315 314 314 313 312 311 309 308 308 308 307 307 307 307 307 307 307 307 308 308 308 308 308 308 308 309 310 310 310 312 315 316 316 317
308 310 312 313 314 312 311 313 314 313 313 312 311 311 310 308 308 308 308 308 307 307 307 307 308 306 307 307 308 308 308 308 307 307 308 308 309 309 310 310 311 313 314 314
307 309 312 313 315 314 311 314 310 311 314 310 309 309 308 307 309 309 307 306 306 306 306 306 305 305 304 305 305 307 306 306 306 307 307 308 308 308 309 309 310 310 311 312
312 312 312 313 315 314 311 310 309 314 313 307 306 306 307 307 307 306 305 306 305 304 304 304 303 304 304 301 301 302 303 304 304 305 306 307 307 307 307 308 308 309 309 309
315 316 315 314 315 315 310 311 312 310 307 306 306 305 305 305 305 305 305 304 303 303 301 301 302 301 299 299 299 299 300 300 301 301 302 306 306 306 307 306 307 308 310 309
315 314 315 314 314 310 309 308 306 305 305 305 304 304 304 305 304 303 303 303 302 301 301 301 299 299 298 298 298 298 299 299 299 300 300 301 303 304 305 306 306 307 309 310
313 310 314 313 310 309 307 306 305 304 304 304 304 304 304 303 302 302 301 301 301 300 299 299 298 298 298 299 300 300 301 300 300 299 299 301 301 303 304 305 306 307 307 309
310 310 311 312 310 308 306 306 304 304 304 304 304 303 303 302 301 301 300 300 299 298 297 298 298 299 299 301 302 302 300 298 299 299 299 300 302 303 305 304 305 306 308 308
309 310 312 312 306 306 306 304 304 303 303 303 303 302 301 301 300 300 299 299 298 297 298 298 298 299 301 302 303 299 298 298 302 299 299 300 303 302 303 304 305 305 308 308

GFSCGP_850_thetae_084.txt.gz
Theta_e
316 317 318 318 317 316 316 316 316 317 318 318 318 319 319 318 318 318 318 318 318 318 318 318 318 319 316 316 317 317 317 322 332 349 348 349 348 348 347 346 346 346 344 336
317 317 317 317 316 315 316 316 317 318 318 318 319 319 319 319 319 318 318 318 318 318 317 318 318 318 320 316 316 317 317 321 325 335 343 348 349 348 348 347 347 341 334 334
317 317 315 316 316 316 317 317 318 318 318 319 320 320 320 320 319 318 318 318 317 317 317 317 317 318 319 322 320 316 316 321 326 332 346 348 348 347 347 346 345 339 336 330
317 317 316 317 317 317 318 318 317 318 319 321 320 321 320 320 320 320 318 318 318 318 317 317 318 318 318 320 322 324 318 317 334 346 346 346 345 344 342 345 346 344 339 336
318 317 317 317 318 317 318 318 318 319 320 321 320 321 320 320 320 319 319 318 316 316 317 318 319 319 320 320 320 322 323 325 326 343 344 346 346 344 345 345 346 344 341 337
318 317 317 317 317 317 318 318 319 320 321 322 320 320 320 319 317 317 317 317 317 319 319 319 319 319 320 320 321 320 325 327 334 341 344 346 345 343 343 345 345 345 342 336
319 318 318 317 318 319 319 320 322 321 321 321 317 316 317 317 318 319 318 318 319 319 319 319 319 319 319 320 322 323 321 328 336 340 343 344 345 346 346 346 345 343 341 344
319 320 318 318 318 319 319 320 320 321 319 317 315 315 317 317 317 318 318 318 318 319 319 319 319 319 319 319 320 323 322 324 331 341 343 344 345 347 347 346 342 341 337 340
319 319 318 318 318 317 319 319 318 318 317 317 316 315 316 319 319 318 318 318 318 318 318 318 318 319 319 320 320 321 324 323 326 335 342 344 347 347 345 344 345 342 341 339
317 318 316 317 317 317 316 317 318 317 319 316 314 314 315 317 317 317 317 316 317 316 316 317 317 317 319 319 320 320 324 325 325 330 335 339 340 339 336 332 324 328 329 322
316 316 315 315 315 315 318 316 316 317 318 318 316 314 316 315 315 317 317 314 316 316 316 315 315 315 316 317 317 320 320 324 325 327 329 330 329 326 323 317 316 316 316 315
316 316 317 315 315 314 314 314 316 320 317 317 318 317 315 316 317 317 315 315 316 316 315 315 314 314 314 314 315 318 320 319 322 323 325 325 327 326 325 321 321 324 321 319
316 316 318 316 315 315 314 314 314 315 316 318 318 316 315 315 315 315 316 316 316 315 314 314 314 313 313 313 313 315 316 318 318 319 321 321 322 325 326 325 325 324 324 324
315 316 316 316 314 315 314 314 314 316 318 316 316 315 315 315 316 316 316 316 315 315 314 313 313 312 312 312 312 313 313 314 316 316 317 319 322 323 319 326 325 324 323 322
314 318 316 315 314 314 313 314 313 313 314 315 315 315 315 315 316 316 315 315 314 314 312 312 311 311 310 310 311 312 312 312 313 315 316 316 316 319 323 325 326 325 323 322
314 314 313 315 314 314 313 312 312 313 313 314 314 315 315 315 315 314 314 314 313 312 311 311 311 310 310 311 311 311 311 311 312 312 315 316 316 316 317 321 324 324 323 322
313 314 315 315 312 312 313 315 314 314 314 314 315 316 316 316 315 313 312 311 311 311 310 310 310 310 310 310 310 310 310 311 311 312 311 313 314 315 315 316 320 323 323 322
312 313 313 314 312 314 316 314 315 315 315 316 316 316 315 314 312 311 310 310 310 310 310 309 308 308 308 308 307 310 308 309 311 311 311 311 311 313 314 315 315 319 322 321
311 312 312 314 315 315 315 316 316 315 315 315 315 314 312 311 310 310 310 309 308 307 307 307 306 307 305 306 306 305 308 307 307 309 311 311 311 311 312 314 315 314 316 319
311 312 314 314 317 317 316 315 313 314 317 314 313 313 312 310 311 311 308 307 307 306 305 304 304 303 304 301 303 304 303 305 306 307 308 311 311 310 311 313 313 315 316 316
314 314 314 314 317 316 315 313 313 317 318 312 310 310 308 309 308 307 306 305 304 303 303 302 302 302 302 301 301 302 303 301 301 302 306 306 308 309 311 311 312 314 315 316
317 317 317 316 317 316 313 313 315 314 311 310 308 307 307 306 306 306 305 304 303 302 301 300 300 300 299 299 300 299 299 299 299 299 300 302 305 307 309 311 311 313 315 315
317 317 318 317 317 315 314 313 311 310 309 308 307 306 306 306 306 304 303 302 302 301 300 299 298 298 298 298 299 299 299 299 300 299 299 299 301 302 307 309 310 311 313 315
314 314 315 314 314 313 312 311 310 309 308 307 306 305 305 305 304 302 302 301 300 299 299 298 297 298 298 298 299 299 300 300 300 300 300 299 300 301 302 306 309 310 311 312
312 313 314 314 313 312 311 311 309 307 306 306 306 306 306 305 302 301 301 299 298 298 297 297 297 297 298 299 300 301 300 299 299 299 300 299 300 301 301 303 306 308 310 311
310 312 314 314 312 311 311 309 307 306 306 305 306 305 305 304 301 300 299 298 297 296 296 296 296 297 299 300 302 301 299 299 299 299 300 299 300 300 301 302 304 305 308 309

GFSCGP_850_thetae_087.txt.gz
Theta_e
318 319 320 319 319 319 319 319 319 320 320 320 320 320 321 320 320 320 320 320 320 320 320 320 320 320 320 321 325 326 318 317 342 349 352 352 352 351 351 348 347 346 345 344
320 319 319 320 320 319 319 319 319 319 320 320 320 321 321 322 321 321 320 320 320 320 319 319 319 320 320 320 321 325 329 324 326 343 348 349 349 352 351 351 348 347 347 347
320 320 318 318 318 318 318 318 319 320 320 320 321 322 324 324 322 321 320 320 320 320 320 319 319 319 320 320 321 322 324 329 329 343 346 349 351 351 351 350 350 349 347 348
319 319 317 318 318 319 320 320 320 320 321 322 323 324 324 323 323 323 321 321 321 320 320 319 319 319 321 322 322 322 323 324 329 330 342 345 349 350 349 349 350 350 349 347
319 319 319 319 320 320 320 320 320 321 322 323 323 324 324 324 323 322 321 319 319 319 319 320 320 321 321 321 322 322 322 322 323 329 334 342 345 347 348 349 348 348 348 345
320 319 319 320 320 319 320 320 321 321 322 324 324 325 324 323 321 320 320 320 319 320 321 321 320 320 321 321 321 322 323 324 324 328 331 339 341 344 346 347 346 347 348 347
319 319 320 319 320 321 321 323 324 324 325 325 323 320 321 320 320 320 320 319 320 320 320 320 320 320 320 321 321 322 323 326 326 325 333 336 341 342 346 343 343 346 348 348
320 322 321 320 320 321 321 322 325 326 324 324 323 320 319 319 319 319 319 320 319 319 319 319 319 320 320 320 321 322 323 325 328 325 329 337 339 342 343 345 342 345 345 345
319 320 320 319 319 319 320 320 321 323 321 320 319 319 319 320 320 319 318 317 317 318 318 318 318 318 319 319 320 321 322 323 327 327 327 333 337 340 341 344 343 346 337 336
320 322 321 320 319 319 319 318 321 321 322 323 318 317 317 320 319 317 317 317 316 315 316 317 317 317 317 318 318 319 320 322 323 327 328 330 338 337 340 341 341 340 343 337
319 320 321 318 318 318 319 320 318 318 320 323 321 318 318 318 318 317 318 317 316 317 317 317 316 316 316 317 317 317 319 321 322 324 327 330 334 337 337 337 336 337 343 339
319 319 321 319 319 317 317 317 318 322 322 319 320 319 318 317 317 317 316 316 316 316 317 316 316 316 316 316 316 316 316 318 320 321 324 328 330 332 333 333 323 324 335 336
318 320 320 320 319 318 317 315 315 317 318 319 322 319 317 317 317 316 316 316 316 317 316 316 316 315 315 315 314 314 315 316 316 319 320 321 326 329 330 329 329 329 330 330
315 320 321 322 321 320 318 316 316 317 319 319 319 318 317 317 317 316 316 317 316 316 316 316 315 314 313 313 313 313 313 314 315 315 318 320 320 325 326 329 328 328 327 327
316 320 319 318 319 318 317 315 315 316 316 317 316 316 316 316 316 317 316 316 316 315 314 314 313 313 313 313 313 313 313 313 313 314 315 316 320 319 324 327 327 327 325 324
315 319 317 319 317 316 315 315 315 315 315 315 315 315 316 317 317 316 316 315 314 313 313 312 312 312 312 313 313 312 313 312 313 313 313 315 315 319 319 320 325 327 326 325
316 318 318 317 316 316 315 314 315 314 315 316 316 317 317 317 317 315 314 313 313 312 312 312 311 310 310 310 310 310 310 310 311 311 313 313 314 315 318 318 319 324 327 326
316 316 316 320 316 316 315 317 317 317 316 316 317 317 317 316 314 313 313 312 311 310 310 309 308 307 306 306 306 304 306 306 308 308 310 311 313 314 315 316 317 318 323 325
316 315 316 316 315 315 315 318 318 317 317 317 318 317 315 313 313 312 311 310 309 308 308 306 305 304 303 302 302 303 302 304 304 304 306 308 310 312 314 313 316 317 319 323
315 315 316 315 318 317 320 317 315 315 317 317 316 315 314 312 314 313 310 308 308 307 305 304 303 302 302 302 301 301 302 302 302 302 304 306 308 309 310 314 312 313 316 318
317 316 315 314 317 316 318 316 315 317 320 315 313 312 312 313 312 310 308 307 306 304 303 302 301 301 301 300 299 299 300 300 301 302 303 303 304 307 308 311 314 312 312 315
318 317 318 317 318 320 316 316 317 317 314 313 312 311 311 309 309 308 308 306 305 303 301 300 299 299 298 298 298 298 298 299 299 300 300 301 302 304 305 307 310 314 313 314
321 319 319 318 318 317 316 315 314 314 313 312 311 310 309 309 309 308 307 305 303 301 299 298 297 297 298 298 298 298 299 299 299 299 299 299 300 300 301 305 308 311 315 315
315 315 318 317 316 315 314 314 313 313 311 310 309 309 309 309 308 307 305 303 301 299 297 297 297 297 297 298 299 301 302 302 300 300 300 300 299 300 300 303 307 308 313 316
312 315 315 316 315 314 314 313 312 311 310 309 309 308 308 308 308 305 303 301 299 297 296 296 296 296 297 298 300 302 303 302 301 300 300 300 300 300 300 301 304 307 311 314
312 312 315 316 314 314 313 312 311 310 308 308 308 308 308 307 306 304 302 299 298 296 296 296 295 296 297 299 301 303 304 303 301 301 300 299 299 299 300 301 302 305 308 311

GFSCGP_850_thetae_090.txt.gz
Theta_e
318 319 320 321 321 320 321 320 321 321 321 320 320 321 321 321 321 321 321 321 321 321 321 320 320 320 320 321 320 322 322 322 318 340 349 350 348 351 350 351 349 349 345 344
321 319 320 321 320 320 320 319 320 321 320 320 320 321 321 322 322 321 322 322 322 321 321 321 321 321 321 321 321 323 325 325 323 322 332 350 350 347 347 349 352 349 348 346
320 321 320 319 320 320 320 320 319 319 320 321 321 321 323 323 323 323 323 322 321 321 321 321 321 321 321 323 323 323 324 328 328 330 326 342 347 349 349 348 349 349 350 349
320 320 320 319 319 319 319 320 320 321 321 321 322 323 324 324 324 324 323 323 321 321 321 321 321 322 322 322 322 322 322 322 324 325 325 332 341 345 345 343 349 350 350 348
320 320 319 319 319 320 320 321 321 321 322 322 322 323 324 325 325 324 323 321 321 320 321 322 322 322 321 321 322 322 322 322 322 323 325 329 323 339 345 345 345 346 348 348
319 319 320 320 320 321 321 321 321 322 322 323 323 324 324 324 323 322 322 321 320 320 320 320 321 321 321 321 321 322 322 322 323 322 325 326 330 326 341 343 344 345 345 347
319 319 320 320 320 320 321 322 324 326 325 325 325 325 325 323 321 321 321 320 320 320 320 320 320 320 320 321 321 321 322 322 324 323 324 327 327 333 331 340 344 343 343 346
322 322 322 322 321 321 322 322 324 328 327 325 324 326 324 321 320 320 320 320 320 319 318 319 319 319 319 320 320 320 320 321 321 323 323 326 327 331 334 336 337 343 344 343
321 321 320 321 321 320 320 321 322 324 323 324 323 322 321 321 321 321 320 319 318 318 317 316 317 318 318 318 318 318 318 319 320 323 323 326 327 327 332 336 336 336 341 341
320 322 321 322 321 320 320 320 322 321 325 324 322 321 320 321 320 319 318 317 317 317 317 317 317 318 317 317 317 318 318 318 318 320 322 322 325 328 330 334 333 336 339 340
320 322 323 322 322 320 319 320 320 320 325 324 321 320 320 319 319 318 317 316 316 317 317 317 317 317 317 317 317 317 317 317 317 317 319 321 322 325 330 331 335 336 337 339
320 322 323 322 321 320 319 319 322 325 321 321 322 321 321 319 318 317 317 317 316 317 317 317 317 317 317 316 316 316 316 315 315 316 316 318 320 321 324 326 330 331 332 332
319 321 323 322 321 320 320 318 318 319 322 323 325 321 318 319 320 317 317 316 316 317 317 316 317 317 317 316 315 315 314 314 314 314 314 315 317 318 320 325 327 328 330 327
317 320 323 325 324 322 321 320 318 318 320 318 318 318 319 320 318 317 316 317 317 317 317 315 315 315 314 315 315 315 315 315 314 315 315 314 315 316 317 320 326 328 328 320
317 319 319 319 320 320 321 321 320 318 317 318 317 317 317 317 318 318 318 317 316 315 315 314 314 314 313 313 312 312 311 311 312 312 313 313 314 315 316 319 320 324 327 327
318 319 318 320 319 319 319 319 319 317 317 316 316 316 316 317 317 317 316 315 315 314 314 313 312 311 311 310 309 308 307 307 307 308 310 311 311 313 314 316 319 319 324 327
319 319 319 320 318 318 318 318 318 317 316 315 315 316 317 318 318 316 315 314 313 313 312 311 310 310 309 308 307 306 305 304 305 305 306 307 308 309 310 314 316 319 320 325
318 318 319 320 318 323 318 316 317 318 318 317 317 318 318 316 314 314 313 313 312 311 310 309 308 307 306 304 304 303 303 303 303 303 304 305 305 308 309 312 314 316 319 320
316 317 320 319 319 318 316 318 319 319 318 319 319 317 315 314 313 313 313 312 310 309 309 308 306 305 303 302 302 302 302 302 301 302 303 304 305 305 307 307 311 314 316 318
315 315 318 317 321 318 320 318 317 317 317 318 316 315 315 313 315 314 311 310 310 309 307 305 303 301 300 299 299 299 300 300 299 300 302 303 304 303 304 307 309 311 315 316
318 318 320 318 316 315 319 318 316 318 320 316 314 314 313 313 312 311 311 310 308 307 306 303 300 299 298 298 298 298 298 299 299 299 299 300 301 302 304 304 307 308 311 315
320 319 319 317 317 318 317 317 318 318 316 314 313 312 311 311 310 310 310 309 307 305 303 300 299 297 297 297 298 298 298 299 300 300 300 299 299 301 304 305 305 306 309 314
319 319 319 319 320 318 317 317 316 315 314 313 312 311 311 310 310 309 309 307 305 303 300 298 297 297 297 297 298 298 300 301 302 302 301 301 300 299 300 303 304 305 306 308
317 316 319 317 317 317 317 315 314 313 313 312 310 310 309 309 309 308 307 305 303 300 298 297 296 296 297 298 299 299 301 303 304 303 302 301 300 300 300 300 301 303 304 306
315 315 316 316 315 316 315 314 314 312 311 309 310 309 308 309 308 307 305 303 300 298 297 296 295 295 297 298 299 300 303 304 305 305 303 302 301 300 300 300 300 301 303 306
313 313 316 317 315 314 314 313 312 311 309 309 309 308 308 308 306 304 303 300 298 296 295 295 295 296 297 297 298 302 304 304 306 305 302 300 299 299 300 300 300 301 302 304

GFSCGP_850_thetae_093.txt.gz
Theta_e
317 314 315 315 316 317 317 317 317 319 318 318 316 317 317 320 320 320 320 320 320 320 320 320 320 320 320 321 320 320 320 320 321 320 320 340 347 346 348 349 349 350 350 348
317 315 317 319 319 319 318 318 317 318 320 318 319 319 320 320 319 320 321 321 321 322 321 321 321 322 324 325 326 330 328 329 331 331 329 324 326 340 348 346 344 346 347 350
317 319 319 319 318 319 319 319 318 318 318 318 320 318 319 319 320 321 321 321 321 321 321 321 321 321 321 321 322 322 322 322 322 322 325 325 324 327 337 342 344 340 344 346
318 319 320 319 319 318 318 318 318 318 319 318 319 318 319 319 320 320 321 321 321 321 321 321 322 321 321 321 321 322 322 322 322 322 322 322 323 325 325 325 335 343 339 340
317 318 319 318 318 318 317 320 320 320 318 318 319 318 318 319 320 320 319 320 320 320 320 320 321 321 321 321 322 322 322 322 321 322 322 322 321 321 324 326 328 330 338 339
317 318 319 319 319 319 320 319 319 320 318 318 319 319 319 320 321 320 319 320 320 320 320 320 320 321 320 320 320 320 320 321 321 322 322 322 321 321 322 325 326 330 328 336
318 317 318 319 320 319 319 317 318 320 321 321 322 323 321 322 320 319 317 320 320 320 319 318 319 319 318 318 319 319 320 319 319 320 320 320 321 320 324 325 327 329 334 329
320 321 320 321 321 320 321 320 324 327 324 322 322 325 325 320 319 320 320 320 319 319 318 317 318 317 316 318 318 318 318 318 318 318 319 319 320 321 322 323 327 328 332 334
322 322 321 321 321 319 320 319 320 320 322 321 320 320 321 321 319 319 320 319 319 318 318 317 316 317 317 318 318 317 317 317 317 318 317 318 318 320 321 321 322 328 329 331
320 321 320 321 321 320 320 319 322 320 324 323 321 320 322 320 318 317 316 317 317 317 317 317 317 317 317 317 317 317 317 317 317 317 317 317 317 317 318 318 319 323 326 330
319 320 321 320 322 321 321 318 318 320 324 319 320 320 319 318 316 316 316 316 316 316 317 317 317 317 317 317 317 316 316 316 316 316 315 315 316 316 316 316 317 319 325 326
321 320 322 321 319 321 320 318 319 321 322 320 319 320 319 319 316 316 315 316 317 317 318 316 316 315 315 314 315 315 316 316 315 316 316 315 315 314 315 316 316 316 321 324
320 319 320 320 319 319 321 320 318 320 320 321 321 322 319 317 316 318 317 317 317 316 315 314 314 314 314 314 314 313 313 313 314 314 314 314 315 315 315 315 316 315 316 320
318 319 320 321 325 322 323 322 320 316 315 316 316 316 316 316 317 317 316 315 315 314 314 314 313 312 312 311 311 310 310 309 308 309 310 311 312 312 313 314 315 316 315 318
316 317 318 317 318 320 321 321 321 321 319 317 316 317 316 315 315 314 315 314 314 314 313 312 312 311 310 310 309 308 308 307 306 306 306 307 308 309 310 312 313 313 315 315
316 316 317 318 318 318 318 319 321 321 320 319 317 316 315 316 315 314 313 313 313 312 311 311 310 309 309 308 308 307 306 305 304 304 304 304 303 304 306 308 310 311 312 315
317 318 317 318 318 318 320 318 318 318 318 317 315 316 314 313 313 312 312 312 311 310 310 309 309 309 308 307 305 303 302 302 303 302 302 303 303 303 303 305 306 308 310 311
317 318 317 317 318 320 318 317 318 318 319 318 318 315 313 313 313 313 312 311 310 310 310 309 309 307 306 305 302 301 300 300 300 301 302 301 301 301 302 304 303 305 308 309
313 316 317 320 318 318 317 317 319 319 320 316 315 314 314 313 313 313 312 310 311 309 309 308 307 305 304 301 300 299 299 299 299 299 300 300 300 301 302 303 305 305 306 307
314 315 316 317 318 320 320 319 317 317 319 316 314 313 312 312 311 310 310 311 309 309 308 306 305 304 300 299 299 299 299 299 300 301 301 301 301 300 300 302 303 303 304 306
316 316 316 314 314 315 317 318 315 319 318 315 313 312 311 310 310 310 310 309 308 307 306 305 303 300 298 299 298 298 298 299 301 301 301 302 302 302 301 300 301 302 304 306
316 317 317 316 317 314 318 318 318 316 315 313 312 311 311 310 309 309 309 307 307 305 304 302 298 298 298 298 297 297 298 301 301 302 304 304 303 302 301 300 300 302 304 304
318 316 316 317 316 316 316 317 316 314 313 312 311 310 309 309 309 308 307 305 304 303 301 298 297 297 298 298 297 298 300 300 303 304 304 304 303 303 301 300 300 301 302 304
317 316 314 317 317 317 316 315 314 313 312 310 310 309 308 309 308 305 304 303 302 300 298 296 296 296 298 299 299 299 299 302 304 304 305 305 303 303 302 301 300 300 302 304
315 316 316 315 315 315 315 314 313 312 310 309 309 307 308 307 304 304 303 301 299 297 295 295 294 295 297 299 301 302 302 304 305 305 305 305 301 300 300 300 300 300 300 302
314 314 313 314 314 314 314 313 312 309 309 308 307 308 306 304 304 302 300 298 297 296 295 295 294 295 297 298 301 302 304 305 306 306 306 305 301 299 300 299 300 300 300 302

GFSCGP_850_thetae_096.txt.gz
Theta_e
316 312 313 313 314 315 316 316 316 315 316 315 315 315 315 316 318 318 318 319 320 320 320 320 320 320 319 321 320 321 322 323 324 324 322 321 334 346 342 344 345 345 346 346
314 313 314 315 316 317 317 316 316 316 317 316 314 314 315 316 317 318 319 319 319 319 322 323 323 322 322 323 324 324 324 327 328 327 326 325 323 323 327 330 331 337 340 340
314 316 317 316 316 317 316 316 317 317 317 316 316 316 318 318 319 320 319 319 319 321 322 321 322 322 321 322 322 322 323 323 322 321 321 321 321 322 322 322 323 326 329 332
315 317 318 318 318 316 316 317 318 319 316 316 317 317 317 318 318 318 318 321 321 321 321 321 321 321 321 321 321 321 321 321 321 321 321 321 321 321 321 320 319 319 319 321
316 317 316 317 317 316 315 319 319 319 316 316 317 316 316 317 319 318 316 319 320 320 320 320 321 321 321 321 321 321 320 320 320 320 320 320 321 321 321 320 319 318 318 317
315 316 317 318 318 317 318 317 315 315 314 316 317 316 316 317 318 318 317 319 320 320 320 320 320 320 319 319 318 318 317 316 317 318 318 318 319 318 318 318 318 319 320 321
316 316 316 319 320 318 315 314 315 317 318 319 321 320 317 319 317 317 316 319 319 319 318 317 316 316 316 316 315 316 316 317 317 317 317 317 316 318 318 317 317 319 321 320
316 319 320 320 320 319 318 316 317 321 322 321 319 323 322 317 317 318 319 319 319 319 318 317 317 316 317 316 316 317 318 317 317 317 317 316 317 317 317 317 317 317 317 317
321 322 319 320 320 318 319 317 317 319 319 319 318 320 319 319 319 318 318 319 318 318 318 317 317 317 316 316 317 317 317 317 317 317 317 317 318 317 317 317 317 317 317 316
318 319 320 321 320 319 319 318 319 318 322 322 321 321 321 319 318 317 316 317 317 318 318 317 316 317 317 317 317 317 317 317 317 317 318 319 318 316 316 317 316 316 316 316
317 317 319 319 320 320 320 319 317 318 321 319 319 319 317 316 314 313 313 316 315 314 315 315 315 315 315 315 315 315 315 315 315 315 316 316 315 315 316 316 315 318 318 316
318 317 319 319 318 318 318 318 316 319 319 318 316 316 318 317 316 314 312 315 315 314 314 314 314 314 314 313 313 313 312 312 311 311 311 312 313 314 313 314 315 316 317 316
317 317 318 317 315 317 320 320 317 316 315 318 320 317 318 317 316 314 313 313 313 313 313 313 313 312 312 312 311 310 308 308 309 309 309 309 309 309 310 311 312 313 313 315
317 316 316 316 320 319 322 322 320 319 316 317 317 317 315 315 315 313 312 313 313 312 312 312 311 310 310 308 307 307 308 308 307 307 306 305 305 304 304 306 307 308 311 312
313 316 317 317 316 318 321 321 320 322 321 317 316 313 313 313 312 312 312 312 312 311 310 310 310 309 309 308 307 307 307 306 305 305 304 304 303 303 303 303 303 304 307 310
313 314 316 316 316 316 317 318 319 321 321 321 319 318 313 313 312 311 311 310 310 310 310 310 309 309 308 307 306 307 306 305 304 302 302 302 301 302 302 303 302 302 303 306
314 315 316 316 317 318 317 317 317 317 320 320 320 315 312 311 310 310 310 310 310 310 309 309 309 308 307 306 306 305 304 302 302 302 304 302 301 301 301 301 301 301 303 304
313 316 318 319 316 319 314 315 317 317 317 316 314 312 311 312 311 311 310 310 310 309 309 308 307 306 305 306 304 302 302 303 304 304 303 301 301 301 301 301 301 301 303 303
312 315 318 318 314 315 315 318 319 318 319 314 313 312 311 311 311 311 310 310 309 308 307 306 305 305 306 304 302 303 305 304 301 301 300 301 301 301 302 302 301 301 301 303
313 314 314 317 316 316 316 318 316 317 321 315 312 311 310 310 309 307 309 309 308 307 306 304 305 304 302 302 302 301 303 301 301 301 301 303 303 304 304 304 302 301 301 301
315 316 316 316 316 313 315 316 314 318 317 313 311 310 310 309 308 309 309 308 306 304 304 305 303 300 299 300 300 301 301 301 301 301 303 305 305 305 304 303 303 301 300 300
313 315 315 315 317 316 315 317 318 315 314 312 310 310 309 308 309 308 307 305 304 304 303 301 299 299 299 298 299 300 300 301 301 303 305 306 306 305 304 303 303 301 300 300
319 313 313 313 310 313 317 315 313 312 311 310 309 308 308 308 307 305 304 304 303 300 299 298 297 298 298 298 298 298 301 301 303 305 306 307 306 304 302 299 302 301 300 300
317 316 313 314 315 316 315 315 314 313 309 309 308 308 308 307 305 303 303 301 299 299 297 297 296 296 297 297 298 299 301 302 304 305 307 307 305 303 301 300 300 301 300 300
313 316 316 314 315 315 314 314 313 310 309 308 307 307 306 304 302 302 301 299 298 297 296 296 295 295 295 297 300 302 302 304 306 308 309 308 304 303 300 300 300 300 300 300
312 311 310 310 314 314 314 312 313 309 307 307 307 306 304 302 301 301 300 299 297 297 296 296 295 294 296 298 301 304 304 305 305 308 309 308 306 303 300 300 300 300 299 300

GFSCGP_850_thetae_099.txt.gz
Theta_e
315 312 312 312 312 314 315 315 314 314 314 316 313 313 314 314 316 316 317 318 318 318 319 319 319 319 321 324 325 325 326 330 334 328 327 326 328 335 343 343 344 344 345 343
313 312 313 313 314 315 315 316 315 314 315 314 313 313 312 313 315 317 318 318 319 317 319 319 320 320 320 320 321 321 322 322 323 322 322 323 323 323 323 323 324 325 331 331
313 314 315 315 315 315 315 315 315 316 316 315 315 314 315 316 317 317 317 317 317 318 321 322 322 322 323 324 325 325 325 325 325 324 323 322 321 321 321 320 320 320 319 319
313 314 315 316 316 315 315 314 316 317 315 315 315 315 315 317 316 316 317 318 319 321 321 321 321 321 321 321 321 321 321 321 321 321 320 320 320 319 318 318 317 317 317 316
315 316 315 316 316 315 316 316 317 316 314 314 315 314 314 315 318 318 316 319 320 320 321 321 321 321 321 321 321 321 320 320 317 315 314 315 315 314 315 315 315 314 315 316
314 316 315 315 316 316 316 315 313 313 312 315 316 314 314 315 316 317 316 318 320 320 321 321 320 320 320 319 319 318 316 315 316 316 316 316 316 316 316 314 314 315 316 315
315 315 315 317 318 317 314 312 314 315 315 315 317 317 315 317 316 316 315 317 319 320 320 319 318 317 318 316 316 316 316 316 317 317 317 317 317 316 316 316 316 316 316 316
314 316 319 320 319 318 317 314 314 318 319 318 317 320 320 316 315 317 318 319 319 319 318 317 317 316 317 317 317 317 317 318 317 317 317 317 317 318 319 319 319 318 318 317
316 320 319 320 319 318 318 318 317 318 318 318 317 318 317 317 316 316 318 318 319 319 318 316 316 317 317 316 316 317 317 317 317 317 316 317 317 317 319 319 318 317 318 319
316 320 319 320 319 319 318 317 319 317 321 322 319 320 319 318 317 316 316 317 317 316 316 316 316 316 316 316 316 316 316 315 315 314 314 314 315 316 316 316 315 315 316 318
316 316 318 318 319 319 319 318 316 317 318 320 320 320 316 317 316 315 310 312 313 313 315 315 315 315 314 314 314 313 313 313 312 312 311 311 311 311 311 312 314 314 314 314
318 315 317 317 317 317 318 319 316 319 320 316 316 318 316 314 315 313 312 313 313 313 313 313 313 313 313 313 312 311 310 309 308 308 308 310 311 312 312 312 312 312 310 311
317 315 317 316 313 317 319 319 315 314 314 317 317 317 315 315 313 312 312 312 312 312 312 312 312 311 310 310 309 308 306 307 309 310 311 311 311 310 309 309 307 306 306 307
316 315 316 318 315 317 320 321 319 317 317 316 316 316 316 315 312 310 311 311 312 311 310 310 310 309 309 308 307 305 306 308 310 310 309 309 309 308 307 306 304 304 303 303
312 316 317 317 317 318 318 319 319 321 320 321 317 313 312 311 310 310 311 311 310 310 310 310 309 309 308 306 305 304 307 309 308 307 307 309 307 306 305 305 304 304 303 302
311 313 315 316 315 316 316 316 318 318 318 320 319 320 311 310 311 310 310 310 310 310 309 309 308 307 306 304 304 307 308 307 305 306 308 307 304 305 304 303 302 301 301 301
312 312 313 316 315 316 317 316 316 316 317 318 320 318 310 310 310 309 309 310 309 309 309 308 307 305 304 305 307 307 306 305 305 307 307 304 303 302 303 303 303 303 303 302
311 311 312 315 315 317 313 313 315 316 315 315 312 310 310 310 311 310 309 309 309 308 307 306 305 304 306 306 305 303 304 304 306 307 305 305 305 304 304 303 304 305 303 303
309 311 316 313 315 314 314 318 318 318 317 312 311 310 310 311 310 309 308 309 308 307 305 304 304 305 304 302 302 302 302 303 303 304 306 306 303 303 305 305 304 304 304 301
312 314 312 316 316 315 312 317 316 316 319 313 311 311 310 309 309 306 308 308 306 305 303 305 304 303 301 302 301 300 301 303 304 305 305 304 304 305 306 306 305 304 303 302
315 315 314 315 310 312 311 315 315 314 313 312 311 310 309 308 308 307 307 306 304 303 304 303 302 300 300 300 299 300 302 305 304 303 304 305 306 306 306 305 303 302 302 302
315 316 316 316 316 313 314 316 316 312 312 311 310 309 308 308 307 306 304 303 303 305 303 302 301 300 300 299 299 300 302 304 302 304 305 306 307 307 304 304 302 300 300 301
316 310 309 309 309 308 315 313 314 313 311 309 308 308 308 306 305 303 302 304 304 301 300 299 298 298 299 298 298 299 302 303 303 305 306 307 308 306 304 301 300 300 300 301
316 315 315 314 314 314 315 313 312 310 309 308 308 307 306 305 303 302 304 302 300 298 298 297 298 298 297 298 299 300 302 300 301 305 306 308 308 306 305 301 300 300 301 300
313 314 314 314 314 314 314 314 314 312 310 308 307 306 305 302 302 303 301 298 298 298 298 298 298 296 296 298 300 301 301 300 301 305 308 308 309 306 305 302 301 300 299 300
309 310 311 310 311 312 313 314 312 309 307 307 306 305 303 301 302 302 299 298 298 297 297 298 297 296 297 298 299 300 300 301 303 306 308 309 308 307 306 304 302 300 300 300

GFSCGP_850_thetae_102.txt.gz
Theta_e
308 307 309 309 310 312 314 314 314 313 312 311 310 312 313 313 314 314 318 317 321 318 319 320 318 319 319 320 322 321 323 325 334 343 344 345 344 344 343 342 342 341 340 338
311 310 311 311 311 312 313 314 313 313 314 312 311 311 311 311 312 315 316 317 317 316 316 318 318 319 319 320 321 323 327 328 329 333 332 329 326 324 323 323 322 322 321 321
311 313 313 313 314 314 313 313 314 315 315 314 314 313 313 312 315 315 315 316 316 317 318 319 319 319 321 323 327 330 329 329 326 324 324 324 323 322 321 320 320 319 318 317
312 312 314 313 314 314 314 313 314 314 314 313 313 313 315 315 316 316 317 317 317 318 319 320 320 321 321 322 323 324 325 325 324 322 320 317 315 315 314 313 312 312 313 313
314 315 315 314 314 314 315 315 316 315 313 314 314 313 312 314 317 317 316 317 318 320 321 323 323 323 322 322 321 321 320 318 316 315 316 316 315 315 314 314 314 314 314 314
313 315 315 314 315 315 315 313 311 311 310 314 315 313 313 314 316 316 315 317 319 320 321 321 321 321 321 320 320 318 317 317 317 316 317 316 316 316 316 316 316 315 316 316
314 314 314 314 315 316 312 312 312 315 314 314 314 315 313 315 315 315 314 317 319 321 321 320 320 320 319 318 317 317 317 317 317 317 317 317 317 317 317 317 316 316 316 317
314 315 316 318 317 315 315 313 313 317 317 315 316 319 318 315 314 316 317 318 319 320 319 319 319 318 318 317 317 318 318 317 317 317 317 317 317 317 317 317 317 318 319 319
314 316 318 319 318 316 316 317 313 315 315 316 315 316 316 316 315 315 316 317 318 317 317 316 316 316 316 316 315 316 316 316 316 316 316 315 315 315 315 315 316 316 317 317
314 319 319 319 319 318 316 315 317 314 320 321 317 318 318 318 316 315 313 313 315 315 314 315 315 315 315 315 315 314 314 314 314 313 313 313 313 312 311 310 310 310 310 310
314 316 317 317 318 319 319 317 315 315 315 317 317 318 314 315 314 312 311 311 312 313 314 314 314 313 313 312 312 312 312 312 311 310 310 309 309 308 309 311 313 313 313 312
316 314 317 318 316 316 317 317 315 318 320 316 315 316 314 313 312 310 310 311 312 313 313 312 311 311 311 311 310 310 309 308 307 306 306 307 308 311 312 315 314 313 312 310
318 316 318 319 315 316 318 316 313 312 312 316 317 317 314 311 310 310 310 311 312 312 311 311 311 310 310 309 308 308 306 306 305 305 307 309 311 312 314 313 311 310 309 308
315 314 316 318 315 315 320 319 317 315 314 316 315 316 315 313 312 310 309 311 311 311 310 310 310 309 308 307 306 305 304 304 306 309 310 310 310 311 311 310 309 309 308 307
312 317 317 316 317 317 317 318 318 319 319 319 318 314 313 312 311 308 310 311 310 310 310 309 309 307 306 306 304 303 304 307 309 310 310 309 309 309 309 308 308 305 304 304
310 314 314 316 315 315 316 315 316 317 318 317 318 316 312 309 310 310 310 310 310 309 309 308 307 306 305 304 303 305 308 309 309 308 308 308 308 307 307 306 304 304 304 305
311 311 312 316 315 315 315 315 314 315 315 317 319 317 309 309 309 309 309 309 309 308 308 307 306 305 303 304 307 308 307 306 305 305 305 306 305 304 304 303 303 305 306 305
310 309 308 312 313 315 311 312 313 314 314 312 314 312 309 309 310 309 309 309 308 307 307 306 304 303 305 306 306 304 304 304 303 303 304 304 303 302 302 304 306 306 306 305
308 308 313 312 314 312 313 317 316 316 315 311 309 309 309 309 309 308 308 308 306 306 305 303 304 306 306 305 304 303 303 302 302 304 303 303 302 303 305 307 306 307 304 303
310 309 308 315 316 315 311 314 315 315 315 310 310 309 309 309 312 307 307 307 307 305 303 305 305 305 304 303 302 301 301 301 302 304 304 304 303 305 307 307 307 303 303 301
312 314 315 313 308 310 310 313 315 313 312 311 311 310 310 310 309 307 307 306 303 303 305 304 303 302 301 301 300 299 299 300 302 304 304 304 306 307 308 307 305 303 301 300
314 315 315 314 312 311 313 316 316 310 310 311 310 309 310 308 307 306 304 302 303 302 302 302 303 302 301 299 297 298 299 301 303 303 304 306 306 307 308 305 304 303 301 299
315 310 309 310 309 307 314 313 314 312 310 309 309 307 308 306 304 302 302 301 300 300 301 301 301 301 299 298 296 297 300 301 302 303 306 306 307 308 307 306 305 303 301 299
315 313 313 314 311 311 314 312 313 310 310 309 311 310 306 304 302 302 300 300 301 300 301 301 300 299 299 297 297 297 299 300 303 304 305 306 307 309 308 307 306 303 302 300
312 314 314 313 312 314 314 313 310 309 308 310 307 305 303 301 302 301 299 297 298 298 301 300 299 297 297 297 297 297 298 300 302 303 304 306 306 308 308 307 306 305 303 301
307 307 311 310 311 312 312 314 313 310 307 307 306 304 301 301 300 299 296 295 296 296 300 301 299 297 296 297 297 297 298 299 301 303 302 303 305 307 309 308 307 306 303 302

GFSCGP_850_thetae_105.txt.gz
Theta_e
309 310 313 315 315 316 316 317 318 318 317 315 316 316 316 317 318 319 320 319 321 322 325 324 327 326 321 319 319 323 323 324 324 338 338 344 343 345 343 342 343 342 340 339
311 312 313 314 315 315 316 317 318 318 317 316 317 317 317 317 318 320 318 319 321 323 326 325 322 320 320 319 320 323 326 333 337 339 339 340 341 339 330 324 322 321 321 320
315 315 315 314 316 316 317 317 318 317 318 317 317 318 317 317 315 316 316 319 320 321 323 324 321 320 319 320 323 324 329 336 337 339 337 330 323 321 321 320 319 317 316 315
316 315 314 315 316 317 318 317 318 318 318 320 318 319 320 319 318 317 317 317 318 318 318 318 317 317 319 327 331 335 332 328 325 323 322 321 318 316 314 313 313 313 313 313
316 316 316 316 317 317 318 317 318 319 319 319 320 319 320 319 319 320 320 319 319 321 319 319 318 320 324 326 327 325 324 324 322 317 315 315 314 314 315 314 314 314 314 314
316 315 316 317 317 316 317 318 318 318 319 320 319 319 320 320 320 322 320 319 319 321 322 322 323 323 324 323 322 321 320 318 315 316 316 316 316 316 316 316 316 316 315 315
317 317 317 316 318 317 317 320 320 320 320 320 319 320 320 320 320 320 322 320 321 322 323 323 322 321 321 320 319 318 317 316 316 316 317 317 317 318 317 317 317 317 316 316
317 317 317 317 317 318 318 320 320 320 320 320 320 321 321 320 319 318 320 320 321 321 320 320 321 321 320 320 319 319 318 318 317 317 317 317 316 316 316 316 316 316 316 316
318 317 318 319 319 319 319 319 318 321 319 320 321 321 321 320 319 319 319 320 320 318 317 317 318 318 319 318 318 317 317 316 316 316 316 315 314 313 313 313 312 312 312 311
318 320 320 320 320 319 320 319 323 321 323 321 321 322 320 322 321 321 320 319 317 315 314 314 314 315 314 314 314 313 313 313 312 312 312 311 311 311 311 311 310 309 308 309
318 319 320 319 321 321 320 321 321 322 323 324 322 322 321 323 322 321 319 317 316 315 315 314 314 314 313 312 312 311 311 311 310 310 310 309 309 307 307 307 308 309 312 314
317 319 320 321 318 318 320 321 322 324 324 322 323 322 318 319 320 318 316 314 314 314 313 312 312 312 311 311 311 311 310 309 308 307 306 306 306 307 308 310 311 313 313 313
321 322 323 321 319 319 321 319 319 321 322 324 325 322 317 316 316 315 314 313 312 312 311 310 310 310 310 310 309 308 306 305 305 305 305 306 308 309 311 312 313 313 311 310
321 321 323 324 322 321 323 321 319 320 322 321 321 321 319 318 318 315 313 312 312 311 311 310 310 309 308 307 306 305 304 304 305 306 307 309 311 312 312 312 311 310 308 306
320 322 322 319 320 319 321 321 320 321 321 321 319 320 320 319 318 315 313 313 312 311 311 310 309 308 307 305 304 304 304 305 306 308 310 312 312 311 310 308 308 306 304 305
315 320 318 319 317 317 319 318 319 319 320 320 319 320 318 315 314 312 312 312 312 311 310 309 308 306 305 304 303 304 306 308 309 311 311 310 309 309 307 307 305 304 305 306
318 318 319 318 317 317 317 318 318 317 317 318 319 318 316 314 315 313 312 311 311 310 309 308 306 305 303 303 305 307 308 309 309 308 306 304 305 305 305 304 305 307 306 305
317 318 318 318 316 315 314 314 315 316 316 316 317 317 318 317 313 311 310 310 309 308 307 306 304 303 304 306 307 308 307 307 306 306 302 304 305 303 304 305 306 307 304 303
314 317 317 317 316 313 315 318 318 318 318 315 316 315 313 312 311 310 308 308 307 306 305 303 303 305 307 307 306 305 304 304 303 301 302 304 303 303 304 306 307 305 305 304
314 314 316 316 316 317 317 315 316 317 319 314 314 314 313 313 316 314 307 307 305 303 303 304 305 304 303 302 302 301 301 300 300 302 303 303 302 303 305 306 306 308 307 304
315 315 315 314 316 315 313 314 316 319 319 313 313 313 314 316 310 307 305 304 303 303 304 304 303 302 300 300 300 300 300 300 301 303 303 302 303 304 306 307 308 308 307 305
315 316 316 316 317 316 315 317 317 317 313 313 312 310 308 307 306 305 303 303 303 303 303 303 301 299 299 300 300 300 300 300 301 302 303 302 304 305 306 308 309 309 307 305
317 316 317 316 316 313 315 316 315 313 312 310 309 309 308 306 304 302 302 301 301 300 301 301 301 301 300 300 299 299 299 299 300 301 303 301 303 305 307 308 309 308 306 304
315 314 317 316 315 315 315 314 313 311 310 310 311 312 309 304 302 301 300 298 298 297 299 301 301 301 300 299 299 298 297 297 298 300 302 302 303 307 307 308 308 307 306 305
313 314 315 315 315 314 316 314 310 309 310 312 308 305 303 302 301 299 298 296 296 296 297 298 301 300 299 299 298 297 297 297 298 299 301 302 303 305 307 307 307 307 307 305
310 314 316 315 314 315 315 314 309 308 308 306 305 303 300 300 299 295 294 293 294 295 295 296 300 300 299 298 297 296 297 296 297 298 301 303 304 306 306 306 307 308 306 306

GFSCGP_850_thetae_111.txt.gz
Theta_e
313 314 315 317 318 319 321 322 320 321 322 322 323 323 323 323 322 321 320 318 318 318 321 326 330 331 331 328 322 321 329 351 351 351 349 350 349 351 350 352 350 347 345 343
315 315 316 318 319 319 320 321 321 322 322 323 323 323 324 324 323 321 320 320 319 318 322 327 329 330 330 331 324 327 323 322 330 345 346 345 329 346 347 350 349 344 335 337
316 316 316 318 319 320 320 321 321 321 323 323 323 323 323 324 322 321 320 320 320 320 323 325 329 331 331 335 334 327 324 333 322 333 348 325 326 325 336 345 343 340 336 336
316 317 317 319 320 320 321 320 320 321 322 323 325 325 325 325 323 322 322 323 323 323 323 324 326 330 330 328 328 326 326 324 334 330 345 327 341 338 333 332 327 330 322 317
317 318 319 319 319 320 320 320 320 320 322 322 323 325 324 325 324 323 323 323 324 323 323 324 327 329 330 332 331 328 324 322 323 323 346 341 336 333 330 326 327 323 319 316
319 319 320 320 320 320 320 320 321 321 321 323 323 325 324 325 325 324 324 323 323 323 323 324 326 328 330 336 338 342 341 331 333 333 334 332 329 328 327 327 328 327 326 326
319 320 320 320 320 320 320 321 323 322 322 322 323 324 324 326 324 325 325 323 323 325 326 327 329 329 332 337 336 334 332 333 331 330 329 326 324 323 323 322 324 323 322 323
319 320 320 319 320 320 320 321 323 322 322 321 322 325 324 325 325 324 325 325 325 326 328 329 330 331 332 332 332 329 328 326 321 318 316 316 316 321 317 319 319 318 320 321
321 321 319 320 319 321 321 322 322 323 323 324 325 324 327 326 325 324 326 326 328 328 329 329 329 328 329 328 327 327 325 324 323 318 317 317 317 316 317 316 316 315 316 315
320 322 320 319 319 320 321 322 324 322 325 328 327 327 326 326 325 324 325 326 328 329 329 329 328 327 327 325 324 324 323 322 320 319 318 318 316 315 315 314 314 314 313 312
320 322 321 320 320 320 321 322 323 323 323 326 329 326 326 328 325 325 325 326 327 327 327 326 326 325 324 323 322 321 320 319 319 318 317 316 315 314 314 313 312 311 310 310
320 322 324 321 320 320 322 322 324 326 327 327 325 326 325 325 326 326 325 327 326 325 325 324 323 322 321 320 320 320 318 317 317 316 316 316 314 313 314 315 313 313 314 315
323 322 330 327 325 323 323 324 322 324 328 327 330 327 325 325 325 325 325 325 325 324 323 322 321 320 320 319 318 317 316 316 315 315 314 314 314 314 313 314 314 315 316 316
325 322 324 329 327 325 323 326 326 326 327 328 325 324 325 324 324 324 324 324 324 323 322 321 320 319 318 317 316 315 314 314 314 314 313 314 314 314 314 314 314 315 315 315
324 324 325 325 325 326 325 322 323 325 324 326 325 326 325 326 325 324 323 323 322 321 320 319 319 317 316 315 314 313 313 312 313 312 312 312 313 313 313 314 313 313 312 313
325 327 328 328 325 324 325 325 325 325 325 324 323 324 324 323 323 322 322 322 321 320 319 318 316 315 315 314 313 312 312 312 311 311 312 312 312 312 313 313 312 311 311 311
327 328 329 327 323 323 328 323 322 324 324 322 322 321 323 322 322 322 322 321 320 320 318 317 315 314 313 313 312 312 311 311 310 311 311 311 311 311 311 311 310 310 310 310
325 326 325 326 325 327 322 320 320 321 320 320 320 320 321 321 321 320 321 320 319 318 316 315 313 313 312 311 311 310 310 310 309 309 309 309 308 308 308 307 308 309 309 309
323 324 324 327 323 319 319 319 318 316 317 318 319 319 318 320 320 319 318 318 317 315 313 312 311 311 311 311 309 308 308 308 308 308 307 306 305 304 304 303 304 307 308 308
322 323 321 319 322 319 321 320 320 320 325 320 320 320 320 321 322 320 316 315 314 313 311 310 310 310 310 308 306 306 306 305 305 304 303 302 301 300 303 305 304 304 306 307
320 319 320 319 321 320 321 319 318 322 324 320 320 320 319 321 318 316 314 312 311 310 309 309 308 308 306 305 303 303 303 302 300 301 301 300 300 302 305 305 303 304 305 307
319 320 321 320 321 327 318 319 322 323 320 319 318 318 316 315 314 313 311 310 309 308 307 307 306 305 304 301 300 299 299 299 302 302 301 300 302 301 304 301 302 304 306 307
321 319 321 320 322 320 320 321 319 319 318 318 317 316 315 314 313 311 309 308 307 305 304 305 305 304 302 300 300 298 298 299 300 299 298 301 301 300 302 301 302 304 306 305
319 318 322 321 319 320 319 319 318 317 316 316 316 315 314 312 310 308 306 305 304 304 304 304 304 304 302 300 300 298 299 298 298 298 299 300 300 301 303 301 302 304 305 305
319 318 319 320 319 319 318 317 317 316 316 314 312 311 310 307 305 304 303 303 303 302 303 302 302 302 301 299 300 299 298 298 297 298 297 297 299 300 300 302 304 305 307 305
317 318 320 321 319 319 318 316 316 315 313 311 309 307 305 303 302 302 302 302 301 301 301 300 300 299 298 298 298 300 298 298 297 297 296 297 296 298 300 302 305 307 306 306

GFSCGP_850_thetae_114.txt.gz
Theta_e
319 317 317 317 316 317 318 320 321 320 321 322 322 322 323 323 321 323 322 321 319 319 319 319 327 330 332 332 328 346 346 352 351 346 343 343 341 349 347 345 330 337 341 344
318 317 316 317 317 317 318 320 321 322 322 322 323 323 324 324 324 324 323 322 321 319 319 319 326 332 335 332 335 329 326 339 340 346 344 346 345 346 345 349 352 347 343 333
317 317 316 316 316 318 318 319 321 323 322 322 323 323 325 324 324 323 322 321 321 321 320 320 328 331 331 335 338 331 328 327 327 327 325 326 338 341 343 345 345 342 344 344
318 318 317 316 317 318 319 320 321 322 322 323 323 324 328 326 325 324 322 322 321 321 320 320 328 331 331 333 333 330 326 325 323 323 324 323 322 330 332 334 335 333 331 332
319 317 317 317 316 318 319 321 321 321 322 322 323 323 325 326 325 324 325 323 323 324 320 322 323 332 330 333 333 328 326 326 325 323 337 322 336 342 335 329 329 326 324 316
320 318 318 318 318 319 321 321 321 321 321 322 322 323 324 326 326 325 325 323 323 324 324 324 328 331 332 332 332 334 333 332 325 322 325 335 334 334 329 330 328 325 328 329
319 318 318 319 320 320 320 322 322 322 322 322 322 323 325 327 326 325 325 323 323 325 328 327 331 331 332 335 341 342 335 334 328 322 336 332 329 330 329 328 327 327 327 326
322 320 319 320 321 320 321 323 322 323 322 321 322 323 324 327 326 325 324 324 323 326 328 330 330 331 337 339 339 337 337 335 334 333 333 332 329 325 323 324 322 319 319 318
322 322 319 321 320 321 321 322 321 323 324 324 323 323 326 326 325 325 325 325 326 327 329 331 333 333 337 335 332 331 329 328 326 322 321 322 318 318 318 317 317 316 316 316
321 322 320 320 320 320 322 322 323 323 326 325 325 325 327 327 327 325 327 327 327 329 331 331 331 332 331 330 329 328 326 325 324 320 318 319 317 316 316 316 315 315 315 314
321 323 323 322 321 320 319 321 322 325 326 330 331 331 327 328 328 327 327 328 329 330 330 330 330 329 328 326 326 325 323 322 321 320 319 318 317 316 315 315 314 313 313 312
321 321 325 324 322 321 322 322 324 326 327 324 327 329 327 328 328 326 327 328 329 329 329 329 328 326 325 324 323 322 321 320 319 318 318 318 317 315 314 314 313 311 312 312
322 323 326 327 324 324 321 321 325 329 328 327 331 331 326 326 326 324 326 326 327 327 327 326 325 323 322 321 320 319 318 317 317 316 316 316 316 316 315 314 313 313 312 313
322 324 325 328 325 324 323 321 322 326 332 327 328 327 326 325 325 326 327 326 326 326 324 323 322 321 320 319 318 316 316 315 315 315 315 314 313 312 311 313 314 314 314 315
325 324 324 323 326 326 325 321 325 326 326 327 325 324 325 325 326 326 326 325 324 323 323 322 321 320 318 317 316 315 314 314 314 314 313 313 313 313 313 314 314 314 314 312
326 326 326 329 326 326 327 324 326 325 324 326 326 324 322 324 322 323 325 325 324 322 321 320 319 318 317 316 315 314 314 314 313 312 312 312 312 313 313 313 313 313 312 311
329 328 329 329 326 327 327 326 326 327 327 327 326 327 325 324 323 324 323 323 322 320 319 318 317 316 316 314 313 313 312 312 312 312 311 311 311 311 311 310 310 310 309 310
328 329 327 327 324 329 324 324 324 323 325 324 322 324 324 324 323 323 322 321 320 319 318 316 315 314 314 313 312 311 310 311 311 310 310 309 308 308 307 307 307 306 307 309
326 328 329 327 326 324 322 321 322 323 322 320 321 321 322 322 320 319 319 319 318 316 314 314 313 312 312 311 309 308 308 308 308 307 306 305 304 304 304 303 303 305 306 306
323 324 327 326 326 322 321 320 318 317 324 321 321 320 323 322 323 319 317 316 315 314 312 312 311 310 308 306 304 304 304 304 304 303 302 303 302 301 302 302 303 305 304 305
324 322 325 323 326 325 321 320 320 322 326 322 322 322 322 323 320 316 314 313 312 311 310 309 308 307 304 302 302 301 301 301 300 300 303 303 303 301 301 301 303 304 303 304
321 323 325 323 326 327 319 320 323 325 322 321 320 320 318 317 316 314 313 311 310 309 308 308 307 305 303 300 301 300 299 299 300 301 302 302 301 301 302 300 302 303 303 304
323 321 327 324 326 325 322 324 321 320 319 319 318 317 316 315 314 313 311 309 307 306 306 307 306 305 303 301 302 301 300 300 300 301 301 301 301 302 301 301 303 303 304 305
321 321 324 323 322 322 321 319 318 318 317 317 316 315 314 313 311 309 307 306 305 305 305 304 304 304 303 300 299 301 299 300 300 300 300 300 300 301 301 302 303 303 304 305
319 319 321 322 320 319 318 318 317 317 316 315 314 313 311 309 307 306 305 304 304 304 303 303 302 301 300 299 298 299 299 299 298 299 299 299 299 298 300 302 303 305 305 303
319 320 323 323 319 319 318 318 317 315 314 312 310 307 306 305 304 304 303 303 303 302 301 301 300 299 298 297 296 295 298 298 297 296 298 297 298 299 301 303 306 306 304 306

GFSCGP_850_thetae_117.txt.gz
Theta_e
319 317 317 316 316 316 315 315 316 318 318 317 316 316 316 318 319 319 320 320 319 319 318 319 319 323 328 335 335 340 338 337 335 336 336 339 341 340 336 332 334 337 333 335
318 319 318 317 317 317 316 315 315 317 320 318 318 318 320 320 319 320 320 321 320 319 319 319 318 328 327 332 334 333 340 336 337 332 339 332 332 336 336 339 335 335 336 332
319 320 319 318 316 316 315 314 315 317 319 320 321 320 322 323 322 323 322 323 321 320 319 319 321 331 332 333 332 325 335 329 334 339 343 343 344 340 344 339 334 328 333 337
320 320 319 317 315 315 315 315 317 318 319 320 320 318 321 321 321 322 322 321 321 321 320 318 325 334 331 328 329 331 336 340 340 341 337 324 324 336 332 329 335 338 336 340
323 320 319 316 315 315 315 317 317 317 319 320 319 317 319 321 322 321 319 321 321 321 320 319 324 335 335 334 333 328 333 336 340 341 337 328 328 332 336 336 339 338 336 331
321 319 317 317 316 315 316 317 318 318 317 317 319 320 319 322 322 321 320 322 322 322 321 321 321 333 335 336 331 330 330 329 328 329 328 331 329 332 333 333 331 327 322 325
321 319 319 318 317 316 315 315 319 320 317 318 319 319 318 323 324 323 321 322 323 326 322 319 328 333 338 336 337 340 338 336 333 331 327 330 331 333 330 329 328 328 330 330
321 321 319 319 317 316 315 317 318 320 320 319 319 319 319 321 323 325 324 323 326 329 331 331 333 333 335 337 339 339 338 336 335 336 336 335 332 330 329 329 328 327 326 324
320 320 319 319 318 317 318 318 318 320 323 322 320 319 325 324 324 323 325 326 329 330 331 332 333 336 339 340 338 335 334 332 331 331 330 329 327 326 324 322 319 317 316 316
319 321 320 319 318 320 319 318 319 318 323 325 323 324 326 327 325 326 323 325 331 331 333 338 338 337 334 332 330 328 327 327 323 320 320 318 317 317 316 316 316 315 315 314
321 323 322 321 321 320 319 320 319 318 320 322 324 331 327 327 324 325 325 327 331 331 331 332 331 329 329 328 327 327 324 321 320 319 318 317 317 316 316 315 315 314 314 313
321 322 323 321 321 321 322 318 319 322 323 322 322 330 326 325 326 325 325 327 327 326 329 328 327 327 327 326 323 322 321 319 318 318 317 317 316 315 315 314 313 312 312 311
323 323 323 324 320 320 323 322 319 319 324 326 326 327 325 326 325 326 326 324 324 326 327 326 325 324 323 322 320 318 317 317 317 316 316 316 315 314 313 312 311 310 310 310
321 322 321 322 321 323 323 322 319 320 323 324 326 327 326 326 326 325 325 325 325 325 324 321 321 319 318 317 316 316 315 315 315 315 314 313 312 311 311 311 312 313 313 314
323 325 324 324 325 325 324 323 319 321 325 326 327 327 325 324 326 324 324 324 324 322 321 320 318 317 317 316 315 315 314 314 314 313 312 311 311 311 312 312 312 312 313 313
321 324 323 324 322 326 326 324 323 326 325 326 326 326 323 323 325 325 325 323 323 323 319 318 317 316 316 315 315 314 314 313 312 311 311 311 311 311 311 311 311 311 312 312
321 324 323 327 324 323 325 324 326 326 324 325 326 325 322 324 323 324 325 323 322 319 317 316 316 315 315 314 313 313 312 310 311 311 310 310 310 310 309 309 310 310 310 310
324 324 323 321 318 327 324 323 325 326 326 325 324 324 321 321 320 322 320 318 316 315 315 314 314 314 313 313 312 311 308 308 309 308 308 308 308 308 309 309 309 308 307 307
321 323 326 323 322 325 325 326 325 326 325 324 324 323 321 318 317 316 315 314 313 313 312 312 312 312 312 311 307 305 305 305 305 305 305 305 307 307 307 308 307 306 306 307
316 325 323 324 326 326 322 320 321 321 325 323 321 320 319 318 317 315 314 314 312 312 312 312 311 310 304 303 305 305 305 302 302 303 304 304 304 305 304 302 302 302 303 304
323 323 324 323 325 325 322 321 320 323 325 320 319 319 317 316 314 312 312 311 310 309 308 308 307 305 301 304 304 304 303 302 302 302 303 303 303 303 303 304 303 302 303 303
321 322 322 323 324 323 322 324 324 322 320 318 317 316 315 313 312 311 310 309 308 307 307 306 305 304 301 299 300 303 302 301 302 302 302 302 302 302 303 303 304 303 303 304
321 321 321 323 322 322 322 321 320 319 319 318 317 316 314 312 311 309 307 306 306 306 306 305 304 303 301 299 297 300 300 299 300 301 301 302 301 302 303 304 304 304 304 304
322 321 321 322 321 319 318 318 317 316 316 315 314 313 311 309 308 306 305 305 305 304 303 304 302 300 298 298 296 297 299 298 299 299 300 301 301 303 304 304 304 304 304 304
319 320 321 321 319 319 318 317 316 315 314 312 311 310 308 306 305 304 304 304 303 302 301 300 298 298 297 296 294 294 299 299 298 298 299 300 301 304 304 304 303 303 303 304
319 320 320 321 319 318 317 316 314 312 309 308 306 305 305 305 304 303 303 303 302 301 300 299 298 298 297 295 294 293 297 296 297 298 299 300 302 301 302 303 305 303 305 305

GFSCGP_850_thetae_120.txt.gz
Theta_e
312 312 314 312 312 313 314 313 312 313 314 314 313 313 312 314 314 314 315 317 317 318 318 318 318 322 330 339 342 343 342 340 341 339 335 335 345 349 347 345 343 335 335 333
314 315 316 316 315 315 315 315 314 313 315 315 315 314 314 314 313 315 316 318 319 320 319 318 318 325 330 334 339 338 329 337 337 336 335 342 343 344 343 341 333 330 331 333
317 318 318 317 317 316 315 315 314 313 315 315 316 316 316 316 316 316 317 319 320 320 319 318 319 325 331 335 331 326 326 331 336 333 333 333 335 339 337 334 331 331 334 331
318 318 319 318 318 316 316 315 316 315 315 314 316 317 317 318 319 319 320 321 321 320 319 318 321 327 332 333 328 324 328 330 334 335 334 335 332 334 333 336 337 337 332 334
320 319 319 320 319 317 316 315 316 315 314 313 315 316 316 318 319 318 318 320 322 321 320 318 323 328 333 330 324 328 328 332 332 330 329 329 327 331 334 339 334 330 330 334
322 320 319 319 320 318 316 315 315 314 314 314 316 317 316 317 320 321 318 319 320 320 320 319 323 333 331 328 327 331 330 333 338 331 330 329 325 327 329 331 331 333 334 332
323 323 321 320 321 318 316 313 313 315 314 316 315 316 316 318 320 320 317 318 321 321 321 320 335 338 335 332 333 338 336 335 336 335 334 332 332 334 335 335 333 330 329 326
325 326 322 321 317 317 315 313 312 316 316 315 318 317 317 317 318 322 320 321 321 322 322 325 338 337 340 341 339 339 339 338 338 337 335 335 335 333 333 332 330 327 327 330
323 324 320 320 319 318 316 313 313 317 321 318 317 318 323 323 323 324 324 326 328 327 327 334 340 340 341 340 338 337 336 335 335 335 333 332 331 330 329 328 327 327 325 323
321 321 320 320 319 319 317 315 316 319 323 322 321 326 326 326 325 327 326 326 330 335 335 336 338 338 335 332 329 329 328 329 329 327 326 324 323 322 321 319 318 317 316 315
321 322 323 321 321 319 317 315 317 317 320 319 323 326 325 325 324 328 326 327 326 326 326 327 328 327 327 326 324 322 321 320 320 319 319 318 317 317 316 316 315 314 314 313
319 322 322 321 320 320 319 320 316 318 319 319 320 321 325 324 326 325 326 326 326 325 325 325 325 325 323 321 321 320 319 318 317 317 317 316 316 315 315 314 313 312 311 311
322 324 322 323 320 319 321 321 317 317 316 322 320 323 323 325 324 325 325 326 325 326 325 324 322 319 318 317 317 316 316 316 316 316 316 315 315 314 313 312 311 311 310 310
320 322 319 322 321 320 322 322 320 316 318 322 324 326 325 324 326 325 323 323 323 323 323 323 320 316 316 316 316 316 316 315 315 314 314 313 312 311 311 311 310 311 311 312
319 324 319 322 322 324 324 321 321 318 318 320 324 325 325 323 324 324 323 323 322 322 321 318 316 316 316 316 316 315 315 314 314 313 312 310 310 310 310 310 310 310 310 310
318 324 320 325 325 324 326 324 324 321 324 325 325 324 323 323 323 324 324 323 322 318 315 315 315 315 315 315 315 315 314 314 312 311 310 310 310 310 310 309 308 308 309 312
320 323 321 325 323 324 325 324 326 325 324 325 326 323 322 324 324 323 322 320 316 315 314 314 315 314 314 314 313 313 312 310 308 307 308 308 308 307 307 307 309 311 311 311
321 323 318 321 322 327 323 321 324 325 325 323 324 323 321 318 320 322 316 315 314 313 314 313 313 313 313 312 311 308 306 305 305 305 306 306 306 307 308 308 309 310 310 310
321 323 321 322 323 324 324 322 327 324 325 323 321 318 315 314 314 313 312 314 314 313 313 312 312 311 307 304 303 304 305 306 306 306 306 306 307 307 308 308 307 306 305 305
317 318 319 321 325 327 323 322 321 323 326 322 319 317 316 318 315 312 311 312 312 311 311 309 305 303 302 303 303 305 306 305 305 305 305 305 306 306 306 305 306 305 304 303
323 323 322 322 323 323 323 321 322 324 323 320 318 317 316 312 312 310 311 310 310 308 307 305 302 300 299 299 301 304 304 304 304 305 305 304 304 304 304 305 306 305 304 303
321 322 323 323 321 322 322 323 324 320 317 316 313 312 311 311 310 309 308 308 307 307 306 304 301 299 298 296 297 300 301 302 301 302 304 304 303 303 303 304 305 304 304 305
322 320 322 321 324 318 319 318 316 316 314 313 312 311 310 309 308 307 307 307 306 305 304 303 300 297 296 295 294 297 300 301 301 301 302 302 302 303 303 304 304 304 304 305
322 321 321 320 317 316 316 316 315 314 313 312 311 310 309 307 306 306 305 305 304 304 303 300 297 297 296 295 293 293 299 300 300 301 301 301 302 303 303 302 302 303 303 302
320 319 319 317 315 315 314 312 312 311 312 311 310 310 307 306 305 305 304 303 302 300 298 297 297 297 296 294 294 294 297 299 298 300 301 302 303 303 303 303 303 303 302 302
318 318 319 319 316 314 311 308 311 309 307 307 306 305 304 304 304 303 302 301 300 299 298 297 297 296 295 294 294 295 296 297 297 299 301 302 302 303 303 304 303 303 303 303

GFSCGP_850_thetae_126.txt.gz
Theta_e
311 320 319 316 315 314 311 310 310 308 309 308 309 308 308 309 310 310 312 315 315 315 317 316 316 321 329 335 335 333 335 338 341 342 341 338 337 337 338 338 336 337 343 342
317 320 318 316 315 315 313 310 310 312 311 310 311 310 310 310 310 312 312 314 315 316 316 315 316 321 327 328 331 330 332 335 339 341 342 341 339 339 336 337 337 340 337 338
315 317 318 315 315 315 314 311 311 313 313 312 313 311 312 312 312 314 314 315 316 316 316 316 315 319 325 326 328 327 328 333 338 340 342 341 339 339 339 339 338 336 337 338
317 316 319 316 314 314 314 311 312 313 313 312 312 311 311 312 312 313 314 316 316 317 316 315 316 318 324 321 326 326 329 331 335 339 342 341 340 340 340 337 337 336 336 334
320 318 317 319 316 312 311 311 313 314 312 312 312 310 309 312 314 313 313 315 318 318 318 317 317 317 318 323 326 327 329 332 337 342 340 337 338 337 336 336 338 335 335 335
317 317 316 314 314 312 313 313 313 312 310 312 312 310 310 312 314 314 314 316 318 319 319 318 317 319 320 325 330 332 330 334 339 339 337 338 336 336 335 335 335 334 335 334
317 319 317 315 313 315 314 312 310 312 312 314 310 310 310 312 318 318 317 317 317 318 318 319 318 321 322 328 334 333 332 338 337 336 336 335 336 338 333 330 330 334 332 328
320 321 320 317 316 317 316 313 310 313 313 311 311 312 313 325 326 330 327 317 316 317 318 321 331 334 332 334 337 334 338 335 336 335 336 338 339 336 332 329 331 331 332 332
319 321 319 320 317 316 316 315 310 311 312 310 312 314 323 327 327 330 331 331 331 332 334 335 337 339 338 338 337 337 335 336 336 334 335 333 333 334 334 334 335 335 333 332
320 319 322 320 321 318 318 314 314 313 317 314 316 316 316 327 327 327 327 326 327 329 330 332 333 334 340 338 337 335 334 333 331 328 330 330 331 331 331 331 331 330 329 328
315 321 322 321 323 323 320 318 315 312 312 316 323 324 323 327 327 326 328 326 325 326 328 330 331 331 332 332 331 329 330 330 329 324 325 323 324 324 322 323 323 323 323 322
319 321 322 322 320 322 319 316 314 315 315 315 318 324 324 327 327 327 326 323 320 322 324 324 323 323 324 325 327 329 329 327 327 323 321 321 319 319 319 318 317 316 315 314
318 322 323 321 320 322 323 315 314 312 314 317 320 327 325 326 327 325 322 319 318 319 321 321 321 320 320 320 320 322 321 319 317 316 316 315 315 315 315 314 314 313 312 312
317 321 319 322 320 321 321 317 316 314 315 316 318 327 328 327 326 323 320 318 318 319 319 320 322 321 320 319 317 317 318 316 315 315 315 314 313 313 313 312 311 311 311 310
317 318 319 320 320 320 320 318 316 316 315 318 323 327 326 325 325 323 320 318 317 317 317 315 313 317 318 319 318 316 316 314 314 313 313 312 311 311 311 310 310 309 308 307
315 317 321 323 319 320 320 319 318 318 318 322 324 324 324 324 323 322 320 319 318 315 312 311 310 313 317 319 318 314 313 313 312 311 309 308 307 307 306 306 305 305 306 306
317 313 321 324 322 322 322 323 321 322 321 323 324 323 323 324 323 321 317 315 313 310 310 311 311 311 313 313 313 312 310 306 305 304 305 305 305 306 306 306 307 307 308 308
316 311 317 322 322 324 321 321 323 324 323 323 324 325 324 323 321 316 315 311 309 310 310 311 311 311 310 308 306 305 305 305 306 306 307 307 307 307 307 307 308 308 308 307
315 311 320 318 320 323 324 325 324 323 324 323 325 323 316 314 312 310 311 312 311 310 308 306 305 303 303 303 303 303 303 302 302 303 304 305 306 307 307 307 307 307 307 306
317 313 318 316 319 320 321 321 321 322 326 320 318 316 317 319 319 311 306 309 307 305 302 301 301 301 301 300 300 300 299 300 301 302 304 305 305 306 306 306 306 306 306 306
318 321 318 316 320 320 322 322 322 322 320 319 316 317 319 315 313 305 306 303 303 303 303 300 298 297 296 296 296 297 297 298 301 304 305 305 305 306 306 305 305 306 305 306
322 320 319 315 321 323 321 322 321 317 318 317 317 312 309 307 305 304 304 302 301 300 299 297 296 295 295 295 296 296 297 300 303 304 304 305 305 304 304 304 303 303 302 303
322 317 321 319 319 316 316 318 317 317 313 312 311 310 308 306 305 305 303 301 299 298 296 296 296 296 295 295 295 296 297 300 303 304 305 305 305 305 305 305 304 303 302 302
321 317 317 316 314 314 313 312 312 313 312 311 310 308 308 306 305 303 302 301 298 296 296 296 295 294 294 295 295 295 296 299 302 303 304 304 305 305 304 304 303 302 302 302
319 315 313 312 311 311 311 310 310 309 309 309 307 308 308 306 304 303 301 299 297 297 296 295 295 294 295 294 295 295 295 296 301 302 302 303 303 303 303 304 303 302 301 300
316 313 316 316 311 310 308 307 307 307 306 307 308 305 306 305 303 301 298 297 297 296 295 294 294 294 294 294 294 295 295 294 298 300 301 302 302 302 302 302 302 302 301 299